[[[{"header":{"parameterUnit":"kt","parameterCategory":2,"dx":1,"dy":1,"la1":29.587661999999998,"la2":31.0,"lo1":-88.76705300000003,"lo2":-86.6583820000003,"nx":115,"ny":88,"refTime":"2022-10-19T18:00:00:Z","depth":0,"parameterNumber":1,"parameterNumberName":"U-component_of_WINDS"},"data":[-0.1685,-0.0381,0.0,0.0,0.0,0.0,0.0653,0.1693,0.2295,0.3873,0.5853,0.6631,0.707,0.7283,0.7477,0.8257,0.963,1.0416,1.0416,1.0487,1.0487,1.0487,1.0487,1.0487,1.0487,1.0487,1.0487,1.0552,1.1053,1.1929,1.256,1.2687,1.4213,1.5665,1.7005,1.8276,1.8847,1.9591,2.0024,2.0578,2.0617,2.0604,2.0578,2.0812,2.1138,2.1282,2.1672,2.2557,2.2974,2.33,2.3568,2.384,2.3918,2.3918,2.3918,2.3918,2.3918,2.3918,2.3918,2.4205,2.4549,2.573,2.7,2.8034,2.8991,3.0642,3.0948,3.1374,3.2768,3.341,3.4033,3.4453,3.5166,3.6245,3.7117,3.778,3.8576,3.9256,3.9863,4.0034,4.0053,4.0072,4.0072,4.0072,4.0072,4.0072,4.0072,4.0072,4.0072,4.0072,4.0072,4.0072,4.0072,4.0072,4.0072,4.0072,4.0072,4.0072,4.0072,4.0072,4.0072,4.0072,4.0072,4.0072,4.0128,4.0202,4.0292,4.0677,4.1229,4.1828,4.3001,4.3246,4.2625,4.254,4.3306,-0.3147,-0.174,-0.049,0.0,0.0,0.0,0.0,0.0491,0.1641,0.2603,0.3331,0.3361,0.4226,0.564,0.6959,0.7611,0.8457,0.9501,1.0352,1.0481,1.0487,1.0487,1.0487,1.0487,1.0487,1.0487,1.0487,1.0487,1.0487,1.086,1.1239,1.1246,1.2185,1.3506,1.4529,1.6116,1.8151,1.8836,1.9591,2.0332,2.0516,2.0578,2.0529,2.0711,2.1036,2.1334,2.1711,2.2349,2.2987,2.3243,2.3477,2.375,2.3879,2.3918,2.3918,2.3918,2.3918,2.3918,2.3918,2.3918,2.412,2.4607,2.5943,2.6859,2.7266,2.8019,2.8297,2.9353,3.1272,3.2374,3.3065,3.3704,3.4493,3.5393,3.6151,3.6871,3.7818,3.8782,3.9351,3.9977,4.0015,4.0053,4.0072,4.0072,4.0072,4.0072,4.0072,4.0072,4.0072,4.0072,4.0072,4.0072,4.0072,4.0072,4.0072,4.0072,4.0072,4.0072,4.0072,4.0072,4.0072,4.0072,4.0072,4.0072,4.0072,4.0091,4.0202,4.0311,4.0677,4.1151,4.1653,4.1588,4.1075,4.1457,4.1867,-0.4176,-0.201,0.0,0.0,0.0,0.0,0.0,0.0,0.0653,0.1007,0.1106,0.1251,0.2082,0.3862,0.4465,0.54,0.787,0.872,0.9501,1.0288,1.0487,1.0487,1.0487,1.0487,1.0487,1.0487,1.0487,1.0487,1.0487,1.0487,1.0487,1.0674,1.1053,1.2121,1.3316,1.433,1.598,1.7902,1.8723,1.9034,1.9084,1.927,1.9529,2.0481,2.0786,2.0877,2.1281,2.1607,2.2204,2.2659,2.3165,2.349,2.3815,2.3905,2.3918,2.3918,2.3918,2.3918,2.3918,2.3918,2.3918,2.4049,2.4977,2.5248,2.566,2.5801,2.6155,2.7266,2.9183,3.083,3.151,3.2827,3.3667,3.4588,3.5391,3.6026,3.6871,3.7856,3.8744,3.9369,3.9635,3.9711,3.9826,3.9826,3.9996,3.9996,4.0053,4.0072,4.0072,4.0072,4.0072,4.0072,4.0072,4.0072,4.0072,4.0072,4.0072,4.0072,4.0072,4.0072,4.0072,4.0072,4.0072,4.0072,4.0072,4.0072,4.0072,4.0128,4.0434,4.0657,4.0415,4.0127,4.0351,4.0767,4.0887,-0.5473,-0.3093,-0.1631,-0.0544,0.0,0.0,0.0,0.0,0.0,0.0,0.0,0.0,0.0858,0.2033,0.2656,0.3906,0.6307,0.7347,0.8586,0.9307,1.0352,1.0487,1.0487,1.0487,1.0487,1.0487,1.0487,1.0487,1.0487,1.0487,1.0487,1.0487,1.0674,1.111,1.2121,1.3125,1.433,1.6053,1.6618,1.6743,1.7442,1.7891,1.8525,1.9468,2.0604,2.0656,2.0838,2.1127,2.1594,2.2062,2.274,2.3287,2.3698,2.3853,2.3905,2.3918,2.3918,2.3918,2.3918,2.3918,2.3918,2.399,2.399,2.3918,2.3918,2.3918,2.4478,2.5603,2.6915,2.856,3.0009,3.151,3.2827,3.3801,3.4682,3.5278,3.5829,3.6871,3.7932,3.8535,3.9045,3.9331,3.9503,3.9655,3.9882,3.9958,4.0015,4.0034,4.0034,4.0072,4.0072,4.0072,4.0072,4.0072,4.0072,4.0072,4.0072,4.0072,4.0072,4.0072,4.0072,4.0072,4.0072,4.0072,4.0072,4.0072,4.0072,4.0072,4.0072,4.0146,4.0091,4.0072,4.0259,4.0315,4.0166,-0.7583,-0.6012,-0.4608,-0.2442,0.0,0.0,0.0,0.0,0.0,0.0,0.0,0.0,0.0,0.0705,0.1625,0.2735,0.4101,0.6048,0.7287,0.8064,0.9436,1.0294,1.0359,1.0487,1.0487,1.0487,1.0487,1.0487,1.0487,1.0487,1.0487,1.0487,1.0487,1.0674,1.1239,1.2121,1.2942,1.3959,1.4022,1.452,1.5728,1.7005,1.8214,1.8587,1.9529,2.0591,2.0734,2.1034,2.145,2.1789,2.2295,2.3013,2.3391,2.3638,2.3827,2.3892,2.3918,2.3918,2.3918,2.3918,2.3918,2.3918,2.3918,2.3918,2.3918,2.3918,2.3918,2.4763,2.5532,2.697,2.8367,2.9734,3.1578,3.2894,3.3819,3.4557,3.5143,3.5961,3.6909,3.7605,3.8113,3.8513,3.8706,3.8839,3.8988,3.973,3.9939,3.9958,3.9977,4.0053,4.0072,4.0072,4.0072,4.0072,4.0072,4.0072,4.0072,4.0072,4.0072,4.0072,4.0072,4.0072,4.0072,4.0072,4.0072,4.0072,4.0072,4.0072,4.0072,4.0072,4.0072,4.0072,4.0053,4.011,4.0053,-0.7905,-0.6497,-0.5909,-0.4497,-0.2607,-0.1631,-0.1305,-0.1088,-0.0327,0.0,0.0,0.0,0.0,0.0,0.0,0.1632,0.2476,0.4361,0.5918,0.6959,0.8521,0.9372,1.0223,1.0487,1.0423,1.0487,1.0487,1.0487,1.0487,1.0487,1.0487,1.0487,1.0487,1.0487,1.0674,1.1182,1.1616,1.1616,1.1808,1.2568,1.3515,1.4583,1.643,1.7703,1.8525,1.9653,2.0396,2.0708,2.1112,2.1477,2.162,2.2362,2.3183,2.3339,2.3534,2.3905,2.3918,2.3918,2.3918,2.3918,2.3918,2.3918,2.3918,2.3918,2.3918,2.3918,2.3918,2.399,2.4692,2.5461,2.6704,2.8019,3.0009,3.2001,3.2894,3.3752,3.4453,3.5145,3.5915,3.6618,3.7073,3.7491,3.7776,3.7909,3.8231,3.8915,3.9294,3.9521,3.973,3.9806,3.9844,4.0015,4.0072,4.0072,4.0072,4.0072,4.0072,4.0072,4.0072,4.0072,4.0072,4.0072,4.0072,4.0072,4.0072,4.0072,4.0072,4.0072,4.0072,4.0072,4.0072,4.0072,4.0072,4.0072,4.0053,-0.8073,-0.704,-0.6717,-0.5958,-0.4821,-0.3848,-0.2878,-0.2064,-0.1143,0.0,0.0,0.0,0.0,0.0,0.0,0.0,0.1566,0.2607,0.4361,0.5529,0.6635,0.8128,0.9043,0.9636,1.0094,1.0288,1.0487,1.0487,1.0487,1.0487,1.0487,1.0487,1.0487,1.0487,1.0487,1.0552,1.061,1.0674,1.0738,1.1367,1.2128,1.3061,1.4393,1.5917,1.6869,1.8202,1.9208,1.969,2.0388,2.0987,2.1269,2.1776,2.2857,2.3091,2.3391,2.3827,2.3918,2.3918,2.3918,2.3918,2.3918,2.3918,2.3918,2.3918,2.3918,2.3918,2.3918,2.3918,2.4276,2.4549,2.5447,2.6634,2.8228,3.0146,3.1713,3.2693,3.357,3.4338,3.5308,3.5896,3.6086,3.6504,3.6998,3.7149,3.7396,3.8099,3.863,3.9029,3.9275,3.937,3.9484,3.9958,4.0072,4.0072,4.0072,3.9939,3.9996,4.0072,4.0072,4.0072,4.0072,4.0072,4.0072,4.0072,4.0072,4.0072,4.0072,4.0072,4.0072,4.0072,4.0072,4.0072,4.0072,4.0072,4.0053,-0.873,-0.8455,-0.7153,-0.655,-0.6389,-0.634,-0.4771,-0.2281,-0.2118,-0.1354,0.0,0.0,0.0,0.0,0.0,0.0,0.0,0.0,0.2672,0.3449,0.4747,0.6307,0.7417,0.8133,0.8979,0.9894,1.0487,1.0487,1.0487,1.0487,1.0487,1.0487,1.0487,1.0487,1.0487,1.0487,1.0487,1.0487,1.0487,1.0738,1.1182,1.2057,1.307,1.4077,1.5088,1.6492,1.7692,1.8513,1.9331,2.0114,2.1062,2.1633,2.2217,2.2776,2.3321,2.3724,2.3892,2.3918,2.3918,2.3918,2.3918,2.3918,2.3918,2.3918,2.3918,2.3918,2.3918,2.3918,2.3918,2.4049,2.4192,2.5376,2.6578,2.8352,3.0266,3.151,3.2491,3.3485,3.4463,3.5213,3.5355,3.5563,3.6143,3.6371,3.6561,3.7225,3.7795,3.8174,3.825,3.844,3.8934,3.9426,3.9559,3.9768,3.992,3.9749,3.9806,4.0053,4.0072,4.0053,4.0072,4.0072,4.0072,4.0072,4.0072,4.0072,4.0072,4.0072,4.0072,4.0072,4.0072,4.0072,4.0072,4.0072,4.0072,-0.873,-0.8669,-0.818,-0.8019,-0.7965,-0.8019,-0.6879,-0.5037,-0.3911,-0.2761,-0.1601,-0.1379,-0.093,0.0,0.0,0.0,0.0,0.0719,0.111,0.2605,0.3321,0.4556,0.6048,0.7283,0.7805,0.8779,0.9695,1.0423,1.0294,1.0423,1.0487,1.0487,1.0487,1.0487,1.0487,1.0487,1.0487,1.0487,1.0487,1.0487,1.0738,1.1117,1.1937,1.2815,1.3633,1.4646,1.6168,1.7442,1.84,1.9132,2.0127,2.1243,2.1958,2.2464,2.2763,2.3321,2.3633,2.3892,2.3879,2.3879,2.384,2.3879,2.3918,2.3918,2.3918,2.3918,2.3918,2.3918,2.3918,2.399,2.399,2.4049,2.5319,2.6634,2.849,3.0146,3.1238,3.2406,3.3418,3.4626,3.5109,3.5147,3.5336,3.5526,3.5772,3.639,3.6922,3.6941,3.6998,3.7491,3.8094,3.8136,3.8231,3.8668,3.8972,3.9105,3.9521,3.9977,4.0053,4.0053,4.0034,3.9977,4.0034,4.0072,4.0072,4.0072,4.0072,4.0072,4.0072,4.0072,4.0072,4.0072,4.0072,4.0072,4.0072,-0.9152,-0.8783,-0.873,-0.873,-0.873,-0.873,-0.8186,-0.704,-0.5714,-0.4332,-0.3144,-0.2362,-0.1628,-0.0839,0.0,0.0,0.0,0.0,0.0262,0.1566,0.1632,0.2869,0.4036,0.5266,0.6182,0.7218,0.8586,0.9436,0.9572,1.0288,1.0416,1.0487,1.0487,1.0487,1.0487,1.0487,1.0487,1.0487,1.0487,1.0487,1.0487,1.0616,1.106,1.2001,1.2057,1.3006,1.4646,1.5404,1.6806,1.8276,1.8922,2.0366,2.162,2.1893,2.2204,2.275,2.3009,2.3399,2.3607,2.362,2.362,2.3698,2.3763,2.3918,2.3918,2.3918,2.3918,2.3918,2.3918,2.3918,2.3918,2.3918,2.4263,2.5589,2.6845,2.849,2.9803,3.1017,3.2456,3.3667,3.4938,3.5061,3.5099,3.5327,3.5422,3.5821,3.5953,3.5953,3.6321,3.6865,3.7149,3.7168,3.732,3.7757,3.8061,3.8231,3.8535,3.8839,3.9178,3.9521,3.9825,3.9882,3.992,3.9977,4.0034,4.0072,4.0072,4.0072,4.0072,4.0072,4.0072,4.0072,4.0072,4.0072,4.0072,-0.9931,-0.8837,-0.8723,-0.873,-0.873,-0.873,-0.8669,-0.8287,-0.7158,-0.5966,-0.4775,-0.3557,-0.278,-0.2075,-0.0915,0.0,0.0,0.0,0.0,0.0,0.0,0.0,0.2152,0.306,0.4163,0.5335,0.6765,0.774,0.774,0.9108,0.9959,1.0094,1.0288,1.0487,1.0487,1.0487,1.0487,1.0487,1.0487,1.0487,1.0487,1.0487,1.0552,1.0925,1.0925,1.1495,1.2815,1.3633,1.5025,1.6743,1.7567,1.8806,2.0487,2.0755,2.1307,2.1846,2.2082,2.2542,2.2987,2.3065,2.3144,2.3261,2.3542,2.3802,2.3892,2.3918,2.3918,2.3918,2.3918,2.3918,2.3918,2.3918,2.3918,2.462,2.5673,2.6985,2.8158,2.9321,3.1153,3.2693,3.3952,3.4938,3.4872,3.5023,3.5061,3.508,3.5042,3.5298,3.5848,3.6208,3.6428,3.6523,3.6713,3.7073,3.7263,3.7396,3.7548,3.7757,3.8061,3.8497,3.8839,3.9256,3.9579,3.9882,3.9958,4.0053,4.0072,4.0034,4.0072,4.0072,4.0072,4.0072,4.0072,4.0072,4.0072,-1.0455,-1.0037,-0.9091,-0.873,-0.873,-0.873,-0.873,-0.8669,-0.8234,-0.7425,-0.6329,-0.585,-0.4598,-0.2838,-0.1891,-0.1371,0.0,0.0,0.0,0.0,0.0,0.0,0.1046,0.1827,0.267,0.3516,0.5007,0.5983,0.6048,0.774,0.8327,0.8914,0.9765,1.0223,1.0416,1.0487,1.0487,1.0487,1.0487,1.0487,1.0487,1.0487,1.0487,1.0487,1.0487,1.0989,1.1431,1.2368,1.3578,1.471,1.5768,1.6797,1.7898,1.8834,1.9565,2.0302,2.1038,2.1982,2.1958,2.1971,2.223,2.2896,2.33,2.3542,2.3789,2.3918,2.3918,2.3918,2.3918,2.3918,2.3918,2.3918,2.3918,2.3918,2.4963,2.5589,2.6689,2.788,2.9718,3.1645,3.2693,3.3734,3.4086,3.5004,3.5042,3.5023,3.5023,3.5213,3.5526,3.562,3.5802,3.5953,3.6105,3.6295,3.6416,3.6599,3.6751,3.696,3.7358,3.7719,3.8061,3.8649,3.9029,3.9218,3.9484,3.9958,3.9977,3.9844,3.9901,4.0034,4.0072,4.0072,4.0072,4.0072,4.0072,-1.1725,-1.072,-1.0471,-0.9999,-0.9458,-0.9458,-0.9205,-0.8777,-0.873,-0.8337,-0.7811,-0.7285,-0.6171,-0.4766,-0.4036,-0.2608,-0.1111,-0.0981,0.0,0.0,0.0,0.0,0.0,0.098,0.0,0.1958,0.3256,0.4163,0.4556,0.683,0.7024,0.689,0.8193,0.9043,0.983,1.0023,1.0352,1.0487,1.0487,1.0487,1.0487,1.0487,1.0487,1.0487,1.0487,1.0487,1.0674,1.1616,1.2305,1.3125,1.4077,1.5149,1.623,1.7051,1.7863,1.8762,1.9656,2.0665,2.1143,2.0695,2.0949,2.1935,2.2909,2.3274,2.3477,2.3815,2.3905,2.3918,2.3918,2.3918,2.3918,2.3918,2.3918,2.3918,2.4205,2.4607,2.5447,2.6563,2.8213,3.042,3.1595,3.2979,3.4019,3.4938,3.5004,3.5004,3.5004,3.5023,3.5118,3.5213,3.5289,3.5403,3.546,3.5612,3.562,3.5802,3.5934,3.6295,3.6694,3.6884,3.7073,3.7648,3.8269,3.8535,3.8763,3.9143,3.9389,3.9465,3.9655,3.9958,4.0053,3.9939,3.9996,4.0072,4.0072,-1.3416,-1.1082,-1.2429,-1.2112,-1.0879,-1.0818,-1.009,-0.9098,-0.8991,-0.8998,-0.8741,-0.8073,-0.7662,-0.7172,-0.5854,-0.4426,-0.2735,-0.2735,-0.1827,-0.0785,0.0,0.0,0.0,0.0,0.0,0.0,0.1567,0.2348,0.3062,0.5208,0.4747,0.3449,0.6242,0.7218,0.8004,0.9043,0.983,0.9894,1.0416,1.0481,1.0487,1.0487,1.0487,1.0487,1.0487,1.0487,1.0487,1.0674,1.1239,1.2424,1.2743,1.3383,1.4303,1.514,1.5975,1.686,1.7727,1.8762,1.9428,1.8968,1.9181,2.0665,2.1887,2.2404,2.3191,2.362,2.3853,2.3892,2.3918,2.3918,2.3918,2.3918,2.3918,2.3918,2.399,2.4263,2.4678,2.5744,2.7336,2.9268,3.1119,3.2979,3.4237,3.4853,3.5004,3.5004,3.5004,3.5004,3.5004,3.5004,3.5004,3.5004,3.5004,3.5023,3.508,3.5175,3.5422,3.5764,3.5972,3.6086,3.6151,3.6732,3.7377,3.7662,3.8042,3.8421,3.8725,3.8687,3.8877,3.9522,3.9768,3.9331,3.9236,3.9197,3.9331,-1.4585,-1.3949,-1.4262,-1.3646,-1.2323,-1.227,-1.1522,-1.0303,-1.0197,-0.967,-0.9037,-0.8936,-0.8457,-0.7795,-0.7278,-0.6246,-0.4621,-0.4553,-0.3453,-0.2413,-0.1762,-0.1242,0.0,0.0,0.0,0.0,0.0,0.0,0.0,0.2543,0.3581,0.28,0.4747,0.5659,0.6311,0.7481,0.8591,0.872,0.9765,1.0352,1.0487,1.0487,1.0487,1.0487,1.0487,1.0487,1.0487,1.0487,1.0487,1.1239,1.1303,1.156,1.2192,1.3133,1.4086,1.471,1.5539,1.6397,1.6723,1.6923,1.7331,1.841,1.9606,2.0965,2.2378,2.3235,2.3456,2.3827,2.3879,2.3918,2.3918,2.3918,2.3918,2.3918,2.3918,2.3918,2.4205,2.5461,2.6985,2.8783,3.0573,3.2576,3.3819,3.4588,3.4853,3.4938,3.5004,3.5004,3.5004,3.5004,3.5004,3.5004,3.5004,3.5004,3.5042,3.5023,3.5023,3.5194,3.5251,3.5298,3.5507,3.5942,3.6447,3.6884,3.7301,3.7681,3.7989,3.7947,3.789,3.8307,3.8592,3.8456,3.8361,3.8061,3.808,-1.6742,-1.664,-1.6163,-1.5065,-1.3855,-1.3751,-1.2954,-1.1681,-1.0985,-1.025,-0.975,-0.9583,-0.9176,-0.8773,-0.8852,-0.7999,-0.6635,-0.6307,-0.54,-0.4036,-0.3581,-0.2802,-0.1502,-0.1111,-0.0523,0.0,0.0,0.0,0.0,0.1046,0.1437,0.1633,0.3125,0.4101,0.4228,0.5785,0.683,0.7805,0.8715,0.9636,1.0288,1.0487,1.0487,1.0487,1.0487,1.0487,1.0487,1.0487,1.0487,1.0487,1.0487,1.0487,1.0803,1.1367,1.2376,1.2815,1.3388,1.3769,1.433,1.4457,1.5423,1.666,1.8058,1.9193,2.0886,2.2259,2.3339,2.3542,2.375,2.3905,2.3918,2.3918,2.3918,2.3918,2.3918,2.3918,2.4205,2.5319,2.6437,2.8158,2.9888,3.1527,3.2912,3.3448,3.3667,3.4152,3.4806,3.4872,3.4938,3.5004,3.5004,3.5004,3.5004,3.5004,3.5004,3.5004,3.5004,3.5004,3.5061,3.508,3.5109,3.5166,3.5536,3.5953,3.6485,3.6852,3.725,3.732,3.7206,3.732,3.7453,3.7681,3.7871,3.7567,3.7415,-1.9413,-1.9177,-1.7854,-1.6627,-1.5571,-1.5312,-1.4377,-1.3007,-1.1883,-1.1144,-1.0929,-1.0191,-0.9859,-0.9824,-1.0196,-0.9453,-0.8521,-0.8004,-0.7153,-0.572,-0.5464,-0.4556,-0.306,-0.2735,-0.1566,0.0,0.0,-0.0065,-0.0327,-0.0065,0.0,0.0,0.1566,0.2217,0.2476,0.3971,0.5659,0.6825,0.7283,0.8327,0.9765,1.0352,1.0487,1.0487,1.0487,1.0487,1.0487,1.0487,1.0487,1.0487,1.0487,1.0487,1.0487,1.0487,1.1431,1.1808,1.1624,1.1182,1.244,1.2751,1.3451,1.5108,1.6335,1.7738,1.9311,2.0995,2.2327,2.2876,2.3521,2.3711,2.3711,2.3853,2.3918,2.3918,2.3918,2.3918,2.4062,2.5034,2.5872,2.7391,2.8297,3.0009,3.1238,3.1848,3.2541,3.3734,3.4654,3.4739,3.4872,3.4938,3.5004,3.5004,3.5004,3.5004,3.5004,3.5004,3.5004,3.5004,3.5023,3.5023,3.5061,3.5099,3.5175,3.5308,3.562,3.6094,3.6264,3.6447,3.6542,3.6542,3.6485,3.6789,3.7206,3.7187,3.696,-2.1558,-2.0492,-1.9227,-1.8472,-1.8067,-1.7139,-1.5853,-1.4649,-1.4169,-1.3374,-1.2398,-1.1432,-1.107,-1.0998,-1.0575,-1.0086,-1.0023,-0.9894,-0.885,-0.7541,-0.7218,-0.6376,-0.4686,-0.3451,-0.254,-0.1958,-0.1111,-0.0719,-0.1371,-0.0785,0.0,0.0,0.0,0.0,0.0,0.2282,0.2867,0.4036,0.488,0.657,0.8327,0.9695,1.0487,1.0487,1.0487,1.0352,1.0288,1.0223,1.0288,1.0288,1.0423,1.0487,1.0487,1.0487,1.0674,1.0867,1.0745,1.0681,1.1053,1.1117,1.1937,1.3388,1.3887,1.5642,1.7466,1.9093,2.0534,2.2038,2.2919,2.3352,2.3443,2.3646,2.3879,2.3918,2.3918,2.399,2.4192,2.475,2.566,2.607,2.6774,2.774,2.849,2.9183,3.0761,3.2036,3.2778,3.3065,3.4237,3.4437,3.4654,3.4721,3.5004,3.5004,3.5004,3.5004,3.5004,3.5004,3.5004,3.5004,3.5004,3.5004,3.5023,3.5099,3.5403,3.5431,3.5289,3.5327,3.5631,3.5745,3.5555,3.5631,3.5934,3.6029,3.6181,-2.2531,-2.1786,-2.0526,-1.9663,-1.8976,-1.8297,-1.728,-1.6008,-1.522,-1.4545,-1.3833,-1.3063,-1.2784,-1.2602,-1.185,-1.0998,-1.0647,-1.0487,-0.9959,-0.9372,-0.8979,-0.8198,-0.6437,-0.5659,-0.4683,-0.3776,-0.2997,-0.2804,-0.2411,-0.1632,0.0,0.0,0.0,0.0,0.0,0.0,0.1697,0.2672,0.3516,0.4815,0.6506,0.7287,0.8457,0.8914,0.9172,0.9178,0.9178,0.9178,0.9172,0.9372,1.003,1.0423,1.0487,1.0487,1.0552,1.0552,1.0552,1.0487,1.0487,1.0552,1.086,1.1808,1.2687,1.395,1.5482,1.7432,1.9082,2.0556,2.1684,2.3144,2.313,2.3594,2.3866,2.3918,2.3918,2.3918,2.4133,2.475,2.4963,2.5106,2.5518,2.5872,2.6281,2.7461,2.8991,3.0025,3.0778,3.1951,3.3333,3.36,3.3819,3.4237,3.4938,3.5004,3.5004,3.5004,3.5004,3.5004,3.5004,3.5004,3.5004,3.5004,3.5004,3.5004,3.5004,3.5137,3.5023,3.5042,3.5023,3.5061,3.5156,3.5194,3.5061,3.5042,3.5327,-2.3271,-2.3175,-2.1851,-2.0739,-1.9812,-1.9463,-1.8637,-1.7344,-1.6293,-1.5571,-1.5284,-1.4709,-1.4441,-1.4288,-1.3727,-1.2496,-1.1225,-1.061,-1.0416,-1.0294,-1.0223,-0.9701,-0.8198,-0.7481,-0.7024,-0.6242,-0.5594,-0.4815,-0.3971,-0.2995,-0.2153,-0.0785,0.0,0.0,0.0,0.0,0.085,0.1697,0.2023,0.3062,0.4361,0.5075,0.572,0.7223,0.787,0.8004,0.7934,0.787,0.7934,0.8263,0.9372,0.9894,0.983,0.983,1.0094,1.0352,1.0487,1.0487,1.0487,1.0487,1.0487,1.0803,1.1616,1.256,1.3697,1.5452,1.7305,1.8864,2.0781,2.2387,2.2893,2.3347,2.3711,2.3918,2.3918,2.3918,2.3918,2.4062,2.4205,2.4335,2.4263,2.4478,2.5177,2.614,2.7391,2.8297,2.8906,2.9888,3.1323,3.2086,3.2558,3.3533,3.4455,3.4588,3.4787,3.4654,3.4938,3.4872,3.5004,3.5004,3.5004,3.5004,3.5004,3.5004,3.5004,3.5004,3.5004,3.5004,3.5004,3.5004,3.5004,3.5023,3.5004,3.5004,3.5118,-2.4783,-2.4622,-2.3241,-2.2514,-2.2192,-2.1117,-1.9962,-1.8825,-1.8522,-1.7573,-1.6778,-1.5972,-1.5819,-1.5775,-1.5079,-1.3959,-1.2615,-1.156,-1.0545,-1.0552,-1.0487,-1.0159,-0.9636,-0.8785,-0.8327,-0.9501,-0.8128,-0.7218,-0.6372,-0.5529,-0.3906,-0.2411,-0.2152,-0.1499,-0.0327,0.0,0.0131,0.0,0.0,0.1437,0.2672,0.2997,0.3906,0.5464,0.657,0.7218,0.7218,0.7541,0.8198,0.99,0.885,0.8327,0.8193,0.8327,0.8785,1.0416,1.0294,1.0352,1.0416,1.0487,1.0487,1.0487,1.086,1.1552,1.2616,1.3841,1.5472,1.7146,1.8872,2.0108,2.2056,2.2932,2.3425,2.3789,2.3918,2.3918,2.3918,2.3918,2.3853,2.3866,2.3925,2.3957,2.4398,2.4794,2.5716,2.6563,2.6915,2.7685,2.9129,3.0162,3.1051,3.1951,3.2491,3.2693,3.3552,3.3752,3.4588,3.4721,3.5004,3.5004,3.5004,3.4787,3.4503,3.4721,3.5004,3.5004,3.5004,3.5004,3.5004,3.5004,3.5004,3.5004,3.5004,3.5004,3.5023,-2.5105,-2.5038,-2.4365,-2.3624,-2.2917,-2.2289,-2.133,-2.0111,-1.9363,-1.8688,-1.8014,-1.7314,-1.7269,-1.7557,-1.6576,-1.6032,-1.5137,-1.3142,-1.1431,-1.0674,-1.0545,-1.0552,-1.0223,-0.9765,-0.9566,-1.0152,-0.9566,-0.8591,-0.787,-0.683,-0.5659,-0.4101,-0.3971,-0.2982,-0.1603,-0.1362,-0.0843,0.0,0.0,0.0327,0.1046,0.1176,0.2023,0.3711,0.4488,0.501,0.5202,0.5854,0.6372,0.6311,0.6376,0.676,0.7546,0.7805,0.872,0.9894,0.9765,0.9372,1.0288,1.0487,1.0487,1.0487,1.0487,1.1053,1.1495,1.2624,1.3887,1.5278,1.7132,1.9114,2.1797,2.2711,2.3365,2.3763,2.3918,2.3918,2.3866,2.3646,2.3464,2.3573,2.3685,2.3698,2.3711,2.4015,2.4686,2.4754,2.5102,2.5815,2.7266,2.7951,2.8976,3.0083,3.0542,3.1187,3.2169,3.3199,3.3904,3.437,3.4503,3.4588,3.4787,3.4522,3.4086,3.4503,3.5004,3.5004,3.5004,3.5004,3.5004,3.5004,3.5004,3.5004,3.5004,3.5004,3.5004,-2.5619,-2.5304,-2.5162,-2.4413,-2.3529,-2.3385,-2.2748,-2.1623,-2.0291,-1.9732,-1.9304,-1.8469,-1.8358,-1.8728,-1.802,-1.7674,-1.7137,-1.5364,-1.3197,-1.1695,-1.1303,-1.1053,-1.1053,-1.0545,-1.0481,-1.0487,-1.0487,-0.9765,-0.8785,-0.8327,-0.7481,-0.5983,-0.5652,-0.4895,-0.3236,-0.2633,-0.1789,0.0,0.0,0.0,0.0,0.0,0.0785,0.1762,0.2087,0.2217,0.2735,0.3903,0.3776,0.293,0.3643,0.5137,0.6117,0.6765,0.7676,0.8591,0.8457,0.8914,0.9701,1.0159,1.0487,1.0487,1.0487,1.0487,1.061,1.1744,1.2496,1.3506,1.535,1.7603,1.9891,2.1437,2.2335,2.3078,2.3425,2.3464,2.3451,2.3139,2.2906,2.3026,2.3217,2.3386,2.3039,2.3269,2.323,2.3104,2.3568,2.4222,2.4837,2.5502,2.68,2.8276,2.8733,2.9138,3.0408,3.2018,3.2845,3.3515,3.3734,3.3886,3.4455,3.4455,3.4455,3.4654,3.5004,3.5004,3.5004,3.5004,3.5004,3.5004,3.5004,3.5004,3.5004,3.5004,3.5004,-2.7285,-2.6063,-2.539,-2.4991,-2.4905,-2.4868,-2.4494,-2.373,-2.2357,-2.1449,-2.071,-1.9371,-1.8919,-1.8854,-1.9017,-1.8607,-1.7376,-1.7153,-1.6148,-1.4845,-1.3451,-1.2743,-1.2568,-1.1495,-1.0803,-1.0738,-1.0552,-1.0288,-1.003,-1.003,-0.9108,-0.7934,-0.7546,-0.6614,-0.5071,-0.3555,-0.258,-0.2134,-0.1202,0.0,0.0,0.0,0.0,0.0,0.0,0.111,0.2087,0.2737,0.2217,0.0393,0.1891,0.306,0.3321,0.4815,0.5659,0.6246,0.8198,0.8914,0.8586,0.963,1.0487,1.0288,1.0352,1.0487,1.0552,1.0803,1.1552,1.2616,1.3252,1.4784,1.655,1.8289,2.0046,2.1819,2.2223,2.2319,2.2306,2.2334,2.2295,2.2254,2.2267,2.2319,2.2254,2.2267,2.2319,2.2412,2.261,2.3103,2.3402,2.3824,2.4845,2.6089,2.6562,2.7023,2.8701,3.0611,3.1337,3.1871,3.1765,3.2519,3.3133,3.3055,3.3834,3.4806,3.4938,3.5004,3.5004,3.5004,3.5004,3.5004,3.5004,3.5004,3.5004,3.5004,3.5004,-2.8716,-2.8069,-2.6927,-2.6393,-2.6443,-2.6443,-2.633,-2.5858,-2.458,-2.3361,-2.2151,-2.0828,-1.9864,-1.9367,-1.9497,-1.9399,-1.9037,-1.8419,-1.7766,-1.6754,-1.535,-1.4583,-1.4077,-1.2815,-1.1993,-1.1873,-1.0989,-1.061,-1.0545,-1.0487,-1.0094,-0.9436,-0.9372,-0.8451,-0.675,-0.585,-0.5149,-0.4143,-0.3494,-0.2413,-0.1571,-0.1481,-0.1101,0.0,0.0,0.0196,0.1046,0.2022,0.1762,0.0719,0.1566,0.254,0.2605,0.3319,0.4163,0.527,0.6506,0.7223,0.6894,0.8979,0.9894,0.9307,1.003,1.0352,1.0487,1.0487,1.0616,1.1616,1.2496,1.3252,1.433,1.6053,1.8273,2.0015,2.0164,2.0197,2.1243,2.14,2.1685,2.1802,2.1905,2.206,2.175,2.2049,2.1957,2.1867,2.1932,2.2075,2.2126,2.223,2.2802,2.3404,2.3943,2.4281,2.5594,2.7158,2.8091,2.8355,2.8734,3.0298,3.0249,2.9525,3.152,3.3948,3.4579,3.5004,3.5004,3.5004,3.4702,3.4419,3.4966,3.5004,3.5004,3.5004,3.5004,-3.0824,-3.03,-2.8641,-2.7947,-2.7966,-2.752,-2.7511,-2.7581,-2.629,-2.5103,-2.4037,-2.229,-2.0892,-2.0252,-1.9882,-1.988,-1.9889,-1.9246,-1.8723,-1.8525,-1.7369,-1.6795,-1.598,-1.452,-1.3697,-1.3443,-1.2128,-1.1182,-1.111,-1.0738,-1.0487,-1.0487,-1.0352,-0.973,-0.8534,-0.7852,-0.7048,-0.6083,-0.5544,-0.4451,-0.3397,-0.3274,-0.2379,-0.0883,0.0,0.0,0.013,0.1236,0.1236,0.0193,0.1285,0.1874,0.1825,0.2346,0.2932,0.3778,0.4621,0.527,0.5789,0.7611,0.8914,0.8586,0.9307,1.003,1.0423,1.0487,1.0487,1.0738,1.1495,1.2312,1.2664,1.4198,1.5886,1.7548,1.7136,1.7331,1.8818,1.9938,2.0505,2.0606,2.122,2.1413,2.1321,2.1412,2.1516,2.1295,2.1412,2.1646,2.1542,2.1581,2.1711,2.1815,2.1997,2.2062,2.2511,2.3973,2.4967,2.5437,2.6372,2.7855,2.7258,2.7044,2.9899,3.2161,3.1899,3.1809,3.2601,3.3698,3.3652,3.2956,3.3456,3.3877,3.4207,3.4109,3.3931,-3.406,-3.2613,-3.0413,-2.9457,-2.9305,-2.8069,-2.8004,-2.8372,-2.7154,-2.6713,-2.6378,-2.3743,-2.2097,-2.1533,-2.0491,-1.9908,-1.9756,-1.9978,-2.0209,-2.0147,-1.9949,-1.9195,-1.7941,-1.643,-1.5665,-1.5224,-1.3697,-1.2934,-1.2815,-1.1431,-1.0487,-1.0674,-1.061,-1.0332,-0.9883,-0.8597,-0.7912,-0.7513,-0.6262,-0.552,-0.5124,-0.5062,-0.4241,-0.2511,-0.2374,-0.1742,-0.0573,-0.0258,-0.0128,-0.0061,-0.0125,0.0191,0.0455,0.1696,0.1632,0.085,0.352,0.4686,0.5075,0.5922,0.7153,0.9172,0.885,0.8591,1.0229,1.0487,1.0487,1.0552,1.0732,1.0803,1.1117,1.2311,1.3208,1.3464,1.3894,1.4475,1.5728,1.7413,1.8215,1.858,1.9653,2.062,2.0525,2.0698,2.0737,2.0721,2.0773,2.0903,2.0903,2.1034,2.1047,2.1216,2.1463,2.1503,2.1737,2.303,2.3659,2.3964,2.4254,2.4796,2.4425,2.5594,2.7821,2.8353,2.8498,2.8401,2.8932,3.0259,3.0886,3.1056,3.1621,3.2355,3.2473,3.2234,3.2082,-3.562,-3.4855,-3.2261,-3.1149,-3.0989,-2.9606,-2.9215,-2.935,-2.8884,-2.8222,-2.7465,-2.607,-2.4446,-2.2757,-2.1999,-2.119,-2.0339,-2.0461,-2.0578,-2.0578,-2.0578,-2.027,-1.9653,-1.8948,-1.8253,-1.7056,-1.5404,-1.4646,-1.4529,-1.2934,-1.2057,-1.1865,-1.0989,-1.0552,-1.0403,-0.9858,-0.9484,-0.942,-0.8836,-0.7995,-0.7109,-0.6857,-0.5971,-0.4534,-0.4233,-0.3336,-0.1888,-0.2763,-0.3291,-0.3173,-0.2195,-0.1071,-0.0064,0.0518,0.0654,0.0523,0.2022,0.3062,0.2479,0.4883,0.7153,0.7412,0.865,0.9765,1.0223,1.0487,1.0487,1.0487,1.0487,1.0487,1.0552,1.1182,1.1367,1.1495,1.2368,1.3252,1.395,1.5476,1.6304,1.6806,1.8004,1.8762,1.9331,1.9715,2.0578,2.0578,2.0578,2.0578,2.0578,2.0578,2.0669,2.0812,2.0969,2.1112,2.1255,2.1725,2.2344,2.2478,2.2486,2.2514,2.2444,2.3832,2.468,2.5209,2.6308,2.6387,2.6703,2.7795,2.8345,2.8757,2.9116,2.9614,2.9875,2.9821,3.0315,-3.6996,-3.6739,-3.4361,-3.3437,-3.32,-3.1374,-3.0612,-3.0556,-3.0068,-2.9369,-2.8378,-2.7784,-2.643,-2.4647,-2.3844,-2.2823,-2.1422,-2.1835,-2.1774,-2.1422,-2.1361,-2.113,-2.0639,-2.0516,-2.0036,-1.8773,-1.713,-1.6367,-1.6043,-1.4646,-1.3823,-1.3506,-1.2128,-1.1303,-1.1303,-1.0738,-1.0487,-1.0487,-1.0487,-0.9934,-0.8757,-0.8632,-0.776,-0.627,-0.6023,-0.5459,-0.4322,-0.5403,-0.5753,-0.5122,-0.4018,-0.2563,-0.1194,-0.0767,-0.0517,0.0065,0.1161,0.1292,0.1238,0.3585,0.5013,0.5789,0.7347,0.8914,0.9507,1.0094,1.0487,1.0487,1.0487,1.0487,1.0487,1.0487,1.0545,1.0552,1.1552,1.2185,1.2376,1.3205,1.4086,1.4836,1.6743,1.7953,1.84,1.9579,2.0516,2.0578,2.0578,2.0578,2.0578,2.0578,2.0578,2.0578,2.0578,2.0708,2.0851,2.1179,2.1478,2.15,2.1384,2.1317,2.1215,2.1769,2.2113,2.2825,2.4141,2.4821,2.5133,2.5541,2.5806,2.6181,2.6775,2.7057,2.7089,2.7578,2.8336,-3.8435,-3.8134,-3.6865,-3.6015,-3.5575,-3.3145,-3.2059,-3.1838,-3.0612,-3.0068,-2.9709,-2.8378,-2.7628,-2.7089,-2.5802,-2.444,-2.3544,-2.444,-2.4262,-2.3018,-2.2943,-2.2186,-2.0823,-2.0823,-2.0701,-2.027,-1.8836,-1.8089,-1.7953,-1.6419,-1.5539,-1.5224,-1.3823,-1.2998,-1.3006,-1.1688,-1.0803,-1.0867,-1.0803,-1.0667,-1.0481,-1.0274,-0.945,-0.799,-0.776,-0.7711,-0.7627,-0.7756,-0.7149,-0.5781,-0.5364,-0.4367,-0.3012,-0.2582,-0.1759,-0.0504,-0.0063,0.0826,0.188,0.1303,0.2533,0.4361,0.5335,0.6441,0.774,0.9114,1.003,1.0094,1.0094,1.0359,1.0352,1.0487,1.0487,1.0552,1.061,1.0803,1.0738,1.0674,1.1182,1.307,1.5592,1.7766,1.8338,1.9282,2.0332,2.0516,2.0578,2.0578,2.0578,2.0578,2.0578,2.0578,2.0578,2.0578,2.0578,2.0578,2.0578,2.0578,2.0578,2.0578,2.0578,2.0591,2.114,2.1304,2.2658,2.2735,2.3026,2.3322,2.3515,2.3731,2.4449,2.4963,2.4998,2.5228,2.6064,-3.9279,-3.8335,-3.6968,-3.635,-3.6119,-3.4329,-3.3524,-3.3362,-3.2039,-3.1394,-3.1116,-2.9823,-2.855,-2.7628,-2.7089,-2.6506,-2.6213,-2.6564,-2.5978,-2.4619,-2.45,-2.3664,-2.2414,-2.2186,-2.1639,-2.0652,-2.0024,-1.9777,-1.9579,-1.8078,-1.7317,-1.7119,-1.5592,-1.4719,-1.4646,-1.4213,-1.3896,-1.3642,-1.2751,-1.2177,-1.2064,-1.1117,-1.0171,-0.9724,-0.9652,-0.9658,-0.9635,-0.9629,-0.9269,-0.8745,-0.758,-0.6729,-0.602,-0.5007,-0.3572,-0.1947,-0.1692,-0.1006,0.0508,0.1398,0.2175,0.3312,0.4491,0.5403,0.5918,0.657,0.7481,0.8128,0.774,0.8133,0.9765,1.0423,1.0487,1.0487,1.0487,1.0487,1.0487,1.0487,1.0803,1.1616,1.3451,1.5098,1.6304,1.7891,1.9208,2.0516,2.0578,2.0578,2.0578,2.0578,2.0578,2.0578,2.0578,2.0578,2.0332,2.0455,2.0578,2.0578,2.0578,2.0578,2.0578,2.0578,2.0665,2.0652,2.0665,2.0652,2.0775,2.1082,2.1279,2.1415,2.2261,2.3033,2.2852,2.2912,2.3347,-3.9647,-3.8385,-3.7502,-3.7122,-3.6968,-3.5575,-3.5019,-3.4808,-3.2949,-3.2114,-3.1838,-3.0556,-2.9387,-2.8453,-2.8435,-2.8435,-2.8435,-2.8435,-2.7628,-2.6213,-2.6095,-2.5271,-2.3903,-2.3784,-2.2958,-2.1653,-2.1409,-2.1178,-2.0516,-1.9529,-1.896,-1.8699,-1.7306,-1.6492,-1.6367,-1.5844,-1.5539,-1.5413,-1.452,-1.3887,-1.3823,-1.232,-1.1688,-1.2256,-1.232,-1.232,-1.232,-1.1744,-1.1431,-1.1424,-0.9719,-0.875,-0.8623,-0.7085,-0.5339,-0.3757,-0.35,-0.275,-0.1128,0.0125,0.0942,0.1583,0.3251,0.4233,0.4369,0.4917,0.5724,0.657,0.6242,0.657,0.8327,0.8591,0.8791,0.9436,1.0094,1.0487,1.0487,1.0487,1.0487,1.0674,1.136,1.2751,1.4466,1.6116,1.7817,1.9331,1.9715,1.9962,2.0332,2.0578,2.0578,2.0578,2.0578,2.0393,1.99,2.0024,2.0516,2.0516,2.0455,2.0393,2.0516,2.0578,2.0455,2.0393,2.0578,2.0578,2.0578,2.0885,2.0823,2.0823,2.0823,2.13,2.0578,2.2247,2.2186,-3.9745,-3.8685,-3.8535,-3.8435,-3.8385,-3.7019,-3.643,-3.6275,-3.3578,-3.2369,-3.2314,-3.078,-3.0068,-3.0011,-2.9992,-3.0011,-2.9917,-2.9842,-2.9026,-2.7802,-2.7744,-2.6873,-2.5405,-2.5346,-2.4559,-2.3124,-2.3003,-2.2307,-2.0823,-2.0578,-2.0578,-2.0468,-1.8948,-1.8214,-1.8015,-1.6795,-1.5844,-1.6105,-1.5791,-1.5665,-1.5466,-1.414,-1.4077,-1.535,-1.5476,-1.5287,-1.5224,-1.395,-1.3061,-1.2998,-1.1474,-1.0532,-1.0268,-0.8825,-0.7201,-0.5747,-0.5425,-0.4551,-0.3002,-0.2566,-0.186,-0.0243,0.1302,0.2316,0.2504,0.3701,0.4656,0.5127,0.6191,0.6392,0.5566,0.5684,0.6279,0.7601,0.9178,0.9965,1.0223,1.0094,1.0352,1.0487,1.0674,1.1367,1.2751,1.4393,1.6105,1.7442,1.7953,1.8389,1.9517,2.0024,2.0024,1.9949,2.0011,1.99,1.8513,1.8637,1.9702,1.9702,1.9257,1.9949,2.0257,2.0393,2.0332,2.027,2.0147,2.0147,2.0455,2.0578,2.0578,2.0578,2.0578,2.0578,2.0578,2.1882,2.2111,-4.0967,-3.9842,-3.8859,-3.8485,-3.8435,-3.8083,-3.7908,-3.7655,-3.5963,-3.5155,-3.4891,-3.2567,-3.1485,-3.1505,-3.1485,-3.0892,-3.0011,-2.9974,-2.9728,-2.9369,-2.9312,-2.8493,-2.7106,-2.6989,-2.6154,-2.4856,-2.4634,-2.3844,-2.2354,-2.1239,-2.0578,-2.0516,-2.0147,-1.9962,-1.99,-1.9505,-1.9257,-1.9134,-1.7953,-1.738,-1.7317,-1.6942,-1.6879,-1.7255,-1.6178,-1.5539,-1.5539,-1.5088,-1.433,-1.3125,-1.2624,-1.1744,-1.061,-1.0088,-0.9526,-0.8992,-0.7823,-0.6353,-0.4616,-0.4492,-0.3735,-0.2044,-0.1494,-0.0682,0.049,0.1184,0.196,0.2971,0.366,0.3849,0.346,0.442,0.535,0.5839,0.6307,0.7218,0.8327,0.8521,0.9108,1.0288,1.0416,1.0738,1.1303,1.2687,1.433,1.5854,1.6231,1.6555,1.6858,1.7056,1.7056,1.6994,1.8004,1.7953,1.6681,1.692,1.6858,1.692,1.717,1.7233,1.692,1.6983,1.7045,1.8699,1.8773,1.896,1.9579,2.0209,2.0455,2.0516,2.0516,2.0393,2.0332,2.0823,2.1164,-4.2274,-4.104,-3.9794,-3.8983,-3.8485,-3.8485,-3.8485,-3.8335,-3.6945,-3.635,-3.6067,-3.4573,-3.3847,-3.3794,-3.3221,-3.2204,-3.0836,-3.0836,-3.05,-2.9955,-2.9974,-2.9444,-2.8608,-2.855,-2.7744,-2.6347,-2.6213,-2.5389,-2.3963,-2.2972,-2.22,-2.1653,-2.1531,-2.1239,-2.0639,-2.0578,-2.0578,-2.0578,-1.9653,-1.9084,-1.9084,-1.9158,-1.9096,-1.9022,-1.8191,-1.7619,-1.7556,-1.6931,-1.6105,-1.5161,-1.4457,-1.357,-1.264,-1.1873,-1.1495,-1.1417,-0.9852,-0.8142,-0.6423,-0.6291,-0.5524,-0.3749,-0.366,-0.2901,-0.1204,-0.1048,-0.1001,-0.0562,0.0,0.0437,0.0634,0.2702,0.4165,0.4199,0.4828,0.5651,0.6683,0.7347,0.8133,0.9243,1.0023,1.0487,1.0674,1.1367,1.2632,1.4077,1.452,1.4909,1.5529,1.5539,1.5539,1.5602,1.5728,1.5539,1.4845,1.4972,1.5539,1.5602,1.5539,1.5539,1.5718,1.5529,1.5791,1.6869,1.7005,1.7505,1.8552,1.8501,1.8564,1.8365,1.8501,1.8762,1.9468,2.0085,2.0516,-4.3392,-4.2248,-4.1113,-3.9891,-3.8958,-3.871,-3.8734,-3.851,-3.7173,-3.6585,-3.6893,-3.6739,-3.6585,-3.6171,-3.4966,-3.3578,-3.2314,-3.2259,-3.1541,-3.0294,-3.0125,-3.0068,-2.9842,-2.9898,-2.9198,-2.7975,-2.7802,-2.6972,-2.5566,-2.5405,-2.4678,-2.3289,-2.3109,-2.2489,-2.1239,-2.0933,-2.0837,-2.0823,-2.0946,-2.1069,-2.1069,-2.1069,-2.0959,-2.0823,-2.0823,-2.0762,-2.0393,-1.9096,-1.8214,-1.7964,-1.6555,-1.5728,-1.5413,-1.4068,-1.3252,-1.3188,-1.168,-1.0036,-0.8473,-0.8067,-0.7305,-0.573,-0.5472,-0.4681,-0.3005,-0.2953,-0.3682,-0.4356,-0.3621,-0.2695,-0.259,0.0063,0.1894,0.1867,0.3359,0.4848,0.5084,0.6348,0.7398,0.7537,0.9043,1.0223,1.0094,1.0481,1.1239,1.2624,1.2751,1.3197,1.4276,1.4529,1.4592,1.4529,1.3832,1.2942,1.2942,1.4149,1.4466,1.4782,1.4972,1.4719,1.4466,1.4592,1.5234,1.5098,1.535,1.5539,1.5718,1.5602,1.5791,1.6294,1.6231,1.6168,1.7567,1.9022,2.0024,-4.3982,-4.3598,-4.232,-4.1646,-4.1271,-4.0398,-3.9988,-3.9842,-3.861,-3.856,-3.9426,-3.9524,-3.8287,-3.643,-3.6015,-3.5072,-3.3847,-3.3761,-3.2949,-3.1652,-3.1561,-3.1004,-3.003,-2.9974,-2.9785,-2.9425,-2.9425,-2.8568,-2.7222,-2.7089,-2.6271,-2.4931,-2.4753,-2.4575,-2.4158,-2.3018,-2.2414,-2.2475,-2.3619,-2.4217,-2.4217,-2.4217,-2.3619,-2.2535,-2.2414,-2.1822,-2.0701,-2.0221,-1.9455,-1.8151,-1.7703,-1.6942,-1.5602,-1.5224,-1.4962,-1.4845,-1.3388,-1.2266,-1.1808,-1.0616,-0.9107,-0.7367,-0.7201,-0.6465,-0.4995,-0.5828,-0.6306,-0.5395,-0.4942,-0.4629,-0.4334,-0.2633,-0.1379,-0.1324,0.0126,0.1755,0.2963,0.3472,0.4195,0.577,0.7352,0.8392,0.865,0.963,1.0545,1.0925,1.1053,1.1182,1.1503,1.1631,1.1624,1.156,1.131,1.1182,1.1124,1.156,1.1752,1.1624,1.1752,1.1944,1.1944,1.1752,1.2064,1.3324,1.357,1.395,1.5214,1.5413,1.5341,1.5224,1.5161,1.5486,1.6043,1.7369,1.8513,-4.4899,-4.4741,-4.3615,-4.3049,-4.2959,-4.1765,-4.1229,-4.1156,-4.049,-4.0612,-4.1182,-4.0663,-3.9622,-3.8212,-3.758,-3.6533,-3.5208,-3.5155,-3.4436,-3.3112,-3.3058,-3.2622,-3.1853,-3.1207,-3.0892,-3.0892,-3.0294,-2.9482,-2.8722,-2.8683,-2.8263,-2.7437,-2.6681,-2.5978,-2.5287,-2.444,-2.4008,-2.3992,-2.4109,-2.4137,-2.4121,-2.4121,-2.3722,-2.2863,-2.3659,-2.3619,-2.2791,-2.2731,-2.2307,-2.1415,-2.0696,-1.9886,-1.8925,-1.7534,-1.6691,-1.6681,-1.5161,-1.4204,-1.4204,-1.2624,-1.0898,-0.917,-0.9032,-0.8893,-0.8804,-0.8938,-0.8654,-0.7726,-0.684,-0.6445,-0.634,-0.4841,-0.3437,-0.2629,-0.1732,-0.0491,0.1106,0.1985,0.2894,0.3954,0.5552,0.6566,0.6631,0.8133,0.9243,0.9307,1.0094,1.0487,1.0552,1.0552,1.0552,1.0487,1.0487,1.0487,1.0552,1.0487,1.0487,1.0487,1.0487,1.0487,1.0487,1.0552,1.0925,1.1616,1.1873,1.2249,1.2887,1.3205,1.3205,1.3269,1.3205,1.3705,1.4267,1.5088,1.5728,-4.5864,-4.578,-4.4798,-4.4378,-4.4262,-4.3157,-4.2614,-4.2477,-4.2587,-4.2587,-4.2385,-4.1397,-4.0828,-4.0589,-3.9475,-3.8236,-3.6945,-3.6893,-3.6044,0.0,-3.452,-3.4382,-3.4169,-3.2949,-3.2389,-3.2259,-3.0929,-3.0237,-3.0162,-3.0011,-2.9974,-2.9728,-2.8626,-2.7321,-2.6037,-2.57,-2.5684,-2.5844,-2.4484,-2.3738,-2.3738,-2.364,-2.3418,-2.3003,-2.439,-2.5093,-2.4594,-2.4737,-2.4844,-2.452,-2.3433,-2.2669,-2.2478,-2.0148,-1.8682,-1.8519,-1.7065,-1.6158,-1.5854,-1.433,-1.2751,-1.1367,-1.0989,-1.156,-1.3125,-1.1808,-1.0867,-1.0796,-0.9149,-0.8198,-0.8053,-0.6619,-0.502,-0.3622,-0.2864,-0.1976,-0.0541,0.1037,0.21,0.2239,0.3758,0.4849,0.5036,0.6352,0.7417,0.7606,0.8392,0.9701,0.9765,0.9965,0.9765,0.9765,0.9765,0.9765,0.9372,0.9701,0.9436,0.9765,0.9507,0.9442,0.9765,0.9572,0.963,1.0416,1.0352,1.0352,1.0674,1.0487,1.0803,1.0867,1.0932,1.1182,1.2376,1.2687,1.287,-4.5864,-4.5822,-4.5683,-4.554,-4.5527,-4.5328,-4.4655,-4.3865,0.0,0.0,0.0,-4.3554,-4.285,-4.1878,-4.1619,-4.0846,-3.9768,-3.972,-3.8337,-3.6015,-3.5963,-3.5313,-3.4222,-3.3955,-3.3847,-3.374,-3.2348,-3.1707,-3.1672,-3.05,-2.9974,-2.9955,-2.9671,-2.9387,-2.9026,-2.7859,-2.7802,-2.899,-2.8788,-2.8697,-2.8622,-2.805,-2.6433,-2.3787,-2.4624,-2.3849,-2.1238,-2.2467,-2.2546,-2.1202,-2.1548,-2.1504,-2.0774,-2.1464,-2.163,-2.1005,-2.0079,-1.8999,-1.7703,-1.6043,-1.4972,-1.4719,-1.3388,-1.3316,-1.4962,-1.3578,-1.256,-1.256,-1.1046,-1.0023,-0.9959,-0.8414,-0.7162,-0.6871,-0.4257,-0.2454,-0.2033,-0.059,0.0472,0.0603,0.1982,0.3024,0.3091,0.455,0.5724,0.5724,0.6166,0.6631,0.774,0.7135,0.634,0.6473,0.6666,0.6364,0.6242,0.6368,0.6178,0.6441,0.6376,0.67,0.7611,0.7089,0.7417,0.9701,0.9172,0.9043,1.0094,1.0352,1.0487,1.0487,1.0487,1.0616,1.0867,1.0925,1.1367,-4.6959,0.0,-4.6335,-4.6169,0.0,-4.6086,-4.5877,-4.5861,-4.6429,-4.6015,-4.4971,-4.4378,-4.3776,-4.314,-4.2477,-4.1878,-4.1297,-4.1297,-4.025,-3.8462,-3.8412,-3.7684,-3.6327,-3.5627,-3.5313,-3.523,-3.3847,-3.3145,-3.3112,-3.2458,-3.2128,-3.2053,-3.2128,-3.1829,-3.1293,-3.036,-3.061,-3.2108,-3.0147,-2.9143,-2.9083,-2.767,-2.6161,-2.4609,0.0,0.0,0.0,0.0,0.0,0.0,0.0,0.0,0.0,0.0,0.0,-2.0955,-2.0173,-1.9361,-1.857,-1.6969,-1.6235,-1.665,-1.5199,-1.4889,-1.6597,-1.5273,-1.3799,-1.2679,-1.2092,-1.1424,-1.0545,-0.9701,-0.8812,-0.7819,-0.6216,-0.44,-0.2821,-0.1754,-0.0996,-0.0118,0.0722,0.1226,0.1226,0.2789,0.3762,0.3944,0.4651,0.5566,0.6146,0.5019,0.4308,0.5114,0.5228,0.5219,0.5226,0.5213,0.527,0.5205,0.5205,0.5594,0.6376,0.5789,0.5789,0.7223,0.7153,0.67,0.774,0.8586,0.9114,0.9172,0.983,1.0223,0.9307,0.9108,0.9624,-4.823,-4.8838,-4.717,-4.6959,-4.7686,-4.6837,-4.6959,-4.7694,-4.7694,-4.713,-4.6086,-4.4942,-4.4493,-4.4378,-4.3337,-4.275,-4.2523,-4.2541,-4.1905,-4.0781,-4.0733,-4.006,-3.8834,-3.7657,-3.6996,-3.6688,-3.526,-3.4648,-3.4595,-3.4329,-3.4222,-3.4222,-3.4222,-3.3778,-3.3001,0.0,0.0,0.0,-3.0911,-2.9101,-2.8866,-2.697,-2.585,-2.5557,-2.6886,0.0,-2.7187,-2.7479,-2.7498,-2.7137,-2.6109,0.0,0.0,0.0,0.0,0.0,0.0,0.0,0.0,0.0,0.0,0.0,-1.6877,-1.6523,-1.7874,-1.6772,-1.5077,-1.2957,-1.2895,-1.2401,-1.0976,-1.064,-0.987,-0.8444,-0.7943,-0.667,-0.3978,-0.3248,-0.2365,-0.069,-0.0471,-0.0359,0.006,0.1135,0.2057,0.2103,0.3282,0.4183,0.4208,0.2961,0.2639,0.3892,0.397,0.4142,0.4268,0.4096,0.3951,0.4228,0.4291,0.4297,0.4571,0.4454,0.4199,0.5335,0.4945,0.4815,0.5335,0.6376,0.7287,0.7283,0.8457,0.9043,0.7611,0.7283,0.774,-4.8876,-4.892,-4.8725,-4.865,-4.877,-4.865,-4.8688,-4.877,-4.8801,-4.823,-4.717,-4.6128,-4.5654,-4.5612,-4.5456,-4.4828,-4.3893,-4.3893,-4.3212,-4.1971,-4.1971,-4.1344,-4.0182,-3.9988,-3.9279,-3.816,-3.6763,-3.6067,-3.6015,-3.4808,-3.4222,-3.4222,-3.4222,-3.4157,-3.4048,-3.5216,-3.5426,-3.4711,-3.2969,-3.1675,-3.0782,-2.9674,-2.8528,-2.7224,-2.7952,-2.7716,-2.6361,-2.7609,-2.7759,-2.6361,-2.6795,-2.6298,-2.4547,-2.5502,-2.4918,0.0,-2.2756,0.0,0.0,0.0,0.0,0.0,0.0,0.0,0.0,-1.8112,-1.6846,-1.5087,-1.3795,-1.2676,-1.1944,-1.1019,-1.0403,-1.0101,-0.8734,-0.7582,-0.7153,-0.5806,-0.4195,-0.2406,-0.2172,-0.16,-0.0348,0.0177,0.03,0.0362,0.0603,0.0725,0.0606,0.0481,0.0418,0.06,0.0662,0.0,0.0,0.0,0.0,0.0,0.0,0.1223,0.2631,0.1763,0.1713,0.4199,0.3824,0.3442,0.501,0.5331,0.5526,0.5529,0.5706,0.5828,0.5637,0.5566,0.5655,-5.0149,-5.0469,-4.9432,-4.9614,-5.0606,-5.0574,-5.0326,-4.9863,-4.9863,-4.892,-4.7409,-4.6929,-4.6417,-4.5864,-4.5864,-4.5612,-4.5143,-4.51,-4.4437,-4.3302,-4.323,-4.2595,-4.1417,-4.1417,-4.0729,-3.9549,-3.8909,-3.8262,-3.7529,-3.6893,-3.6585,-3.6585,-3.6585,-3.6589,-3.6598,-3.7946,-3.8043,-3.6838,-3.5648,-3.4187,-3.2449,-3.0803,-2.9917,-2.9742,-2.8988,-2.8484,-2.8334,-2.8484,-2.8244,-2.75,-2.7829,-2.7613,-2.6709,-2.5817,-2.498,0.0,0.0,0.0,0.0,0.0,0.0,0.0,0.0,0.0,0.0,0.0,-1.7677,-1.7034,-1.5712,-1.412,-1.2235,-1.2191,-1.1933,-1.1018,-1.0335,-0.9347,-0.7896,-0.6987,-0.5821,-0.4224,-0.4032,-0.3749,-0.2996,-0.2048,-0.141,-0.1374,-0.2123,-0.2681,-0.2619,-0.1779,-0.1193,-0.1137,-0.0512,0.0,0.0,0.0,0.0,0.0,0.0,0.0181,0.0914,0.049,0.043,0.1924,0.168,0.1438,0.2159,0.3058,0.3716,0.3613,0.2988,0.2806,0.3543,0.373,0.4102,-5.1286,-5.1818,-5.1106,-5.1542,-5.267,-5.2339,-5.1686,-5.0878,-5.0878,-4.9831,-4.8161,-4.8191,-4.7425,-4.6138,-4.6109,-4.6164,-4.6282,-4.6211,-4.5625,-4.4552,-4.4552,-4.3865,-4.2659,-4.2659,-4.1997,-4.0876,-4.0828,-4.0205,-3.8983,-3.8933,-3.881,-3.8514,-3.8832,-3.8986,-3.9017,-3.9931,-3.9991,-3.8953,-3.793,-3.6357,-3.4284,-3.2317,-3.1691,-3.2502,-3.0946,-3.0526,-3.1258,-3.0569,-3.0144,-3.0121,-2.9537,-2.9073,-2.8816,-2.607,0.0,0.0,0.0,0.0,0.0,0.0,0.0,0.0,0.0,-1.698,-1.7364,0.0,-1.7736,0.0,-1.6957,-1.5297,-1.3108,-1.3259,0.0,0.0,-1.18,-1.1024,-0.8754,-0.8473,-0.7813,-0.5977,-0.577,-0.5722,-0.5325,-0.404,-0.331,-0.3533,-0.4252,-0.4731,-0.4728,-0.3473,-0.2661,-0.2557,-0.1797,-0.1043,0.0,-0.1039,0.0,-0.0586,0.0,-0.0353,0.0,0.0,0.0,0.0,0.0,0.0,0.0,0.0993,0.1874,0.1838,0.0928,0.042,0.1618,0.1917,0.2336,-5.1818,-5.2145,-5.4786,-5.5608,-5.4993,-5.3585,-5.2521,-5.1785,-5.1785,-5.1219,-5.0287,-5.0287,-4.8988,-4.679,-4.6753,0.0,-4.729,-4.733,-4.6756,-4.5738,-4.5738,-4.51,-4.4026,-4.3982,-4.3274,-4.2036,-4.2063,-4.1438,-4.0327,-4.0279,-3.9672,-3.8563,-3.9684,-4.0306,-4.0315,-4.0324,-4.0404,-4.0315,-3.9117,-3.7893,-3.6494,-3.5366,-3.4833,-3.4898,-3.4756,-3.4678,-3.4782,-3.4678,-3.4639,-3.456,-3.2371,-3.0616,-2.9502,0.0,0.0,0.0,0.0,0.0,0.0,0.0,0.0,0.0,0.0,0.0,0.0,0.0,0.0,0.0,-1.6551,0.0,-1.5131,-1.3761,0.0,0.0,0.0,-1.2172,-1.0811,-1.1265,-1.0537,-0.7548,0.0,0.0,-0.5456,-0.5128,-0.5424,-0.6484,-0.5282,-0.43,-0.4351,-0.4239,-0.4122,-0.4122,-0.3956,-0.3908,-0.3659,-0.378,-0.341,-0.2204,-0.197,-0.1555,0.0,0.0,0.0,0.0,0.0,0.0,0.0,0.0,0.0,0.0,0.0,0.0,0.0,0.0,0.0,-5.4719,-5.4749,-5.5056,-5.501,-5.4655,-5.4046,-5.3308,-5.2583,-5.2647,-5.1515,-4.9692,-4.9288,-4.8013,-4.6045,-4.6596,0.0,0.0,0.0,-4.7773,-4.6837,-4.6797,-4.6223,-4.52,-4.5186,-4.4524,-4.3347,-4.3347,-4.2686,-4.1511,-4.1485,-4.0419,-3.8485,0.0,0.0,-3.9163,-3.9903,-3.9992,-3.9237,-3.8088,-3.7559,-3.7658,-3.6661,-3.6402,-3.698,-3.5841,-3.5473,-3.6104,-3.5539,-3.4609,-3.3343,-3.2056,-3.0538,0.0,0.0,0.0,0.0,0.0,0.0,0.0,0.0,0.0,0.0,0.0,-1.7775,-1.6309,0.0,0.0,0.0,-1.6478,-1.6,-1.4618,-1.4793,0.0,0.0,0.0,0.0,0.0,0.0,0.0,-1.2294,-1.0983,-0.9951,-0.9643,-0.8563,-0.7968,-0.8457,-0.7755,-0.7204,-0.7204,0.0,-0.5688,-0.5581,-0.4825,-0.4284,-0.4284,-0.5025,-0.5071,-0.3632,-0.3418,-0.3166,-0.2597,-0.183,-0.1338,-0.1184,-0.0567,0.0,0.0,0.0,0.0,0.0,0.0,0.0,0.0,0.0,0.0,-5.8027,0.0,0.0,0.0,0.0,-5.4773,-5.4083,-5.3396,-5.343,-5.2366,-5.0603,-5.0139,0.0,0.0,0.0,0.0,0.0,0.0,-4.8856,-4.7295,-4.7416,-4.7039,-4.6335,-4.6032,-4.5442,-4.4639,-4.4668,-4.3758,-4.2234,-4.2214,-4.1124,-3.9042,0.0,0.0,0.0,0.0,-4.016,-3.9308,-3.8283,-3.7912,-3.8239,-3.7769,-3.777,-3.8245,-3.7097,-3.6896,-3.7825,-3.6376,-3.4882,-3.3378,-3.1511,0.0,0.0,0.0,0.0,0.0,0.0,0.0,0.0,0.0,0.0,0.0,0.0,0.0,0.0,0.0,0.0,0.0,0.0,0.0,-1.5306,-1.5854,-1.5519,0.0,0.0,0.0,0.0,0.0,0.0,0.0,0.0,0.0,-1.3256,-1.1327,-1.0042,0.0,0.0,-0.9159,-0.9534,-0.857,-0.7733,-0.7673,-0.7126,0.0,-0.6697,-0.759,-0.7798,-0.637,-0.5783,-0.5265,-0.4555,-0.3496,-0.2613,-0.2259,-0.1369,-0.0603,-0.056,-0.0332,0.0,0.0,0.0,0.0,0.0,0.0,0.0,0.0,0.0,0.0,0.0,0.0,0.0,0.0,0.0,-5.42,-5.4104,0.0,-5.3883,0.0,0.0,0.0,0.0,0.0,-5.0735,0.0,0.0,-4.7273,-4.7379,-4.723,-4.6288,-4.5835,-4.5822,-4.5706,-4.4483,-4.2225,-4.2324,0.0,0.0,0.0,0.0,0.0,0.0,-4.1301,-4.1226,-4.0493,-3.9539,-3.839,-3.8978,-3.9016,-3.8413,-3.8919,-3.9687,-4.046,-3.7929,-3.6424,-3.6296,-3.1335,0.0,0.0,0.0,0.0,0.0,0.0,0.0,0.0,0.0,0.0,0.0,0.0,0.0,0.0,0.0,0.0,0.0,0.0,0.0,0.0,-1.6878,0.0,0.0,0.0,0.0,0.0,0.0,0.0,0.0,0.0,0.0,-1.5385,-1.2776,-1.1178,-1.2485,0.0,0.0,0.0,0.0,-1.0561,-1.0553,-1.1681,-1.2472,-1.241,-1.2524,-1.2094,-1.0651,0.0,0.0,-0.5312,-0.4541,-0.3886,-0.2716,-0.2271,-0.2066,-0.2064,-0.1031,0.0,0.0,0.0,0.0,0.0,0.0,0.0,0.0,0.0,0.0,0.0,0.0,0.0,0.0,0.0,0.0,-5.4305,0.0,-5.2987,0.0,0.0,0.0,0.0,0.0,0.0,0.0,0.0,-4.8115,-4.6614,-4.4166,-4.479,-4.4116,0.0,-4.2218,-4.1871,0.0,0.0,0.0,0.0,0.0,0.0,0.0,0.0,-4.1006,-4.1037,-4.0743,-4.0428,-3.9974,-4.0202,-4.0234,-3.9974,-4.0234,-3.9717,-3.8323,-3.7324,-3.5729,0.0,0.0,0.0,0.0,0.0,0.0,0.0,0.0,0.0,0.0,0.0,0.0,0.0,0.0,0.0,0.0,0.0,0.0,0.0,0.0,0.0,0.0,0.0,-1.6381,0.0,0.0,0.0,0.0,0.0,0.0,0.0,0.0,0.0,-1.5181,-1.3159,-1.1901,-1.2715,-1.2016,-1.1584,-1.2007,0.0,0.0,0.0,0.0,0.0,0.0,0.0,-1.325,-1.179,-1.2211,-1.1939,-0.9465,-0.7013,-0.5455,-0.5473,0.0,0.0,-0.2844,-0.249,-0.214,-0.245,-0.2676,-0.277,-0.2768,-0.2982,-0.3122,0.0,0.0,0.0,0.0,0.0,0.0,0.0,0.0,0.0,-5.5401,-5.4275,0.0,0.0,0.0,0.0,0.0,0.0,0.0,0.0,0.0,0.0,0.0,-4.331,-4.3724,0.0,0.0,0.0,0.0,0.0,0.0,0.0,0.0,0.0,0.0,0.0,0.0,-4.1204,-4.1204,-4.0989,-4.0834,-4.0803,-4.105,-4.1081,-4.0834,-4.1357,-4.032,-3.7476,0.0,0.0,0.0,0.0,0.0,0.0,0.0,0.0,0.0,0.0,0.0,0.0,0.0,0.0,0.0,0.0,0.0,0.0,0.0,0.0,0.0,0.0,0.0,0.0,0.0,-1.7048,0.0,0.0,0.0,0.0,0.0,0.0,0.0,0.0,0.0,0.0,0.0,-1.3333,-1.4125,-1.3437,-1.2964,-1.3489,-1.3366,-1.315,0.0,0.0,0.0,0.0,0.0,0.0,0.0,0.0,0.0,0.0,0.0,0.0,0.0,0.0,-0.2838,-0.392,-0.3438,-0.2991,-0.3346,0.0,0.0,0.0,0.0,0.0,0.0,0.0,0.0,0.0,0.0,0.0,0.0,0.0,0.0,0.0,0.0,0.0,0.0,-5.3884,0.0,0.0,0.0,0.0,0.0,0.0,0.0,0.0,0.0,0.0,0.0,0.0,0.0,0.0,0.0,0.0,0.0,0.0,0.0,0.0,0.0,0.0,-4.201,-4.2013,-4.1295,-4.0927,-4.0927,-4.1596,-4.1686,-4.102,-4.2515,-4.1788,-3.8426,0.0,0.0,0.0,0.0,0.0,0.0,0.0,0.0,0.0,0.0,0.0,0.0,0.0,0.0,0.0,0.0,0.0,0.0,0.0,0.0,0.0,0.0,0.0,0.0,0.0,0.0,-1.7173,-1.5758,-1.4819,0.0,0.0,0.0,0.0,0.0,0.0,0.0,0.0,0.0,0.0,-1.4742,-1.3479,-1.4823,-1.4629,-1.4271,-1.4164,-1.4838,-1.5354,-1.5256,-1.5282,-1.5067,0.0,0.0,0.0,0.0,0.0,0.0,0.0,0.0,0.0,0.0,0.0,0.0,0.0,0.0,0.0,0.0,0.0,0.0,0.0,0.0,0.0,0.0,0.0,0.0,0.0,0.0,0.0,0.0,0.0,0.0,0.0,0.0,0.0,0.0,0.0,0.0,0.0,0.0,0.0,0.0,0.0,0.0,0.0,0.0,0.0,0.0,0.0,0.0,0.0,0.0,0.0,0.0,0.0,0.0,-4.291,-4.2943,-4.2714,-4.26,-4.2539,-4.2798,-4.3012,-4.3114,-4.3611,-4.2597,0.0,0.0,0.0,0.0,0.0,0.0,0.0,0.0,0.0,0.0,0.0,0.0,0.0,0.0,0.0,0.0,0.0,0.0,0.0,0.0,0.0,0.0,0.0,0.0,0.0,0.0,0.0,0.0,-1.7022,-1.6497,-1.6774,0.0,0.0,0.0,0.0,0.0,0.0,0.0,0.0,0.0,0.0,-1.7436,-1.7293,-1.7137,-1.6443,-1.4731,-1.5751,-1.6392,-1.5503,-1.5038,-1.4975,-1.5433,0.0,0.0,0.0,0.0,0.0,0.0,0.0,0.0,0.0,0.0,0.0,0.0,0.0,0.0,0.0,0.0,0.0,0.0,0.0,0.0,0.0,0.0,0.0,0.0,0.0,0.0,0.0,0.0,0.0,0.0,0.0,0.0,0.0,0.0,0.0,0.0,0.0,0.0,0.0,0.0,0.0,0.0,0.0,0.0,0.0,0.0,0.0,0.0,0.0,0.0,0.0,0.0,0.0,-4.3927,-4.3373,-4.4134,-4.4269,-4.3672,-4.3901,-4.4166,-4.4485,-4.451,-4.2813,0.0,0.0,0.0,0.0,0.0,0.0,0.0,0.0,0.0,0.0,0.0,0.0,0.0,0.0,0.0,0.0,0.0,0.0,0.0,0.0,0.0,0.0,0.0,0.0,0.0,0.0,0.0,0.0,-1.6834,-1.6385,-1.6961,0.0,0.0,0.0,0.0,0.0,0.0,0.0,0.0,0.0,0.0,-1.9235,-1.8444,-1.813,0.0,0.0,-1.6043,-1.6723,-1.5537,-1.5096,-1.5151,-1.6,-1.5538,0.0,0.0,0.0,0.0,0.0,0.0,0.0,0.0,0.0,0.0,0.0,0.0,0.0,0.0,0.0,0.0,0.0,0.0,0.0,0.0,0.0,0.0,0.0,0.0,0.0,0.0,0.0,0.0,0.0,0.0,0.0,0.0,0.0,0.0,0.0,0.0,0.0,0.0,0.0,0.0,0.0,0.0,0.0,0.0,0.0,0.0,0.0,0.0,0.0,0.0,0.0,0.0,0.0,-4.357,-4.5323,-4.5538,-4.4258,-4.4773,-4.5086,-4.5178,-4.5189,-4.264,0.0,0.0,0.0,0.0,0.0,0.0,0.0,0.0,0.0,0.0,0.0,0.0,0.0,0.0,0.0,0.0,0.0,0.0,0.0,0.0,0.0,0.0,0.0,0.0,0.0,0.0,0.0,0.0,0.0,0.0,0.0,0.0,0.0,0.0,0.0,0.0,0.0,0.0,0.0,0.0,0.0,-1.9492,-1.8347,-1.795,-1.7083,0.0,0.0,-1.6769,-1.5769,-1.5456,-1.5507,-1.5986,0.0,0.0,0.0,0.0,0.0,0.0,0.0,0.0,0.0,0.0,0.0,0.0,0.0,0.0,0.0,0.0,0.0,0.0,0.0,0.0,0.0,0.0,0.0,0.0,0.0,0.0,0.0,0.0,0.0,0.0,0.0,0.0,0.0,0.0,0.0,0.0,0.0,0.0,0.0,0.0,0.0,0.0,0.0,0.0,0.0,0.0,0.0,0.0,0.0,0.0,0.0,0.0,0.0,0.0,-4.465,-4.4695,-4.477,-4.4843,-4.5006,-4.5302,-4.5809,-4.6119,0.0,0.0,0.0,0.0,0.0,0.0,0.0,0.0,0.0,0.0,0.0,0.0,0.0,0.0,0.0,0.0,0.0,0.0,0.0,0.0,0.0,0.0,0.0,0.0,0.0,0.0,0.0,-1.8062,0.0,0.0,0.0,0.0,0.0,0.0,0.0,0.0,0.0,0.0,0.0,0.0,0.0,0.0,-1.9561,-1.7281,-1.8041,-1.8196,0.0,0.0,-1.8506,-1.8074,-1.6158,-1.4868,0.0,0.0,0.0,0.0,0.0,0.0,0.0,0.0,0.0,0.0,0.0,0.0,0.0,0.0,0.0,0.0,0.0,0.0,0.0,0.0,0.0,0.0,0.0,0.0,0.0,0.0,0.0,0.0,0.0,0.0,0.0,0.0,0.0,0.0,0.0,0.0,0.0,0.0,0.0,0.0,0.0,0.0,0.0,0.0,0.0,0.0,0.0,0.0,0.0,0.0,0.0,0.0,0.0,0.0,-4.535,-4.5121,-4.5612,-4.5752,-4.5549,-4.5787,-4.6184,-4.6713,-4.6954,-4.5066,0.0,0.0,0.0,0.0,0.0,0.0,0.0,0.0,0.0,0.0,0.0,0.0,0.0,0.0,0.0,0.0,0.0,0.0,0.0,0.0,0.0,0.0,0.0,0.0,0.0,0.0,0.0,0.0,0.0,0.0,0.0,0.0,0.0,0.0,0.0,0.0,0.0,0.0,0.0,0.0,0.0,0.0,-1.7858,-1.8661,0.0,0.0,0.0,-1.9099,-1.8167,0.0,0.0,0.0,0.0,0.0,0.0,0.0,0.0,0.0,0.0,0.0,0.0,0.0,0.0,0.0,0.0,0.0,0.0,0.0,0.0,0.0,0.0,0.0,0.0,0.0,0.0,0.0,0.0,0.0,0.0,0.0,0.0,0.0,0.0,0.0,0.0,0.0,0.0,0.0,0.0,0.0,0.0,0.0,0.0,0.0,0.0,0.0,0.0,0.0,0.0,0.0,0.0,0.0,0.0,0.0,0.0,0.0,-4.5463,-4.7082,-4.7358,-4.6284,-4.6722,-4.7223,-4.7614,-4.7482,-4.5496,0.0,0.0,0.0,0.0,0.0,0.0,0.0,0.0,0.0,0.0,0.0,0.0,0.0,0.0,0.0,0.0,0.0,0.0,0.0,0.0,0.0,0.0,0.0,0.0,0.0,0.0,0.0,0.0,0.0,0.0,0.0,0.0,0.0,0.0,0.0,0.0,0.0,0.0,0.0,0.0,0.0,-1.8594,-1.9031,-1.9396,-1.9294,0.0,0.0,-1.8893,-1.7168,-1.6384,0.0,0.0,0.0,0.0,0.0,0.0,0.0,0.0,0.0,0.0,0.0,0.0,0.0,0.0,0.0,0.0,0.0,0.0,0.0,0.0,0.0,0.0,0.0,0.0,0.0,0.0,0.0,0.0,0.0,0.0,0.0,0.0,0.0,0.0,0.0,0.0,0.0,0.0,0.0,0.0,0.0,0.0,0.0,0.0,0.0,0.0,0.0,0.0,0.0,0.0,0.0,0.0,0.0,0.0,0.0,0.0,-4.664,-4.6551,-4.6592,-4.6851,-4.6984,-4.7223,-4.7614,-4.6603,-4.5193,0.0,0.0,0.0,0.0,0.0,0.0,0.0,0.0,0.0,0.0,0.0,0.0,0.0,0.0,0.0,0.0,0.0,0.0,0.0,0.0,0.0,0.0,0.0,0.0,0.0,0.0,0.0,0.0,0.0,0.0,0.0,0.0,0.0,0.0,0.0,0.0,0.0,0.0,0.0,0.0,0.0,-1.9874,-1.8502,-1.9073,0.0,0.0,0.0,0.0,-1.6846,-1.5992,0.0,0.0,0.0,0.0,0.0,0.0,0.0,0.0,0.0,0.0,0.0,0.0,0.0,0.0,0.0,0.0,0.0,0.0,0.0,0.0,0.0,0.0,0.0,0.0,0.0,0.0,0.0,0.0,0.0,0.0,0.0,0.0,0.0,0.0,0.0,0.0,0.0,0.0,0.0,0.0,0.0,0.0,0.0,0.0,0.0,0.0,0.0,0.0,0.0,0.0,0.0,0.0,0.0,0.0,0.0,0.0,-4.7002,-4.6738,-4.6719,-4.7021,-4.704,-4.733,-4.7842,-4.6435,-4.5139,0.0,0.0,0.0,0.0,0.0,0.0,0.0,0.0,0.0,0.0,0.0,0.0,0.0,0.0,0.0,0.0,0.0,0.0,0.0,0.0,0.0,0.0,0.0,0.0,0.0,0.0,0.0,0.0,0.0,0.0,0.0,0.0,0.0,0.0,0.0,0.0,0.0,0.0,0.0,0.0,-2.0504,-2.0001,-1.9566,0.0,0.0,0.0,0.0,0.0,0.0,-1.5391,-1.4842,0.0,0.0,0.0,0.0,0.0,0.0,0.0,0.0,0.0,0.0,0.0,0.0,0.0,0.0,0.0,0.0,0.0,0.0,0.0,0.0,0.0,0.0,0.0,0.0,0.0,0.0,0.0,0.0,0.0,0.0,0.0,0.0,0.0,0.0,0.0,0.0,0.0,0.0,0.0,0.0,0.0,0.0,0.0,0.0,0.0,0.0,0.0,0.0,0.0,0.0,0.0,0.0,0.0,0.0,0.0,-4.704,-4.704,-4.704,-4.704,-4.7095,-4.7339,-4.7719,-4.6234,-4.4914,-4.3794,0.0,0.0,0.0,0.0,0.0,0.0,0.0,0.0,0.0,0.0,0.0,0.0,0.0,0.0,0.0,0.0,0.0,0.0,0.0,0.0,0.0,0.0,0.0,0.0,0.0,0.0,0.0,0.0,0.0,0.0,0.0,0.0,0.0,0.0,0.0,0.0,0.0,0.0,0.0,-2.0396,-2.0026,0.0,0.0,0.0,0.0,0.0,0.0,0.0,0.0,-1.4657,0.0,0.0,0.0,0.0,0.0,0.0,0.0,0.0,0.0,0.0,0.0,0.0,0.0,0.0,0.0,0.0,0.0,0.0,0.0,0.0,0.0,0.0,0.0,0.0,0.0,0.0,0.0,0.0,0.0,0.0,0.0,0.0,0.0,0.0,0.0,0.0,0.0,0.0,0.0,0.0,0.0,0.0,0.0,0.0,0.0,0.0,0.0,0.0,0.0,0.0,0.0,0.0,0.0,0.0,0.0,0.0,-4.704,-4.704,-4.704,-4.7364,-4.7038,-4.6079,-4.4745,-4.3456,-4.2158,0.0,0.0,0.0,0.0,0.0,0.0,0.0,0.0,0.0,0.0,0.0,0.0,0.0,0.0,0.0,0.0,0.0,0.0,0.0,0.0,0.0,0.0,0.0,0.0,0.0,0.0,0.0,0.0,0.0,0.0,0.0,0.0,0.0,0.0,0.0,0.0,0.0,0.0,-2.3215,-2.2202,0.0,0.0,0.0,0.0,0.0,0.0,0.0,0.0,-1.4081,0.0,0.0,0.0,0.0,0.0,0.0,0.0,0.0,0.0,0.0,0.0,0.0,0.0,0.0,0.0,0.0,0.0,0.0,0.0,0.0,0.0,0.0,0.0,0.0,0.0,0.0,0.0,0.0,0.0,0.0,0.0,0.0,0.0,0.0,0.0,0.0,0.0,0.0,0.0,0.0,0.0,0.0,0.0,0.0,0.0,0.0,0.0,0.0,0.0,0.0,0.0,0.0,0.0,0.0,0.0,0.0,0.0,0.0,-4.704,-4.704,-4.7432,-4.7007,-4.5676,-4.3758,-4.2047,0.0,0.0,0.0,0.0,0.0,0.0,0.0,0.0,0.0,0.0,0.0,0.0,0.0,0.0,0.0,0.0,0.0,0.0,0.0,0.0,0.0,0.0,0.0,0.0,0.0,0.0,0.0,0.0,0.0,0.0,0.0,0.0,0.0,0.0,0.0,0.0,0.0,0.0,0.0,0.0,0.0,0.0,0.0,0.0,0.0,0.0,0.0,0.0,0.0,0.0,0.0,0.0,0.0,0.0,0.0,0.0,0.0,0.0,0.0,0.0,0.0,0.0,0.0,0.0,0.0,0.0,0.0,0.0,0.0,0.0,0.0,0.0,0.0,0.0,0.0,0.0,0.0,0.0,0.0,0.0,0.0,0.0,0.0,0.0,0.0,0.0,0.0,0.0,0.0,0.0,0.0,0.0,0.0,0.0,0.0,0.0,0.0,0.0,0.0,0.0,0.0,0.0,0.0,0.0,0.0,0.0,0.0,0.0,-4.7378,-4.7057,-4.714,-4.6558,-4.515,-4.2966,-4.1045,0.0,0.0,0.0,0.0,0.0,0.0,0.0,0.0,0.0,0.0,0.0,0.0,0.0,0.0,0.0,0.0,0.0,0.0,0.0,0.0,0.0,0.0,0.0,0.0,0.0,0.0,0.0,0.0,0.0,0.0,0.0,0.0,0.0,0.0,0.0,0.0,0.0,0.0,0.0,0.0,0.0,0.0,0.0,0.0,0.0,0.0,0.0,0.0,-1.3937,0.0,0.0,0.0,0.0,0.0,0.0,0.0,0.0,0.0,0.0,0.0,0.0,0.0,0.0,0.0,0.0,0.0,0.0,0.0,0.0,0.0,0.0,0.0,0.0,0.0,0.0,0.0,0.0,0.0,0.0,0.0,0.0,0.0,0.0,0.0,0.0,0.0,0.0,0.0,0.0,0.0,0.0,0.0,0.0,0.0,0.0,0.0,0.0,0.0,0.0,0.0,0.0,0.0,0.0,0.0,0.0,0.0,0.0,0.0,-4.8467,-4.7075,-4.6296,-4.5109,-4.3476,-4.2372,-4.1045,0.0,0.0,0.0,0.0,0.0,0.0,0.0,0.0,0.0,0.0,0.0,0.0,0.0,0.0,0.0,0.0,0.0,0.0,0.0,0.0,0.0,0.0,0.0,0.0,0.0,0.0,0.0,0.0,0.0,0.0,0.0,0.0,0.0,0.0,0.0,0.0,0.0,0.0,0.0,0.0,0.0,0.0,0.0,0.0,0.0,0.0,0.0,0.0,0.0,0.0,0.0,0.0,0.0,0.0,0.0,0.0,0.0,0.0,0.0,0.0,0.0,0.0,0.0,0.0,0.0,0.0,0.0,0.0,0.0,0.0,0.0,0.0,0.0,0.0,0.0,0.0,0.0,0.0,0.0,0.0,0.0,0.0,0.0,0.0,0.0,0.0,0.0,0.0,0.0,0.0,0.0,0.0,0.0,0.0,0.0,0.0,0.0,0.0,0.0,0.0,0.0,0.0,0.0,0.0,0.0,0.0,0.0,0.0,-4.8381,-4.7727,-4.6637,-4.5691,-4.4979,-4.2049,-4.011,0.0,0.0,0.0,0.0,0.0,0.0,0.0,0.0,0.0,0.0,0.0,0.0,0.0,0.0,0.0,0.0,0.0,0.0,0.0,0.0,0.0,0.0,0.0,0.0,0.0,0.0,0.0,0.0,0.0,0.0,0.0,0.0,0.0,0.0,0.0,0.0,0.0,0.0,0.0,0.0,0.0,0.0,0.0,0.0,0.0,0.0,0.0,0.0,0.0,0.0,0.0,0.0,0.0,0.0,0.0,0.0,0.0,0.0,0.0,0.0,0.0,0.0,0.0,0.0,0.0,0.0,0.0,0.0,0.0,0.0,0.0,0.0,0.0,0.0,0.0,0.0,0.0,0.0,0.0,0.0,0.0,0.0,0.0,0.0,0.0,0.0,0.0,0.0,0.0,0.0,0.0,0.0,0.0,0.0,0.0,0.0,0.0,0.0,0.0,0.0,0.0,0.0,0.0,0.0,0.0,0.0,0.0,0.0,0.0,-4.8706,-4.6377,-4.5347,-4.5699,-4.1697,-3.9468,0.0,0.0,0.0,0.0,0.0,0.0,0.0,0.0,0.0,0.0,0.0,0.0,0.0,0.0,0.0,0.0,0.0,0.0,0.0,0.0,0.0,0.0,0.0,0.0,0.0,0.0,0.0,0.0,0.0,0.0,0.0,0.0,0.0,0.0,0.0,0.0,0.0,0.0,0.0,0.0,0.0,0.0,0.0,0.0,0.0,0.0,0.0,0.0,0.0,0.0,0.0,0.0,0.0,0.0,0.0,0.0,0.0,0.0,0.0,0.0,0.0,0.0,0.0,0.0,0.0,0.0,0.0,0.0,0.0,0.0,0.0,0.0,0.0,0.0,0.0,0.0,0.0,0.0,0.0,0.0,0.0,0.0,0.0,0.0,0.0,0.0,0.0,0.0,0.0,0.0,0.0,0.0,0.0,0.0,0.0,0.0,0.0,0.0,0.0,0.0,0.0,0.0,0.0,0.0,0.0,0.0,0.0,0.0,0.0,-5.0417,-4.4935,-4.2973,-4.4616,-4.1339,-3.9502,0.0,0.0,0.0,0.0,0.0,0.0,0.0,0.0,0.0,0.0,0.0,0.0,0.0,0.0,0.0,0.0,0.0,0.0,0.0,0.0,0.0,0.0,0.0,0.0,0.0,0.0,0.0,0.0,0.0,0.0,0.0,0.0,0.0,0.0,0.0,0.0,0.0,0.0,0.0,0.0,0.0,0.0,0.0,0.0,0.0,0.0,0.0,0.0,0.0,0.0,0.0,0.0,0.0,0.0,0.0,0.0,0.0,0.0,0.0,0.0,0.0,0.0,0.0,0.0,0.0,0.0,0.0,0.0,0.0,0.0,0.0,0.0,0.0,0.0,0.0,0.0,0.0,0.0,0.0,0.0,0.0,0.0,0.0,0.0,0.0,0.0,0.0,0.0,0.0,0.0,0.0,0.0,0.0,0.0,0.0,0.0,0.0,0.0,0.0,0.0,0.0,0.0,0.0,0.0,0.0,0.0,0.0,0.0,0.0,-5.257,-4.9666,-4.7819,-4.7419,-4.4244,-4.1099,-3.8093,0.0,0.0,0.0,0.0,0.0,0.0,0.0,0.0,0.0,0.0,0.0,0.0,0.0,0.0,0.0,0.0,0.0,0.0,0.0,0.0,0.0,0.0,0.0,0.0,0.0,0.0,0.0,0.0,0.0,0.0,0.0,0.0,0.0,0.0,0.0,0.0,0.0,0.0,0.0,0.0,0.0,0.0,0.0,0.0,0.0,0.0,0.0,0.0,0.0,0.0,0.0,0.0,0.0,0.0,0.0,0.0,0.0,0.0,0.0,0.0,0.0,0.0,0.0,0.0,0.0,0.0,0.0,0.0,0.0,0.0,0.0,0.0,0.0,0.0,0.0,0.0,0.0,0.0,0.0,0.0,0.0,0.0,0.0,0.0,0.0,0.0,0.0,0.0,0.0,0.0,0.0,0.0,0.0,0.0,0.0,0.0,0.0,0.0,0.0,0.0,0.0,0.0,0.0,0.0,0.0,0.0,0.0,0.0,-5.1878,-5.0298,-4.891,-4.7777,-4.6565,-4.358,0.0,0.0,0.0,0.0,0.0,0.0,0.0,0.0,0.0,0.0,0.0,0.0,0.0,0.0,0.0,0.0,0.0,0.0,0.0,0.0,0.0,0.0,0.0,0.0,0.0,0.0,0.0,0.0,0.0,0.0,0.0,0.0,0.0,0.0,0.0,0.0,0.0,0.0,0.0,0.0,0.0,0.0,0.0,0.0,0.0,0.0,0.0,0.0,0.0,0.0,0.0,0.0,0.0,0.0,0.0,0.0,0.0,0.0,0.0,0.0,0.0,0.0,0.0,0.0,0.0,0.0,0.0,0.0,0.0,0.0,0.0,0.0,0.0,0.0,0.0,0.0,0.0,0.0,0.0,0.0,0.0,0.0,0.0,0.0,0.0,0.0,0.0,0.0,0.0,0.0,0.0,0.0,0.0,0.0,0.0,0.0,0.0,0.0,0.0,0.0,0.0,0.0,0.0,0.0,0.0,0.0,0.0,0.0,-5.3402,-4.7408,-4.5806,-4.5251,-4.4743,-4.7567,-4.6833,0.0,0.0,0.0,0.0,0.0,0.0,0.0,0.0,0.0,0.0,0.0,0.0,0.0,0.0,0.0,0.0,0.0,0.0,0.0,0.0,0.0,0.0,0.0,0.0,0.0,0.0,0.0,0.0,0.0,0.0,0.0,0.0,0.0,0.0,0.0,0.0,0.0,0.0,0.0,0.0,0.0,0.0,0.0,0.0,0.0,0.0,0.0,0.0,0.0,0.0,0.0,0.0,0.0,0.0,0.0,0.0,0.0,0.0,0.0,0.0,0.0,0.0,0.0,0.0,0.0,0.0,0.0,0.0,0.0,0.0,0.0,0.0,0.0,0.0,0.0,0.0,0.0,0.0,0.0,0.0,0.0,0.0,0.0,0.0,0.0,0.0,0.0,0.0,0.0,0.0,0.0,0.0,0.0,0.0,0.0,0.0,0.0,0.0,0.0,0.0,0.0,0.0,0.0,0.0,0.0,0.0,0.0,0.0,0.0,-5.5241,0.0,-5.1228,0.0,-4.7822,-4.472,0.0,0.0,0.0,0.0,0.0,0.0,0.0,0.0,0.0,0.0,0.0,0.0,0.0,0.0,0.0,0.0,0.0,0.0,0.0,0.0,0.0,0.0,0.0,0.0,0.0,0.0,0.0,0.0,0.0,0.0,0.0,0.0,0.0,0.0,0.0,0.0,0.0,0.0,0.0,0.0,0.0,0.0,0.0,0.0,0.0,0.0,0.0,0.0,0.0,0.0,0.0,0.0,0.0,0.0,0.0,0.0,0.0,0.0,0.0,0.0,0.0,0.0,0.0,0.0,0.0,0.0,0.0,0.0,0.0,0.0,0.0,0.0,0.0,0.0,0.0,0.0,0.0,0.0,0.0,0.0,0.0,0.0,0.0,0.0,0.0,0.0,0.0,0.0,0.0,0.0,0.0,0.0,0.0,0.0,0.0,0.0,0.0,0.0,0.0,0.0,0.0,0.0,0.0,0.0,0.0,0.0,0.0,0.0,0.0,-5.5837,-5.4896,-5.3593,-5.1791,-5.0449,-4.7228,0.0,0.0,0.0,0.0,0.0,0.0,0.0,0.0,0.0,0.0,0.0,0.0,0.0,0.0,0.0,0.0,0.0,0.0,0.0,0.0,0.0,0.0,0.0,0.0,0.0,0.0,0.0,0.0,0.0,0.0,0.0,0.0,0.0,0.0,0.0,0.0,0.0,0.0,0.0,0.0,0.0,0.0,0.0,0.0,0.0,0.0,0.0,0.0,0.0,0.0,0.0,0.0,0.0,0.0,0.0,0.0,0.0,0.0,0.0,0.0,0.0,0.0,0.0,0.0,0.0,0.0,0.0,0.0,0.0,0.0,0.0,0.0,0.0,0.0,0.0,0.0,0.0,0.0,0.0,0.0,0.0,0.0,0.0,0.0,0.0,0.0,0.0,0.0,0.0,0.0,0.0,0.0,0.0,0.0,0.0,0.0,0.0,0.0,0.0,0.0,0.0,0.0,0.0,0.0,0.0,0.0,0.0,0.0,0.0,0.0,-5.3061,-5.2221,-4.7771,-5.4602,-5.3525,0.0,0.0,0.0,0.0,0.0,0.0,0.0,0.0,0.0,0.0,0.0,0.0,0.0,0.0,0.0,0.0,0.0,0.0,0.0,0.0,0.0,0.0,0.0,0.0,0.0,0.0,0.0,0.0,0.0,0.0,0.0,0.0,0.0,0.0,0.0,0.0,0.0,0.0,0.0,0.0,0.0,0.0,0.0,0.0,0.0,0.0,0.0,0.0,0.0,0.0,0.0,0.0,0.0,0.0,0.0,0.0,0.0,0.0,0.0,0.0,0.0,0.0,0.0,0.0,0.0,0.0,0.0,0.0,0.0,0.0,0.0,0.0,0.0,0.0,0.0,0.0,0.0,0.0,0.0,0.0,0.0,0.0,0.0,0.0,0.0,0.0,0.0,0.0,0.0,0.0,0.0,0.0,0.0,0.0,0.0,0.0,0.0,0.0,0.0,0.0,0.0,0.0,0.0,0.0,0.0,0.0,0.0,0.0,0.0,0.0,-5.6275,0.0,-5.2463,-5.1109,-4.8905,-4.573,0.0,0.0,0.0,0.0,0.0,0.0,0.0,0.0,0.0,0.0,0.0,0.0,0.0,0.0,0.0,0.0,0.0,0.0,0.0,0.0,0.0,0.0,0.0,0.0,0.0,0.0,0.0,0.0,0.0,0.0,0.0,0.0,0.0,0.0,0.0,0.0,0.0,0.0,0.0,0.0,0.0,0.0,0.0,0.0,0.0,0.0,0.0,0.0,0.0,0.0,0.0,0.0,0.0,0.0,0.0,0.0,0.0,0.0,0.0,0.0,0.0,0.0,0.0,0.0,0.0,0.0,0.0,0.0,0.0,0.0,0.0,0.0,0.0,0.0,0.0,0.0,0.0,0.0,0.0,0.0,0.0,0.0,0.0,0.0,0.0,0.0,0.0,0.0,0.0,0.0,0.0,0.0,0.0,0.0,0.0,0.0,0.0,0.0,0.0,0.0,0.0,0.0,0.0,0.0,0.0,0.0,0.0,0.0,0.0,0.0,0.0,-5.4413,-5.0883,-4.7819,0.0,0.0,0.0,0.0,0.0,0.0,0.0,0.0,0.0,0.0,0.0,0.0,0.0,0.0,0.0,0.0,0.0,0.0,0.0,0.0,0.0,0.0,0.0,0.0,0.0,0.0,0.0,0.0,0.0,0.0,0.0,0.0,0.0,0.0,0.0,0.0,0.0,0.0,0.0,0.0,0.0,0.0,0.0,0.0,0.0,0.0,0.0,0.0,0.0,0.0,0.0,0.0,0.0,0.0,0.0,0.0,0.0,0.0,0.0,0.0,0.0,0.0,0.0,0.0,0.0,0.0,0.0,0.0,0.0,0.0,0.0,0.0,0.0,0.0,0.0,0.0,0.0,0.0,0.0,0.0,0.0,0.0,0.0,0.0,0.0,0.0,0.0,0.0,0.0,0.0,0.0,0.0,0.0,0.0,0.0,0.0,0.0,0.0,0.0,0.0,0.0,0.0,0.0,0.0,0.0,0.0,0.0,0.0,0.0,0.0,0.0,-5.7377,-5.4732,-5.2561,0.0,-4.4217,0.0,0.0,0.0,0.0,0.0,0.0,0.0,0.0,0.0,0.0,0.0,0.0,0.0,0.0,0.0,0.0,0.0,0.0,0.0,0.0,0.0,0.0,0.0,0.0,0.0,0.0,0.0,0.0,0.0,0.0,0.0,0.0,0.0,0.0,0.0,0.0,0.0,0.0,0.0,0.0,0.0,0.0,0.0,0.0,0.0,0.0,0.0,0.0,0.0,0.0,0.0,0.0,0.0,0.0,0.0,0.0,0.0,0.0,0.0,0.0,0.0,0.0,0.0,0.0,0.0,0.0,0.0,0.0,0.0,0.0,0.0,0.0,0.0,0.0,0.0,0.0,0.0,0.0,0.0,0.0,0.0,0.0,0.0,0.0,0.0,0.0,0.0,0.0,0.0,0.0,0.0,0.0,0.0,0.0,0.0,0.0,0.0,0.0,0.0,0.0,0.0,0.0,0.0,0.0,0.0,0.0,0.0,0.0,0.0,0.0,0.0,0.0,-5.1677,-4.9314,-5.1766,0.0,0.0,0.0,0.0,0.0,0.0,0.0,0.0,0.0,0.0,0.0,0.0,0.0,0.0,0.0,0.0,0.0,0.0,0.0,0.0,0.0,0.0,0.0,0.0,0.0,0.0,0.0,0.0,0.0,0.0,0.0,0.0,0.0,0.0,0.0,0.0,0.0,0.0,0.0,0.0,0.0,0.0,0.0,0.0,0.0,0.0,0.0,0.0,0.0,0.0,0.0,0.0,0.0,0.0,0.0,0.0,0.0,0.0,0.0,0.0,0.0,0.0,0.0,0.0,0.0,0.0,0.0,0.0,0.0,0.0,0.0,0.0,0.0,0.0,0.0,0.0,0.0,0.0,0.0,0.0,0.0,0.0,0.0,0.0,0.0,0.0,0.0,0.0,0.0,0.0,0.0,0.0,0.0,0.0,0.0,0.0,0.0,0.0,0.0,0.0,0.0,0.0,0.0,0.0,0.0,0.0,0.0,0.0,0.0,0.0,-5.5166,-5.9087,-5.2135,-5.0345,-5.4461,0.0,0.0,0.0,0.0,0.0,0.0,0.0,0.0,0.0,0.0,0.0,0.0,0.0,0.0,0.0,0.0,0.0,0.0,0.0,0.0,0.0,0.0,0.0,0.0,0.0,0.0,0.0,0.0,0.0,0.0,0.0,0.0,0.0,0.0,0.0,0.0,0.0,0.0,0.0,0.0,0.0,0.0,0.0,0.0,0.0,0.0,0.0,0.0,0.0,0.0,0.0,0.0,0.0,0.0,0.0,0.0,0.0,0.0,0.0,0.0,0.0,0.0,0.0,0.0,0.0,0.0,0.0,0.0,0.0,0.0,0.0,0.0,0.0,0.0,0.0,0.0,0.0,0.0,0.0,0.0,0.0,0.0,0.0,0.0,0.0,0.0,0.0,0.0,0.0,0.0,0.0,0.0,0.0,0.0,0.0,0.0,0.0,0.0,0.0,0.0,0.0,0.0,0.0,0.0,0.0,0.0,0.0,0.0,0.0,0.0,0.0,0.0,0.0,0.0,-5.3829,0.0,0.0,0.0,0.0,0.0,0.0,0.0,0.0,0.0,0.0,0.0,0.0,0.0,0.0,0.0,0.0,0.0,0.0,0.0,0.0,0.0,0.0,0.0,0.0,0.0,0.0,0.0,0.0,0.0,0.0,0.0,0.0,0.0,0.0,0.0,0.0,0.0,0.0,0.0,0.0,0.0,0.0,0.0,0.0,0.0,0.0,0.0,0.0,0.0,0.0,0.0,0.0,0.0,0.0,0.0,0.0,0.0,0.0,0.0,0.0,0.0,0.0,0.0,0.0,0.0,0.0,0.0,0.0,0.0,0.0,0.0,0.0,0.0,0.0,0.0,0.0,0.0,0.0,0.0,0.0,0.0,0.0,0.0,0.0,0.0,0.0,0.0,0.0,0.0,0.0,0.0,0.0,0.0,0.0,0.0,0.0,0.0,0.0,0.0,0.0,0.0,0.0,0.0,0.0,0.0,0.0,0.0,0.0,0.0,0.0,0.0,0.0,0.0,0.0,0.0,0.0,0.0,0.0,0.0,0.0,0.0,0.0,0.0,0.0,0.0,0.0,0.0,0.0,0.0,0.0,0.0,0.0,0.0,0.0,0.0,0.0,0.0,0.0,0.0,0.0,0.0,0.0,0.0,0.0,0.0,0.0,0.0,0.0,0.0,0.0,0.0,0.0,0.0,0.0,0.0,0.0,0.0,0.0,0.0,0.0,0.0,0.0,0.0,0.0,0.0,0.0,0.0,0.0,0.0,0.0,0.0,0.0,0.0,0.0,0.0,0.0,0.0,0.0,0.0,0.0,0.0,0.0,0.0,0.0,0.0,0.0,0.0,0.0,0.0,0.0,0.0,0.0,0.0,0.0,0.0,0.0,0.0,0.0,0.0,0.0,0.0,0.0,0.0,0.0,0.0,0.0,0.0,0.0,0.0,0.0,0.0,0.0,0.0,0.0,0.0,0.0,0.0,0.0,0.0,0.0,0.0,0.0,0.0,0.0,0.0,0.0,0.0,0.0,0.0,0.0,0.0,0.0,0.0,0.0,0.0,0.0,0.0,0.0,0.0,0.0,0.0,0.0,0.0,0.0,0.0,0.0,0.0,0.0,0.0,0.0,0.0,0.0,0.0,0.0,0.0,0.0,0.0,0.0,0.0,0.0,0.0,0.0,0.0,0.0,0.0,0.0,0.0,0.0,0.0,0.0,0.0,0.0,0.0,0.0,0.0,0.0,0.0,0.0,0.0,0.0,0.0,0.0,0.0,0.0,0.0,0.0,0.0,0.0,0.0,0.0,0.0,0.0,0.0,0.0,0.0,0.0,0.0,0.0,0.0,0.0,0.0,0.0,0.0,0.0,0.0,0.0,0.0,0.0,0.0,0.0,0.0,0.0,0.0,0.0,0.0,0.0,0.0,0.0,0.0,0.0,0.0,0.0,0.0,0.0,0.0,0.0,0.0,0.0,0.0,0.0,0.0,0.0,0.0,0.0,0.0,0.0,0.0,0.0,0.0,0.0,0.0,0.0,0.0,0.0,0.0,0.0,0.0,0.0,0.0,0.0,0.0,0.0,0.0,0.0,0.0,0.0,0.0,0.0,0.0,0.0,0.0,0.0,0.0,0.0,0.0,0.0,0.0,0.0,0.0,0.0,0.0,0.0,0.0,0.0,0.0,0.0,0.0,0.0,0.0,0.0,0.0,0.0,0.0,0.0,0.0,0.0,0.0,0.0,0.0,0.0,0.0,0.0,0.0,0.0,0.0,0.0,0.0,0.0,0.0,0.0,0.0,0.0,0.0,0.0,0.0,0.0,0.0,0.0,0.0,0.0,0.0,0.0,0.0,0.0,0.0,0.0,0.0,0.0,0.0,0.0,0.0,0.0,0.0,0.0,0.0,0.0,0.0,0.0,0.0,0.0,0.0,0.0,0.0,0.0,0.0,0.0,0.0,0.0,0.0,0.0,0.0,0.0,0.0,0.0,0.0,0.0,0.0,0.0,0.0,0.0,0.0,0.0,0.0,0.0,0.0,0.0,0.0,0.0,0.0,0.0,0.0,0.0,0.0,0.0,0.0,0.0,0.0,0.0,0.0,0.0,0.0,0.0,0.0,0.0,0.0,0.0,0.0,0.0,0.0,0.0,0.0,0.0,0.0,0.0,0.0,0.0,0.0,0.0,0.0,0.0,0.0,0.0,0.0,0.0,0.0,0.0,0.0,0.0,0.0,0.0,0.0,0.0,0.0,0.0,0.0,0.0,0.0,0.0,0.0,0.0,0.0,0.0,0.0,0.0,0.0,0.0,0.0,0.0,0.0,0.0,0.0,0.0,0.0,0.0,0.0,0.0,0.0,0.0,0.0,0.0,0.0,0.0,0.0,0.0,0.0,0.0,0.0,0.0,0.0,0.0,0.0,0.0,0.0,0.0,0.0,0.0,0.0,0.0,0.0,0.0,0.0,0.0,0.0,0.0,0.0,0.0,0.0,0.0,0.0,0.0,0.0,0.0,0.0,0.0,0.0,0.0,0.0,0.0,0.0,0.0,0.0,0.0,0.0,0.0,0.0,0.0,0.0,0.0,0.0,0.0,0.0,0.0,0.0,0.0,0.0,0.0,0.0,0.0,0.0,0.0,0.0,0.0,0.0,0.0,0.0,0.0,0.0,0.0,0.0,0.0,0.0,0.0,0.0,0.0,0.0,0.0,0.0,0.0,0.0,0.0,0.0,0.0,0.0,0.0,0.0,0.0,0.0,0.0,0.0,0.0,0.0,0.0,0.0,0.0,0.0,0.0,0.0,0.0,0.0,0.0,0.0,0.0,0.0,0.0,0.0,0.0,0.0,0.0,0.0,0.0,0.0,0.0,0.0,0.0,0.0,0.0,0.0,0.0,0.0,0.0,0.0,0.0,0.0,0.0,0.0,0.0,0.0,0.0,0.0,0.0,0.0,0.0,0.0,0.0,0.0,0.0,0.0,0.0,0.0,0.0,0.0,0.0,0.0,0.0,0.0,0.0,0.0,0.0,0.0,0.0,0.0,0.0,0.0,0.0,0.0,0.0,0.0,0.0,0.0,0.0,0.0,0.0,0.0,0.0,0.0,0.0,0.0,0.0,0.0,0.0,0.0,0.0,0.0,0.0,0.0,0.0,0.0,0.0,0.0,0.0,0.0,0.0,0.0,0.0,0.0,0.0,0.0,0.0,0.0,0.0,0.0,0.0,0.0,0.0,0.0,0.0,0.0,0.0,0.0,0.0,0.0,0.0,0.0,0.0,0.0,0.0,0.0,0.0,0.0,0.0,0.0,0.0,0.0,0.0,0.0,0.0,0.0,0.0,0.0,0.0,0.0,0.0,0.0,0.0,0.0,0.0,0.0,0.0,0.0,0.0,0.0,0.0,0.0,0.0,0.0,0.0,0.0,0.0,0.0,0.0,0.0,0.0,0.0,0.0,0.0,0.0,0.0,0.0,0.0,0.0,0.0,0.0,0.0,0.0,0.0,0.0,0.0,0.0,0.0,0.0,0.0,0.0,0.0,0.0,0.0,0.0,0.0,0.0,0.0,0.0,0.0,0.0,0.0,0.0,0.0,0.0,0.0,0.0,0.0,0.0,0.0,0.0,0.0,0.0,0.0,0.0,0.0,0.0,0.0,0.0,0.0,0.0,0.0,0.0,0.0,0.0,0.0,0.0,0.0,0.0,0.0,0.0,0.0,0.0,0.0,0.0,0.0,0.0,0.0,0.0,0.0,0.0,0.0,0.0,0.0,0.0,0.0,0.0,0.0,0.0,0.0,0.0,0.0,0.0,0.0,0.0,0.0,0.0,0.0,0.0,0.0,0.0,0.0,0.0,0.0,0.0,0.0,0.0,0.0,0.0,0.0,0.0,0.0,0.0,0.0,0.0,0.0,0.0,0.0,0.0,0.0,0.0,0.0,0.0,0.0,0.0,0.0,0.0,0.0,0.0,0.0,0.0,0.0,0.0,0.0,0.0,0.0,0.0,0.0,0.0,0.0,0.0,0.0,0.0,0.0,0.0,0.0,0.0,0.0,0.0,0.0,0.0,0.0,0.0,0.0,0.0,0.0,0.0,0.0,0.0,0.0,0.0,0.0,0.0,0.0,0.0,0.0,0.0,0.0,0.0,0.0,0.0,0.0,0.0,0.0,0.0,0.0,0.0,0.0,0.0,0.0,0.0,0.0,0.0,0.0,0.0,0.0,0.0,0.0,0.0,0.0,0.0,0.0,0.0,0.0,0.0,0.0,0.0,0.0,0.0,0.0,0.0,0.0,0.0,0.0,0.0,0.0,0.0,0.0,0.0,0.0,0.0,0.0,0.0,0.0,0.0,0.0,0.0,0.0,0.0,0.0,0.0,0.0,0.0,0.0,0.0,0.0,0.0]}],[{"header":{"parameterUnit":"kt","parameterCategory":2,"dx":1,"dy":1,"la1":29.587661999999998,"la2":31.0,"lo1":-88.76705300000003,"lo2":-86.6583820000003,"nx":115,"ny":88,"refTime":"2022-10-19T18:00:00:Z","depth":0,"parameterNumber":2,"parameterNumberName":"V-component_of_WINDS"},"data":[4.982,4.9923,4.9963,4.9963,4.9963,4.9963,4.9921,5.0048,5.1278,5.2896,5.4547,5.6026,5.7579,5.9312,5.9288,5.9223,5.9131,5.9074,5.9074,5.91,5.91,5.91,5.91,5.91,5.91,5.91,5.91,5.9089,5.892,5.8633,5.8462,5.8434,5.8082,5.7707,5.7406,5.7094,5.6948,5.6696,5.6545,5.6346,5.6453,5.6417,5.6346,5.6988,5.7879,5.8473,5.9543,6.1766,6.2907,6.3799,6.4752,6.5501,6.5715,6.5715,6.5715,6.5715,6.5715,6.5715,6.5715,6.561,6.5442,6.4905,6.4387,6.3902,6.3432,6.2651,6.2585,6.2585,6.1953,6.1695,6.1397,6.1206,6.1062,6.2937,6.4451,6.5602,6.6984,6.7994,6.8871,6.9167,6.92,6.9233,6.9233,6.9233,6.9233,6.9233,6.9233,6.9233,6.9233,6.9233,6.9233,6.9233,6.9233,6.9233,6.9233,6.9233,6.9233,6.9233,6.9233,6.9233,6.9233,6.9233,6.9233,6.9233,6.8981,6.8762,6.8401,6.7198,6.6951,6.5815,6.4507,6.5028,6.7556,6.9931,7.0843,4.9673,4.9819,4.9922,4.9963,4.9963,4.9963,4.9963,4.996,5.0126,5.1834,5.4455,5.4947,5.6868,5.8576,5.9351,5.931,5.9233,5.9152,5.9086,5.9063,5.91,5.91,5.91,5.91,5.91,5.91,5.91,5.91,5.91,5.8956,5.8846,5.8883,5.858,5.8212,5.8004,5.7623,5.7134,5.6912,5.6696,5.6435,5.6368,5.6346,5.6404,5.6903,5.7795,5.8616,5.965,6.1196,6.2943,6.386,6.4502,6.5251,6.5608,6.5715,6.5715,6.5715,6.5715,6.5715,6.5715,6.5715,6.5601,6.5379,6.482,6.4446,6.4234,6.3867,6.3744,6.3307,6.2381,6.186,6.1536,6.1275,6.0965,6.1457,6.2773,6.4023,6.5668,6.7172,6.8159,6.9069,6.9134,6.92,6.9233,6.9233,6.9233,6.9233,6.9233,6.9233,6.9233,6.9233,6.9233,6.9233,6.9233,6.9233,6.9233,6.9233,6.9233,6.9233,6.9233,6.9233,6.9233,6.9233,6.9233,6.9233,6.9233,6.9091,6.8762,6.8434,6.7198,6.6016,6.6015,6.7041,6.9041,6.9166,6.985,4.9597,4.977,4.9887,4.9963,4.9963,4.9963,4.9963,4.9963,4.9921,5.1282,5.3368,5.4618,5.6113,5.7959,5.921,5.9475,5.9276,5.9233,5.9152,5.9097,5.91,5.91,5.91,5.91,5.91,5.91,5.91,5.91,5.91,5.91,5.91,5.9028,5.892,5.8593,5.8255,5.8014,5.7621,5.7212,5.6989,5.6886,5.6829,5.6766,5.6718,5.6462,5.6916,5.7166,5.8271,5.9365,6.1006,6.2255,6.3646,6.4538,6.543,6.568,6.5715,6.5715,6.5715,6.5715,6.5715,6.5715,6.5715,6.5627,6.528,6.5135,6.4933,6.4877,6.4735,6.4234,6.3302,6.2516,6.2176,6.1577,6.1209,6.0824,6.1765,6.2714,6.4023,6.5734,6.7106,6.8017,6.8477,6.8608,6.8981,6.8981,6.9101,6.9101,6.92,6.9233,6.9233,6.9233,6.9233,6.9233,6.9233,6.9233,6.9233,6.9233,6.9233,6.9233,6.9233,6.9233,6.9233,6.9233,6.9233,6.9233,6.9233,6.9233,6.9233,6.8981,6.7964,6.7166,6.7931,6.8806,6.8674,6.8694,6.924,4.9471,4.9677,4.9822,4.9884,4.9963,4.9963,4.9963,4.9963,4.9963,5.1178,5.3076,5.4519,5.6183,5.8204,5.9357,5.9592,5.9386,5.9304,5.9215,5.9182,5.9086,5.91,5.91,5.91,5.91,5.91,5.91,5.91,5.91,5.91,5.91,5.91,5.9028,5.8871,5.8593,5.8299,5.8014,5.764,5.748,5.7443,5.7275,5.7176,5.7014,5.6739,5.6417,5.656,5.7059,5.8045,5.9329,6.0614,6.2266,6.3763,6.5109,6.5537,6.568,6.5715,6.5715,6.5715,6.5715,6.5715,6.5715,6.5689,6.5689,6.5715,6.5715,6.5715,6.5468,6.4996,6.4381,6.3585,6.2915,6.2176,6.1577,6.1135,6.0989,6.1567,6.2214,6.4023,6.5866,6.6745,6.7458,6.7951,6.8422,6.8685,6.8904,6.9036,6.9134,6.9167,6.9167,6.9233,6.9233,6.9233,6.9233,6.9233,6.9233,6.9233,6.9233,6.9233,6.9233,6.9233,6.9233,6.9233,6.9233,6.9233,6.9233,6.9233,6.9233,6.9233,6.9233,6.8839,6.9091,6.9058,6.8861,6.8784,6.9047,4.9269,4.9409,4.9559,4.9713,4.9925,4.9963,4.9963,4.9963,4.9963,5.1709,5.4253,5.4936,5.6683,5.8767,5.9584,5.9657,5.9579,5.9413,5.935,5.925,5.9162,5.9134,5.9123,5.91,5.91,5.91,5.91,5.91,5.91,5.91,5.91,5.91,5.91,5.9028,5.8846,5.8593,5.8378,5.8144,5.8128,5.7967,5.769,5.7406,5.7114,5.6993,5.6718,5.6381,5.6774,5.7594,5.8735,5.9864,6.1256,6.3014,6.4049,6.4726,6.5465,6.5644,6.5715,6.5715,6.5715,6.5715,6.5715,6.5715,6.5715,6.5715,6.5715,6.5715,6.5715,6.5361,6.5024,6.4317,6.3713,6.3045,6.2142,6.1541,6.1168,6.1234,6.1644,6.2444,6.4089,6.5134,6.5848,6.6538,6.7041,6.7271,6.736,6.8641,6.9003,6.9036,6.9069,6.92,6.9233,6.9233,6.9233,6.9233,6.9233,6.9233,6.9233,6.9233,6.9233,6.9233,6.9233,6.9233,6.9233,6.9233,6.9233,6.9233,6.9233,6.9233,6.9233,6.9233,6.9233,6.9233,6.92,6.9123,6.92,4.9218,4.9347,4.9459,4.9531,4.9743,4.9822,4.9832,4.9875,4.9962,5.1178,5.3456,5.4557,5.6303,5.8581,5.953,5.9812,5.9707,5.9561,5.9426,5.9351,5.9224,5.9172,5.9108,5.91,5.9112,5.91,5.91,5.91,5.91,5.91,5.91,5.91,5.91,5.91,5.9028,5.8896,5.8734,5.8734,5.8696,5.8499,5.8249,5.7951,5.7534,5.7234,5.7014,5.6675,5.6614,5.6702,5.7808,5.9008,5.9401,6.1231,6.3478,6.3906,6.4441,6.568,6.5715,6.5715,6.5715,6.5715,6.5715,6.5715,6.5715,6.5715,6.5715,6.5715,6.5715,6.5689,6.5388,6.5052,6.4469,6.3867,6.2915,6.1968,6.1541,6.1205,6.1206,6.1336,6.2207,6.3424,6.4213,6.4936,6.543,6.566,6.6219,6.7402,6.806,6.828,6.8641,6.8773,6.8838,6.9134,6.9233,6.9233,6.9233,6.9233,6.9233,6.9233,6.9233,6.9233,6.9233,6.9233,6.9233,6.9233,6.9233,6.9233,6.9233,6.9233,6.9233,6.9233,6.9233,6.9233,6.9233,6.9233,6.92,4.9229,4.9311,4.9356,4.9415,4.9501,4.9586,4.9728,4.9768,4.9874,5.1254,5.3266,5.4519,5.6417,5.8239,5.9492,5.9834,5.9813,5.9701,5.9561,5.9463,5.9388,5.9241,5.9185,5.9168,5.913,5.9097,5.91,5.91,5.91,5.91,5.91,5.91,5.91,5.91,5.91,5.9089,5.904,5.9028,5.9017,5.8821,5.863,5.8313,5.7999,5.7639,5.7407,5.7078,5.6787,5.6782,5.698,5.8055,5.8437,5.9829,6.2587,6.3228,6.4049,6.5465,6.5715,6.5715,6.5715,6.5715,6.5715,6.5715,6.5715,6.5715,6.5715,6.5715,6.5715,6.5715,6.5584,6.5442,6.5016,6.4498,6.3775,6.2849,6.2073,6.1649,6.1349,6.1314,6.1155,6.2175,6.2503,6.3227,6.4082,6.4345,6.4772,6.5989,6.6909,6.76,6.8027,6.8191,6.8389,6.9036,6.9233,6.9233,6.9233,6.9003,6.9101,6.9233,6.9233,6.9233,6.9233,6.9233,6.9233,6.9233,6.9233,6.9233,6.9233,6.9233,6.9233,6.9233,6.9233,6.9233,6.9233,6.9233,6.92,4.9194,4.9204,4.9333,4.934,4.9361,4.9406,4.9544,4.9759,4.9766,5.1691,5.4784,5.486,5.6721,5.9378,5.9986,6.0062,6.0024,5.9796,5.9698,5.9582,5.9493,5.9386,5.9334,5.9278,5.9195,5.9126,5.91,5.91,5.91,5.91,5.91,5.91,5.91,5.91,5.91,5.91,5.91,5.91,5.91,5.9017,5.8896,5.8606,5.835,5.8076,5.7822,5.7516,5.7198,5.6978,5.6946,5.7197,5.7867,5.9436,6.1042,6.2576,6.4074,6.518,6.5644,6.5715,6.5715,6.5715,6.5715,6.5715,6.5715,6.5715,6.5715,6.5715,6.5715,6.5715,6.5715,6.5627,6.5575,6.5044,6.4562,6.3679,6.2749,6.2176,6.1755,6.1352,6.1069,6.0991,6.1391,6.1753,6.2602,6.2997,6.3325,6.4476,6.5462,6.612,6.6252,6.658,6.7435,6.8116,6.8346,6.8707,6.897,6.8674,6.8773,6.92,6.9233,6.92,6.9233,6.9233,6.9233,6.9233,6.9233,6.9233,6.9233,6.9233,6.9233,6.9233,6.9233,6.9233,6.9233,6.9233,6.9233,4.9194,4.9166,4.9212,4.9238,4.9247,4.9238,4.9334,4.9479,4.9695,5.1597,5.4343,5.4957,5.6827,5.9264,6.01,6.01,6.0062,5.9943,5.9861,5.9663,5.9628,5.9546,5.9413,5.9312,5.9284,5.9186,5.912,5.9112,5.9134,5.9112,5.91,5.91,5.91,5.91,5.91,5.91,5.91,5.91,5.91,5.91,5.9017,5.8908,5.867,5.8407,5.8182,5.7935,5.7569,5.7275,5.7054,5.6973,5.7434,5.8366,6.0328,6.172,6.254,6.4074,6.493,6.5644,6.5608,6.5608,6.5501,6.5608,6.5715,6.5715,6.5715,6.5715,6.5715,6.5715,6.5715,6.5689,6.5689,6.5627,6.5107,6.4498,6.3617,6.2849,6.2313,6.1757,6.1388,6.089,6.0963,6.1029,6.1358,6.1687,6.2115,6.3029,6.395,6.3983,6.4082,6.4936,6.5816,6.6054,6.6219,6.6975,6.7501,6.7731,6.828,6.9069,6.92,6.92,6.9167,6.9069,6.9167,6.9233,6.9233,6.9233,6.9233,6.9233,6.9233,6.9233,6.9233,6.9233,6.9233,6.9233,6.9233,4.9079,4.9185,4.9194,4.9194,4.9194,4.9194,4.9249,4.9311,4.9673,5.1451,5.4314,5.5493,5.7381,5.9182,6.0024,6.01,6.0062,6.0062,6.0023,5.9813,5.9812,5.9727,5.9583,5.9449,5.9437,5.932,5.9215,5.9162,5.9179,5.9097,5.9074,5.91,5.91,5.91,5.91,5.91,5.91,5.91,5.91,5.91,5.91,5.9077,5.8957,5.8657,5.8606,5.8364,5.7935,5.7739,5.7425,5.7094,5.6963,5.7914,5.9603,6.015,6.1006,6.2504,6.3218,6.4288,6.4859,6.4895,6.4895,6.5109,6.5287,6.5715,6.5715,6.5715,6.5715,6.5715,6.5715,6.5715,6.5715,6.5715,6.5548,6.4961,6.4411,6.3617,6.3012,6.2381,6.1688,6.1209,6.0667,6.0728,6.0794,6.1188,6.1353,6.2043,6.2273,6.2273,6.3069,6.3851,6.4345,6.4377,6.464,6.5397,6.5923,6.6219,6.6745,6.7271,6.7688,6.828,6.8806,6.8904,6.897,6.9069,6.9167,6.9233,6.9233,6.9233,6.9233,6.9233,6.9233,6.9233,6.9233,6.9233,6.9233,4.8811,4.9175,4.9157,4.9194,4.9194,4.9194,4.9166,4.9194,4.9371,5.1364,5.4576,5.6152,5.7869,5.9418,5.9941,6.0024,6.0062,6.0062,6.0024,6.0024,5.9986,5.9872,5.9757,5.9641,5.9537,5.9481,5.9374,5.9293,5.9293,5.9175,5.9115,5.913,5.9097,5.91,5.91,5.91,5.91,5.91,5.91,5.91,5.91,5.91,5.9089,5.8944,5.8944,5.8797,5.8407,5.8182,5.7838,5.7443,5.7237,5.788,5.9078,5.9226,5.9755,6.1055,6.1293,6.1934,6.2943,6.3157,6.3371,6.3692,6.4681,6.5394,6.5644,6.5715,6.5715,6.5715,6.5715,6.5715,6.5715,6.5715,6.5715,6.5415,6.4968,6.4352,6.3806,6.3238,6.2313,6.1649,6.1094,6.0667,6.0705,6.0662,6.0728,6.0761,6.0695,6.1292,6.2247,6.2872,6.3095,6.326,6.3588,6.4213,6.4542,6.4772,6.5035,6.5397,6.5923,6.6679,6.7271,6.7994,6.8553,6.8904,6.9036,6.92,6.9233,6.9167,6.9233,6.9233,6.9233,6.9233,6.9233,6.9233,6.9233,4.8663,4.8789,4.9051,4.9194,4.9194,4.9194,4.9194,4.9166,4.9203,5.1212,5.4494,5.5082,5.6839,5.9082,5.9766,5.9856,6.0024,6.0062,6.01,6.01,6.01,5.9986,5.9901,5.9806,5.966,5.9616,5.9472,5.9419,5.9413,5.9293,5.9252,5.9204,5.9147,5.9108,5.9074,5.91,5.91,5.91,5.91,5.91,5.91,5.91,5.91,5.91,5.91,5.8932,5.8809,5.8503,5.8234,5.7919,5.7837,5.8337,5.9001,5.9506,5.955,6.0024,6.0454,6.0602,6.0328,6.0364,6.1077,6.2694,6.3799,6.4681,6.5358,6.5715,6.5715,6.5715,6.5715,6.5715,6.5715,6.5715,6.5715,6.5715,6.5244,6.4961,6.4434,6.3928,6.3011,6.2108,6.1649,6.1172,6.102,6.0629,6.0695,6.0662,6.0662,6.0991,6.1687,6.1852,6.201,6.2273,6.2536,6.2865,6.3234,6.3391,6.3654,6.4016,6.4706,6.5331,6.5923,6.6942,6.76,6.7928,6.8389,6.9036,6.9069,6.8838,6.8937,6.9167,6.9233,6.9233,6.9233,6.9233,6.9233,4.8372,4.8605,4.8737,4.8874,4.8943,4.8943,4.9069,4.9147,4.9194,5.084,5.3458,5.4872,5.6919,5.892,5.9583,5.9739,5.9899,5.994,5.9986,6.0024,6.01,6.0062,5.9986,5.9902,5.9834,5.9802,5.9631,5.9537,5.9546,5.9366,5.9344,5.9321,5.9232,5.9185,5.9136,5.9104,5.9086,5.91,5.91,5.91,5.91,5.91,5.91,5.91,5.91,5.91,5.9028,5.8734,5.8516,5.8299,5.8076,5.8316,5.8773,5.8738,5.8655,5.8613,5.896,5.9177,5.8887,5.8643,5.9158,6.1305,6.2729,6.3728,6.4502,6.543,6.568,6.5715,6.5715,6.5715,6.5715,6.5715,6.5715,6.5715,6.561,6.5379,6.5016,6.4527,6.374,6.2717,6.2176,6.1539,6.1057,6.0667,6.0629,6.0629,6.0629,6.0662,6.0827,6.0991,6.1122,6.132,6.1418,6.1681,6.1852,6.201,6.224,6.2865,6.3555,6.3884,6.4213,6.5372,6.6284,6.6745,6.7139,6.7797,6.8224,6.8356,6.8685,6.9036,6.92,6.9003,6.9101,6.9233,6.9233,4.797,4.8485,4.8275,4.8355,4.8569,4.8544,4.8778,4.9089,4.9109,5.0072,5.1889,5.4839,5.7235,5.8944,5.9432,5.9556,5.9657,5.9657,5.9806,5.9943,6.0024,6.0062,6.0062,6.0062,6.0062,6.0024,5.9851,5.975,5.9679,5.9531,5.9493,5.9582,5.9393,5.932,5.9296,5.9185,5.9136,5.9126,5.9074,5.9063,5.91,5.91,5.91,5.91,5.91,5.91,5.91,5.9028,5.8846,5.8452,5.8383,5.8552,5.8451,5.8279,5.8095,5.7844,5.7982,5.8174,5.8275,5.7947,5.7957,5.9177,6.0959,6.2831,6.3717,6.4895,6.5537,6.5644,6.5715,6.5715,6.5715,6.5715,6.5715,6.5715,6.5689,6.5548,6.5352,6.494,6.4204,6.3305,6.2415,6.1539,6.0979,6.0673,6.0629,6.0629,6.0629,6.0629,6.0629,6.0629,6.0629,6.0629,6.0629,6.0662,6.0761,6.0925,6.1353,6.1944,6.2306,6.2503,6.2773,6.3621,6.4739,6.5232,6.589,6.6547,6.7074,6.7008,6.7337,6.8454,6.8707,6.7951,6.7787,6.7721,6.7951,4.7707,4.7857,4.7765,4.7984,4.8302,4.8315,4.846,4.8734,4.8756,4.9173,5.0605,5.3396,5.6586,5.8711,5.9275,5.9431,5.9541,5.9508,5.9658,5.9747,5.9808,5.9897,5.9986,6.0062,6.0062,6.01,5.9986,5.9986,5.9872,5.9742,5.9612,5.9654,5.9493,5.9451,5.9424,5.9326,5.9252,5.9233,5.9147,5.9086,5.91,5.91,5.91,5.91,5.91,5.91,5.91,5.91,5.91,5.8846,5.8834,5.8784,5.8617,5.8336,5.8113,5.7919,5.7741,5.7898,5.7845,5.7826,5.7586,5.8167,5.9456,6.1322,6.2759,6.3621,6.4227,6.5465,6.5608,6.5715,6.5715,6.5715,6.5715,6.5715,6.5715,6.5715,6.561,6.5052,6.4352,6.3526,6.2684,6.1753,6.1168,6.0824,6.0673,6.0667,6.0629,6.0629,6.0629,6.0629,6.0629,6.0629,6.0629,6.0629,6.0695,6.0662,6.0662,6.0958,6.1057,6.1292,6.1654,6.2411,6.3128,6.3884,6.4608,6.5265,6.5964,6.5726,6.5627,6.635,6.6843,6.644,6.6276,6.5923,6.5956,4.6953,4.699,4.7276,4.7598,4.7924,4.7954,4.8136,4.8422,4.8546,4.8745,4.9583,5.2667,5.5204,5.6999,5.8791,5.9258,5.9388,5.9386,5.9475,5.9583,5.9612,5.9692,5.9853,5.9899,5.9983,6.0062,6.01,6.0062,6.0062,5.9939,5.9855,5.985,5.9638,5.9579,5.9532,5.9401,5.9366,5.9284,5.9196,5.9168,5.9097,5.91,5.91,5.91,5.91,5.91,5.91,5.91,5.91,5.91,5.91,5.91,5.9005,5.8821,5.854,5.8407,5.8278,5.8189,5.8014,5.7983,5.7812,5.7863,5.8158,5.9511,6.1309,6.264,6.3906,6.4681,6.5251,6.568,6.5715,6.5715,6.5715,6.5715,6.5715,6.5715,6.561,6.5107,6.462,6.3806,6.3014,6.221,6.1575,6.1285,6.1209,6.0983,6.0743,6.0705,6.0667,6.0629,6.0629,6.0629,6.0629,6.0629,6.0629,6.0629,6.0629,6.0629,6.0728,6.0761,6.0963,6.1062,6.155,6.2273,6.3194,6.399,6.4681,6.464,6.4443,6.464,6.4871,6.5265,6.5594,6.5068,6.4805,4.5872,4.6013,4.6664,4.7115,4.7394,4.7479,4.777,4.8122,4.8334,4.8509,4.8792,5.2127,5.3851,5.5015,5.7456,5.8852,5.9224,5.9296,5.9328,5.9407,5.9469,5.9546,5.9641,5.9657,5.9813,5.9948,6.0024,6.0024,5.9985,6.0024,6.0024,6.0024,5.9813,5.9755,5.9707,5.9588,5.9451,5.9329,5.9312,5.9252,5.9147,5.9086,5.91,5.91,5.91,5.91,5.91,5.91,5.91,5.91,5.91,5.91,5.91,5.91,5.8809,5.8696,5.8771,5.8896,5.8526,5.8421,5.8263,5.7895,5.7679,5.8018,5.9433,6.1192,6.2616,6.3065,6.4405,6.5144,6.5144,6.5537,6.5715,6.5715,6.5715,6.5715,6.5663,6.5217,6.4848,6.4139,6.3744,6.2915,6.2313,6.2004,6.1686,6.1172,6.0786,6.0781,6.0705,6.0667,6.0629,6.0629,6.0629,6.0629,6.0629,6.0629,6.0629,6.0629,6.0662,6.0662,6.0728,6.0794,6.0925,6.1155,6.1852,6.2674,6.297,6.3128,6.3292,6.3292,6.3194,6.372,6.4443,6.441,6.4016,4.482,4.5359,4.5992,4.63,4.646,4.6931,4.7381,4.7727,4.7832,4.8021,4.8596,5.078,5.2646,5.4057,5.6035,5.7937,5.9104,5.9126,5.9214,5.928,5.932,5.9417,5.9536,5.962,5.9666,5.9802,5.9899,5.9943,5.9856,5.9943,6.0062,6.0062,6.0062,5.9986,5.991,5.9752,5.9689,5.9583,5.952,5.9396,5.9252,5.912,5.91,5.91,5.91,5.9086,5.9097,5.9108,5.9097,5.9097,5.9112,5.91,5.91,5.91,5.9028,5.8993,5.9054,5.9066,5.892,5.8908,5.867,5.8278,5.8122,5.7871,5.8497,5.9423,6.0707,6.1591,6.2968,6.3942,6.4191,6.4966,6.5608,6.5715,6.5715,6.5689,6.5575,6.5326,6.4933,6.4728,6.444,6.3989,6.3617,6.3302,6.255,6.2035,6.1646,6.1536,6.0979,6.0866,6.0786,6.0748,6.0629,6.0629,6.0629,6.0629,6.0629,6.0629,6.0629,6.0629,6.0629,6.0629,6.0662,6.0794,6.132,6.1523,6.1122,6.1188,6.1714,6.1912,6.1583,6.1714,6.224,6.2405,6.2668,4.4339,4.4667,4.5302,4.5766,4.6096,4.6451,4.6839,4.7329,4.7548,4.7759,4.8642,5.0738,5.2491,5.3783,5.6051,5.7926,5.8879,5.91,5.9115,5.9172,5.9195,5.927,5.9372,5.9451,5.9498,5.96,5.9683,5.973,5.9709,5.9812,5.9948,6.0062,6.01,6.01,6.0062,5.991,5.981,5.9698,5.9616,5.9525,5.9403,5.935,5.9233,5.9204,5.9165,5.9203,5.9203,5.9203,5.9165,5.9172,5.9141,5.9112,5.91,5.91,5.9089,5.9089,5.9089,5.91,5.91,5.9089,5.8956,5.8696,5.8434,5.8107,5.8032,5.815,5.8948,6.0339,6.1877,6.3371,6.3335,6.4823,6.5573,6.5715,6.5715,6.5715,6.5637,6.5326,6.5244,6.519,6.4988,6.4848,6.4642,6.4109,6.3432,6.2949,6.2584,6.2036,6.1391,6.1245,6.1168,6.0979,6.0667,6.0629,6.0629,6.0629,6.0629,6.0629,6.0629,6.0629,6.0629,6.0629,6.0629,6.0629,6.0629,6.0859,6.0662,6.0695,6.0662,6.0728,6.0892,6.0958,6.0728,6.0695,6.1188,4.3998,4.4048,4.4678,4.5246,4.5701,4.5851,4.6275,4.6856,4.7151,4.7394,4.7926,5.0878,5.2296,5.3557,5.6364,5.8165,5.8772,5.904,5.9074,5.9134,5.9108,5.9158,5.927,5.9326,5.9344,5.9393,5.9457,5.9525,5.9588,5.9645,5.9795,5.9943,5.9986,6.0062,6.0062,6.0062,5.9904,5.981,5.98,5.9679,5.9561,5.9504,5.9407,5.9358,5.9276,5.9296,5.9267,5.9276,5.9267,5.9261,5.9172,5.9126,5.9136,5.9136,5.913,5.9086,5.91,5.91,5.91,5.91,5.91,5.9005,5.8734,5.8462,5.8167,5.7922,5.8188,5.9377,6.0784,6.2353,6.2897,6.4145,6.5144,6.5715,6.5715,6.5715,6.5715,6.5663,6.561,6.5522,6.5548,6.5468,6.5162,6.47,6.4139,6.3744,6.3429,6.3014,6.2313,6.1966,6.172,6.1282,6.0899,6.0824,6.0711,6.0786,6.0667,6.0705,6.0629,6.0629,6.0629,6.0629,6.0629,6.0629,6.0629,6.0629,6.0629,6.0629,6.0629,6.0629,6.0629,6.0662,6.0629,6.0629,6.0827,4.3471,4.3518,4.4057,4.4305,4.451,4.5029,4.5636,4.6158,4.628,4.6689,4.7545,4.934,5.134,5.2623,5.4837,5.6776,5.81,5.8784,5.9052,5.9089,5.91,5.9119,5.9168,5.9224,5.9252,5.9152,5.9241,5.932,5.9379,5.9463,5.9592,5.9709,5.9757,5.9739,5.9947,6.0024,5.991,5.9758,5.9834,5.9855,5.9698,5.9683,5.9592,5.9469,5.9396,5.932,5.932,5.928,5.927,5.9163,5.9214,5.9252,5.9232,5.9252,5.9224,5.9074,5.9134,5.9086,5.9074,5.91,5.91,5.91,5.8956,5.8747,5.8411,5.8211,5.7995,5.8117,5.8298,5.9449,6.1221,6.3004,6.436,6.5358,6.5715,6.5715,6.5715,6.5715,6.5537,6.5573,6.5511,6.5378,6.5255,6.5227,6.4869,6.4527,6.4381,6.4054,6.3368,6.2883,6.2449,6.2036,6.1755,6.1649,6.1315,6.1205,6.0824,6.0748,6.0629,6.0629,6.0629,6.0711,6.0829,6.0748,6.0629,6.0629,6.0629,6.0629,6.0629,6.0629,6.0629,6.0629,6.0629,6.0629,6.0662,4.3373,4.3368,4.3619,4.3852,4.414,4.4461,4.4971,4.5571,4.5894,4.6254,4.6928,4.8724,5.0509,5.2095,5.4006,5.591,5.7495,5.8373,5.8809,5.9028,5.9052,5.9089,5.9108,5.9147,5.9141,5.9082,5.9141,5.9252,5.9276,5.9366,5.9451,5.9579,5.9588,5.9379,5.8749,5.9439,5.9448,5.9075,5.953,6.0023,5.9939,5.9898,5.98,5.9605,5.9513,5.9509,5.9455,5.9432,5.9379,5.9424,5.9417,5.9336,5.9318,5.9284,5.9233,5.9126,5.9147,5.9172,5.9097,5.91,5.91,5.91,5.91,5.892,5.8797,5.8448,5.8122,5.7772,5.7606,5.8179,6.0709,6.2397,6.3977,6.5287,6.5715,6.5715,6.5573,6.4966,6.4467,6.4548,6.5073,6.5109,6.5144,6.5316,6.4944,6.386,6.3724,6.4299,6.3655,6.315,6.2854,6.2542,6.2446,6.2211,6.1795,6.1464,6.1165,6.0904,6.0829,6.0824,6.0711,6.0862,6.102,6.0829,6.0629,6.0629,6.0629,6.0629,6.0629,6.0629,6.0629,6.0629,6.0629,6.0629,6.0629,4.3601,4.3828,4.3472,4.3592,4.3904,4.398,4.4526,4.5462,4.6114,4.6768,4.748,4.907,5.0609,5.1807,5.3662,5.5214,5.6494,5.7592,5.8321,5.8796,5.8834,5.892,5.892,5.9052,5.9063,5.91,5.91,5.9147,5.9224,5.9252,5.9326,5.9419,5.9376,5.8909,5.8111,5.8826,5.8554,5.7974,5.8771,5.934,5.934,5.9682,5.9943,5.9808,5.9759,5.9755,5.9657,5.9554,5.96,5.9648,5.9571,5.946,5.9444,5.9374,5.9301,5.9252,5.9233,5.9204,5.9158,5.9119,5.91,5.91,5.91,5.91,5.904,5.8709,5.8476,5.8212,5.7792,5.8258,5.9882,6.1602,6.2855,6.3839,6.436,6.4467,6.4431,6.3575,6.2932,6.305,6.3789,6.4253,6.3086,6.3931,6.3824,6.3264,6.3457,6.4145,6.3869,6.3319,6.2946,6.2589,6.2506,6.2486,6.2174,6.2001,6.1611,6.1249,6.1172,6.1131,6.0899,6.0899,6.0899,6.0786,6.0629,6.0629,6.0629,6.0629,6.0629,6.0629,6.0629,6.0629,6.0629,6.0629,6.0629,4.4416,4.5143,4.3866,4.3395,4.3575,4.3509,4.4762,4.6199,4.7005,4.8175,4.9692,5.0961,5.1455,5.1802,5.3518,5.4425,5.5109,5.6768,5.7495,5.7924,5.8263,5.8383,5.8499,5.8797,5.9005,5.9017,5.9089,5.9097,5.9141,5.9141,5.9175,5.9267,5.9318,5.92,5.8704,5.8131,5.765,5.7516,5.7999,5.8277,5.8277,5.934,5.9834,5.9796,5.9796,5.9861,5.9759,5.9695,5.9755,6.0022,5.9766,5.9641,5.9628,5.9525,5.9451,5.9431,5.927,5.9204,5.9215,5.9131,5.91,5.9097,5.9086,5.91,5.9089,5.9005,5.8747,5.8411,5.827,5.8214,5.8684,5.9358,6.079,6.183,6.1686,6.153,6.1494,6.1363,6.1256,6.1351,6.1387,6.153,6.1351,6.1387,6.153,6.1577,6.1909,6.2415,6.2385,6.2266,6.2274,6.2216,6.2387,6.252,6.2437,6.2243,6.1668,6.1223,6.1021,6.0838,6.0549,6.0721,6.0726,6.0743,6.0667,6.0629,6.0629,6.0629,6.0629,6.0629,6.0629,6.0629,6.0629,6.0629,6.0629,4.5402,4.5805,4.5827,4.583,4.5801,4.5801,4.6303,4.7132,4.7854,4.884,4.9899,5.0753,5.1748,5.3029,5.3749,5.4591,5.5682,5.6689,5.7215,5.748,5.7792,5.7951,5.8076,5.8407,5.862,5.8683,5.8932,5.904,5.9052,5.91,5.913,5.9162,5.9172,5.8735,5.8114,5.8097,5.8126,5.7445,5.8172,5.8189,5.761,5.9018,5.9368,5.8847,5.9606,6.0023,5.9901,5.9762,5.9808,5.9905,5.9813,5.9666,5.9663,5.959,5.9537,5.9487,5.9403,5.9358,5.9359,5.9195,5.9126,5.9182,5.9141,5.9086,5.91,5.91,5.9077,5.8734,5.8476,5.827,5.8288,5.9136,6.0237,6.092,5.983,5.8656,5.8366,5.9198,5.9579,5.99,6.0388,6.0816,5.9757,6.0578,6.0531,6.0078,6.0257,6.0649,6.0792,6.1077,6.119,6.1369,6.1569,6.164,6.16,6.1176,6.0586,6.0463,6.0242,6.0109,6.0176,6.0535,6.0549,6.0618,6.0654,6.0629,6.0629,6.0629,6.0409,6.0221,6.0563,6.0629,6.0629,6.0629,6.0629,4.6023,4.6325,4.6968,4.7208,4.7241,4.7546,4.7771,4.8256,4.8928,4.9803,5.0536,5.0958,5.2202,5.3632,5.3892,5.462,5.5586,5.6494,5.6989,5.7014,5.7257,5.7389,5.7621,5.7967,5.8167,5.8226,5.863,5.8896,5.8871,5.9017,5.91,5.91,5.9086,5.8537,5.7534,5.8167,5.7926,5.7272,5.8242,5.8183,5.7608,5.8794,5.8913,5.7815,5.9112,5.9682,5.9378,5.9631,5.9631,5.8922,5.8909,5.9235,5.973,5.9712,5.9686,5.9638,5.9541,5.9487,5.9439,5.931,5.9204,5.9215,5.9182,5.9141,5.9112,5.91,5.91,5.9017,5.8797,5.8553,5.8634,5.914,5.981,6.0451,5.9029,5.7586,5.7277,5.7701,5.8308,5.8393,5.9101,5.9032,5.858,5.883,5.9115,5.8509,5.883,5.9472,5.9187,5.9294,5.9448,5.9936,6.0435,6.0614,6.061,6.0088,5.9723,5.9565,5.9407,5.9229,5.9298,5.9688,5.9969,6.0168,5.9835,5.9667,5.9888,6.0019,5.9783,5.9302,5.9284,5.8825,5.9248,5.983,5.9669,4.5924,4.6685,4.6387,4.6461,4.6557,4.7533,4.8626,4.964,5.0403,5.1452,5.2476,5.2555,5.2857,5.313,5.3907,5.4327,5.4463,5.5836,5.6479,5.6501,5.6531,5.6751,5.712,5.7534,5.7707,5.7825,5.8167,5.8341,5.8407,5.8809,5.91,5.9028,5.904,5.8974,5.8665,5.7524,5.7201,5.7063,5.7176,5.7329,5.7137,5.8591,5.8808,5.7501,5.8799,5.9125,5.835,5.9188,5.8581,5.6113,5.7252,5.8467,5.9604,5.9772,5.9812,5.9942,5.9692,5.9536,5.9504,5.9464,5.9328,5.9165,5.9214,5.9252,5.9146,5.91,5.91,5.9089,5.8979,5.9005,5.8908,5.8864,5.8669,5.8611,5.8433,5.8057,5.769,5.7403,5.7552,5.7395,5.6876,5.6654,5.6971,5.6868,5.6975,5.6738,5.6881,5.7237,5.7237,5.7594,5.763,5.8093,5.8771,5.9079,5.952,5.9031,5.8741,5.8576,5.8375,5.8064,5.7892,5.8339,5.8658,5.8782,5.8754,5.8717,5.8669,5.8594,5.8395,5.8563,5.8087,5.6897,5.696,5.7706,5.7877,4.6842,4.7319,4.8396,4.8894,4.8996,4.9888,5.0601,5.1093,5.1445,5.2113,5.2901,5.3011,5.3487,5.4268,5.4621,5.5021,5.5503,5.6025,5.6346,5.6346,5.6346,5.6457,5.6675,5.6835,5.7022,5.7351,5.7739,5.7935,5.8004,5.8341,5.8606,5.8646,5.8932,5.9089,5.9,5.8516,5.8231,5.8242,5.8256,5.7803,5.7383,5.8484,5.8657,5.7606,5.8694,5.8752,5.7677,5.8858,5.9097,5.8115,5.7476,5.7736,5.8467,5.9376,5.9944,5.9983,5.9762,5.9679,5.9782,5.9558,5.9328,5.9296,5.9205,5.9147,5.9108,5.91,5.91,5.91,5.91,5.91,5.9089,5.8896,5.8821,5.8797,5.8503,5.827,5.8107,5.7758,5.757,5.7425,5.7101,5.6896,5.6745,5.6653,5.6346,5.6346,5.6346,5.6346,5.6346,5.6346,5.6595,5.6988,5.7416,5.7808,5.82,5.8107,5.7831,5.7616,5.7451,5.7154,5.6977,5.7358,5.7618,5.7803,5.8062,5.8068,5.809,5.7787,5.7477,5.7993,5.8238,5.7346,5.6782,5.6982,5.6419,4.6929,4.713,4.8845,4.9573,4.9687,5.0948,5.1454,5.1488,5.1818,5.2174,5.2676,5.2949,5.3595,5.4397,5.4836,5.5269,5.5989,5.5789,5.5813,5.5989,5.6013,5.6141,5.6323,5.6368,5.6581,5.6932,5.7369,5.7552,5.7604,5.7935,5.8137,5.8212,5.863,5.8834,5.8834,5.9017,5.91,5.91,5.91,5.858,5.7731,5.8632,5.8448,5.7252,5.8538,5.8707,5.7317,5.8103,5.8412,5.7823,5.7454,5.7271,5.7619,5.8576,5.9186,5.9226,5.9101,5.9212,5.9745,5.9688,5.9547,5.9439,5.9304,5.9204,5.9189,5.913,5.91,5.91,5.91,5.91,5.91,5.91,5.9052,5.9089,5.8747,5.858,5.854,5.8358,5.8113,5.7887,5.7443,5.7157,5.7054,5.666,5.6368,5.6346,5.6346,5.6346,5.6346,5.6346,5.6346,5.6346,5.6346,5.6702,5.7095,5.7217,5.7065,5.6935,5.6816,5.6638,5.6555,5.671,5.6863,5.703,5.7393,5.7599,5.7629,5.7366,5.6956,5.7119,5.7094,5.7046,5.7114,5.6542,5.5613,4.5906,4.6157,4.708,4.7686,4.7967,4.9723,5.0565,5.0705,5.1454,5.1818,5.1981,5.2676,5.3073,5.3308,5.3943,5.4573,5.4966,5.4573,5.4653,5.5229,5.5219,5.5609,5.6255,5.6255,5.6301,5.6457,5.6912,5.7153,5.7157,5.7497,5.7741,5.7825,5.8137,5.8327,5.8364,5.8759,5.9005,5.8993,5.9005,5.8991,5.9063,5.9022,5.8429,5.7305,5.8448,5.8569,5.6972,5.6993,5.6689,5.5586,5.6352,5.7085,5.7477,5.7688,5.7567,5.7744,5.767,5.8271,5.9424,5.9706,5.9514,5.9561,5.9481,5.941,5.9293,5.9213,5.9141,5.913,5.913,5.9123,5.9086,5.91,5.91,5.9089,5.904,5.9005,5.9017,5.9028,5.8896,5.835,5.7688,5.7215,5.7074,5.6802,5.6435,5.6368,5.6346,5.6346,5.6346,5.6346,5.6346,5.6346,5.6346,5.6346,5.6346,5.6346,5.6346,5.6346,5.6346,5.6346,5.6346,5.6381,5.6543,5.6603,5.6974,5.6985,5.6991,5.6829,5.6421,5.6248,5.54,5.5254,5.5655,5.5842,5.4953,4.5186,4.599,4.6999,4.7479,4.7607,4.8913,4.9469,4.9578,5.0533,5.0981,5.1151,5.1916,5.2583,5.3073,5.3308,5.36,5.3744,5.3571,5.3858,5.4493,5.4546,5.4914,5.5477,5.5609,5.5825,5.6359,5.6545,5.6632,5.666,5.7117,5.7313,5.7333,5.7688,5.7956,5.7935,5.8082,5.8159,5.8219,5.8421,5.8543,5.8644,5.8908,5.8809,5.85,5.8858,5.8895,5.836,5.8323,5.8112,5.7656,5.7093,5.7391,5.85,5.8709,5.8396,5.7561,5.7417,5.7661,5.8161,5.8222,5.8617,5.9476,5.9551,5.9513,5.9426,5.9396,5.9326,5.9241,5.9293,5.9278,5.9147,5.9112,5.91,5.91,5.91,5.91,5.91,5.91,5.9005,5.8734,5.8263,5.7858,5.757,5.7176,5.6787,5.6368,5.6346,5.6346,5.6346,5.6346,5.6346,5.6346,5.6346,5.6346,5.6435,5.639,5.6346,5.6346,5.6346,5.6346,5.6346,5.6346,5.6395,5.6359,5.6395,5.6359,5.6314,5.62,5.6166,5.6155,5.5621,5.5264,5.5339,5.5314,5.5338,4.4813,4.5948,4.6623,4.6878,4.6999,4.7967,4.8422,4.8574,4.9899,5.053,5.0705,5.1488,5.2207,5.2679,5.2645,5.2645,5.2645,5.2645,5.3073,5.3744,5.3801,5.4193,5.481,5.4862,5.5254,5.586,5.5954,5.6082,5.6368,5.6718,5.6871,5.6917,5.7276,5.7516,5.7552,5.7619,5.7741,5.7775,5.7967,5.8122,5.8137,5.859,5.8759,5.8604,5.859,5.859,5.859,5.8709,5.8809,5.8772,5.8077,5.8116,5.9017,5.8763,5.8108,5.7319,5.7221,5.7262,5.7431,5.7366,5.7586,5.8028,5.8377,5.8694,5.8798,5.9174,5.9445,5.9396,5.9393,5.9396,5.9252,5.9252,5.9261,5.9162,5.913,5.91,5.91,5.91,5.91,5.9028,5.8784,5.8421,5.802,5.7623,5.7159,5.6745,5.6653,5.6567,5.6435,5.6346,5.6346,5.6346,5.6346,5.6413,5.6589,5.6545,5.6368,5.6368,5.639,5.6413,5.6368,5.6346,5.639,5.6413,5.6346,5.6346,5.6346,5.6233,5.6255,5.6255,5.6255,5.6036,5.6346,5.5585,5.5609,4.4726,4.5696,4.5822,4.5906,4.5948,4.6959,4.7369,4.7488,4.9432,5.0323,5.0358,5.1354,5.1818,5.1851,5.1818,5.1851,5.1949,5.1949,5.2365,5.2983,5.3013,5.346,5.4173,5.42,5.452,5.5144,5.5194,5.5561,5.6255,5.6346,5.6346,5.6426,5.6835,5.7114,5.7137,5.7389,5.7619,5.7586,5.7673,5.7707,5.7722,5.8061,5.8076,5.7792,5.7758,5.7809,5.7825,5.8107,5.8313,5.8327,5.8685,5.8977,5.8985,5.7759,5.7104,5.7077,5.6995,5.7033,5.7287,5.7347,5.6804,5.5771,5.682,5.7357,5.7349,5.8426,5.9157,5.9347,5.8902,5.8957,5.9155,5.9029,5.9122,5.9234,5.9203,5.9152,5.9108,5.913,5.9086,5.91,5.9028,5.8821,5.8421,5.7999,5.7586,5.7275,5.7157,5.7018,5.6682,5.6545,5.6545,5.6531,5.6509,5.6589,5.6978,5.6937,5.6618,5.6618,5.673,5.6531,5.6421,5.6413,5.6435,5.6457,5.6501,5.6501,5.639,5.6346,5.6346,5.6346,5.6346,5.6346,5.6346,5.573,5.5598,4.3454,4.4639,4.5498,4.5864,4.5906,4.6199,4.6294,4.65,4.7725,4.8276,4.8467,5.0149,5.088,5.0912,5.088,5.1286,5.1851,5.1916,5.2014,5.2174,5.2206,5.2614,5.3342,5.3401,5.3773,5.4385,5.4527,5.4836,5.5501,5.6059,5.6346,5.6368,5.6501,5.6567,5.6589,5.6646,5.673,5.6772,5.7157,5.7294,5.7313,5.7425,5.7443,5.7332,5.7605,5.7741,5.7741,5.7822,5.8014,5.8299,5.8448,5.8709,5.904,5.8708,5.8494,5.8424,5.7482,5.686,5.7066,5.7076,5.6978,5.676,5.7043,5.6868,5.6187,5.7126,5.794,5.7897,5.6793,5.6818,5.7604,5.7767,5.8222,5.9281,5.9386,5.932,5.9252,5.9224,5.9175,5.9097,5.9074,5.9017,5.8834,5.8434,5.8014,5.7656,5.7551,5.7498,5.737,5.7351,5.7351,5.737,5.7101,5.7157,5.7462,5.7352,5.737,5.7352,5.7278,5.7259,5.7352,5.7333,5.7315,5.6917,5.6932,5.6871,5.666,5.6479,5.639,5.6368,5.6368,5.6413,5.6435,5.6255,5.6047,4.2182,4.3436,4.4683,4.5442,4.5864,4.5864,4.5864,4.599,4.6969,4.7479,4.7646,4.8694,4.9248,4.9285,4.9718,5.0428,5.132,5.132,5.1521,5.1883,5.1916,5.2175,5.2552,5.2583,5.3013,5.3721,5.3744,5.4138,5.4784,5.5289,5.5645,5.586,5.5907,5.6059,5.6323,5.6346,5.6346,5.6346,5.6675,5.6829,5.6829,5.6844,5.6865,5.685,5.7042,5.7181,5.72,5.7388,5.7586,5.7842,5.7983,5.8197,5.8522,5.8683,5.8797,5.8735,5.8093,5.7476,5.6929,5.6867,5.6718,5.6254,5.6793,5.6532,5.5189,5.6483,5.7357,5.7211,5.7024,5.7175,5.8084,5.7568,5.7748,5.9115,5.8877,5.8689,5.923,5.9304,5.9278,5.9192,5.9104,5.91,5.9028,5.8821,5.8485,5.8076,5.7967,5.7908,5.7705,5.7741,5.7741,5.7724,5.769,5.7741,5.7924,5.7891,5.7741,5.7724,5.7741,5.7741,5.7654,5.7705,5.7673,5.7407,5.7406,5.7256,5.6885,5.6941,5.6921,5.6946,5.6941,5.6896,5.6739,5.6523,5.6368,4.1087,4.2155,4.3419,4.4596,4.5413,4.5625,4.5654,4.5793,4.6837,4.725,4.7009,4.713,4.725,4.7567,4.846,4.9432,5.0358,5.0393,5.0845,5.1686,5.1785,5.1818,5.1949,5.1916,5.227,5.2891,5.2983,5.3367,5.4055,5.4173,5.4466,5.5033,5.5109,5.5488,5.6059,5.6174,5.6291,5.6255,5.621,5.6164,5.6164,5.6164,5.6245,5.6255,5.6255,5.6278,5.6413,5.6865,5.7114,5.7193,5.7498,5.769,5.7775,5.8039,5.827,5.8284,5.8721,5.8408,5.7121,5.6949,5.644,5.5095,5.6189,5.6337,5.5044,5.634,5.7134,5.6934,5.8165,5.8785,5.9322,5.8125,5.7867,5.9007,5.8028,5.758,5.8855,5.9153,5.9183,5.9242,5.9185,5.9108,5.913,5.9063,5.8846,5.8448,5.8421,5.8321,5.8067,5.8004,5.7988,5.8004,5.8174,5.8378,5.8378,5.8098,5.802,5.794,5.7891,5.7956,5.802,5.7988,5.7862,5.7858,5.7792,5.7741,5.7654,5.7724,5.7673,5.7533,5.7551,5.7569,5.7237,5.685,5.6545,4.0567,4.0924,4.2136,4.275,4.3112,4.4086,4.4509,4.4639,4.5709,4.5751,4.4957,4.4871,4.5832,4.7369,4.7686,4.8383,4.9248,4.9353,4.9899,5.0777,5.0878,5.1219,5.1884,5.1916,5.1981,5.2142,5.2142,5.2616,5.3283,5.3308,5.3716,5.4392,5.4474,5.4554,5.474,5.5229,5.5477,5.5452,5.4975,5.4714,5.4714,5.4714,5.4975,5.5428,5.5477,5.5754,5.6301,5.6515,5.6703,5.7134,5.7234,5.7425,5.7724,5.7825,5.7854,5.7924,5.8278,5.833,5.8037,5.8344,5.7907,5.6432,5.6606,5.6198,5.5014,5.6039,5.6445,5.5396,5.5781,5.6455,5.7469,5.742,5.7463,5.7769,5.7556,5.7453,5.7746,5.7793,5.8164,5.925,5.9342,5.9242,5.9205,5.9131,5.9052,5.8944,5.892,5.8896,5.8834,5.8809,5.8771,5.8784,5.8871,5.8896,5.8945,5.8784,5.8746,5.8771,5.8746,5.8707,5.8707,5.8746,5.8644,5.8293,5.8197,5.8107,5.7789,5.7775,5.7755,5.7825,5.7842,5.7795,5.7604,5.7257,5.6978,3.9549,3.9671,4.085,4.1391,4.1485,4.2686,4.3257,4.3274,4.3898,4.3837,4.3302,4.3893,4.4784,4.5944,4.6511,4.729,4.8238,4.8276,4.8838,4.9791,4.9827,5.0113,5.0606,5.1051,5.1286,5.1286,5.1686,5.211,5.2489,5.2554,5.2738,5.313,5.3513,5.3858,5.4228,5.4573,5.4723,5.4689,5.3056,5.2208,5.2174,5.2174,5.2356,5.2738,5.4089,5.4975,5.5364,5.5389,5.5561,5.5789,5.61,5.6352,5.6562,5.7128,5.7498,5.7462,5.7842,5.8045,5.8045,5.8448,5.8447,5.7897,5.7842,5.7364,5.6379,5.7242,5.7478,5.6767,5.6727,5.7118,5.7893,5.7504,5.7225,5.7344,5.6694,5.6301,5.633,5.6838,5.7635,5.8371,5.9004,5.9358,5.9351,5.9278,5.9192,5.9182,5.913,5.91,5.9089,5.9089,5.9089,5.91,5.91,5.91,5.9089,5.91,5.91,5.91,5.91,5.91,5.91,5.9089,5.8944,5.8734,5.8683,5.8567,5.843,5.8358,5.8358,5.8344,5.8358,5.8204,5.803,5.7822,5.769,3.8485,3.8585,3.9721,4.0134,4.0205,4.1224,4.1785,4.1924,4.1759,4.1759,4.2017,4.3149,4.3687,4.3909,4.4914,4.5974,4.6969,4.7009,4.7616,0.0,4.8732,4.8876,4.9025,4.9899,5.0355,5.0393,5.122,5.1719,5.1719,5.1851,5.1916,5.2014,5.2585,5.3189,5.383,5.4033,5.3999,5.388,5.1332,5.0048,5.0048,4.9842,4.9653,4.947,5.2007,5.3355,5.3043,5.3353,5.3429,5.3035,5.3732,5.4058,5.3933,5.5169,5.6243,5.6576,5.7151,5.7532,5.7656,5.8014,5.8421,5.8821,5.8932,5.8784,5.8299,5.8696,5.8993,5.8968,5.9015,5.927,5.9174,5.8091,5.7375,5.7176,5.5812,5.4863,5.5085,5.5914,5.6606,5.698,5.8308,5.9142,5.905,5.919,5.9334,5.9272,5.9242,5.9158,5.9147,5.9152,5.9147,5.9147,5.9147,5.9147,5.9172,5.9158,5.9162,5.9147,5.9189,5.9199,5.9147,5.9179,5.9131,5.9074,5.9086,5.9086,5.9028,5.91,5.9005,5.8993,5.8981,5.8896,5.854,5.8434,5.8355,3.8485,3.8535,3.8759,3.8809,3.8884,3.9057,3.9768,4.0637,0.0,0.0,0.0,4.0971,4.1652,4.2523,4.2723,4.3515,4.4655,4.4698,4.579,4.7686,4.7725,4.8161,4.8988,4.9174,4.9248,4.9322,5.0291,5.0742,5.0809,5.1521,5.1916,5.1883,5.2046,5.2207,5.2365,5.2952,5.2983,5.2299,5.1802,5.1506,5.1504,5.0345,4.8937,4.7192,4.8854,4.8899,4.7146,4.9299,4.9472,4.7204,4.8256,4.8441,4.7353,4.9661,5.19,5.3668,5.5355,5.6577,5.7234,5.7604,5.7891,5.7956,5.8278,5.8255,5.7854,5.8234,5.8462,5.8462,5.8883,5.9104,5.9115,5.8933,5.8333,5.6991,5.5647,5.4843,5.4785,5.406,5.4061,5.5313,5.6762,5.7704,5.7777,5.8632,5.9445,5.9445,5.9286,5.9351,5.9293,5.9177,5.9077,5.9101,5.9079,5.9304,5.9393,5.9341,5.94,5.941,5.9417,5.9381,5.931,5.9336,5.9334,5.9158,5.9165,5.9185,5.913,5.9086,5.91,5.91,5.91,5.9077,5.8993,5.8944,5.8821,3.7019,0.0,3.7857,3.8059,0.0,3.816,3.841,3.8312,3.7681,3.8186,3.9525,4.0134,4.0733,4.1297,4.1924,4.2523,4.314,4.314,4.4118,4.5735,4.5777,4.6329,4.7449,4.7929,4.8161,4.8268,4.9248,4.9723,4.9791,5.022,5.0431,5.0434,5.0431,5.0082,4.9477,5.103,5.1323,5.0399,4.8717,4.7908,4.781,4.6975,4.6006,4.5089,0.0,0.0,0.0,0.0,0.0,0.0,0.0,0.0,0.0,0.0,0.0,4.9218,4.9462,4.9786,5.0167,5.0531,5.1886,5.446,5.504,5.5086,5.4714,5.6752,5.7753,5.7192,5.8134,5.8772,5.9052,5.9158,5.8529,5.6984,5.6188,5.5141,5.3837,5.3579,5.3712,5.3949,5.5159,5.6176,5.6176,5.6766,5.7395,5.822,5.8282,5.8469,5.9097,5.8099,5.7128,5.7023,5.7585,5.8196,5.8271,5.8844,5.9487,5.9493,5.9493,5.9457,5.9417,5.9439,5.9439,5.9358,5.9328,5.9381,5.9293,5.9215,5.9213,5.9165,5.9136,5.9108,5.9182,5.9175,5.9093,3.5283,3.4436,3.6688,3.7019,3.6015,3.7173,3.7019,3.594,3.594,3.6739,3.816,3.95,4.0062,4.0134,4.1035,4.1646,4.1878,4.1805,4.255,4.3732,4.3776,4.4393,4.5569,4.64,4.6929,4.717,4.8199,4.8688,4.8725,4.8913,4.8988,4.8988,4.8988,4.8465,4.7571,0.0,0.0,0.0,4.5827,4.4387,4.4132,4.3584,4.3022,4.2534,4.4968,0.0,4.5584,4.6073,4.6106,4.5614,4.6384,0.0,0.0,0.0,0.0,0.0,0.0,0.0,0.0,0.0,0.0,0.0,5.0441,5.0478,5.1184,5.4224,5.5782,5.5026,5.6988,5.8341,5.8509,5.8842,5.8591,5.7355,5.6967,5.583,5.3536,5.4079,5.4163,5.2692,5.3947,5.4897,5.4633,5.4773,5.543,5.6682,5.6702,5.7137,5.8353,5.6491,5.4949,5.4798,5.5896,5.6569,5.6598,5.7676,5.8333,5.8619,5.8614,5.869,5.8897,5.9059,5.9115,5.9481,5.9515,5.9525,5.9481,5.9417,5.935,5.9312,5.9233,5.9185,5.931,5.9312,5.9293,3.4382,3.4254,3.4595,3.4702,3.4467,3.4702,3.4648,3.4467,3.4489,3.5283,3.6688,3.8109,3.8734,3.8784,3.8909,3.9573,4.0663,4.0663,4.1276,4.2431,4.2431,4.3094,4.4334,4.4509,4.5086,4.6086,4.716,4.7646,4.7686,4.8574,4.8988,4.8988,4.8988,4.8895,4.8739,4.8138,4.7226,4.5959,4.6435,4.6088,4.4998,4.3685,4.1801,3.9519,4.0861,4.0517,3.8177,4.036,4.0579,3.8177,3.9261,3.9732,3.9189,4.1412,4.2515,0.0,4.3025,0.0,0.0,0.0,0.0,0.0,0.0,0.0,0.0,4.9931,5.0532,5.0728,5.5331,5.7776,5.6497,5.8038,5.9,5.8783,5.7581,5.6633,5.6229,5.5239,5.4052,5.2489,5.3791,5.4305,5.3189,5.4101,5.5011,5.5315,5.5275,5.5349,5.554,5.5124,5.4707,5.4971,5.516,5.5088,5.5278,5.5506,5.5734,5.5696,5.5809,5.6062,5.7382,5.7719,5.8138,5.9115,5.9331,5.9469,5.9509,5.9443,5.9426,5.9463,5.9256,5.9168,5.9224,5.9155,5.9413,3.2567,3.1998,3.3578,3.3308,3.1853,3.1833,3.2293,3.3004,3.3004,3.4254,3.6378,3.6996,3.7756,3.8485,3.8485,3.8784,3.9329,3.9378,4.0011,4.1182,4.1203,4.1858,4.3077,4.3077,4.3676,4.4899,4.5355,4.5903,4.6552,4.7009,4.725,4.725,4.725,4.6621,4.5498,4.5524,4.564,4.5695,4.5525,4.4353,4.2289,4.1344,4.0063,3.8239,3.9899,3.9934,3.8117,3.9841,4.0243,3.9002,3.956,3.9711,3.9411,3.8547,3.8191,0.0,0.0,0.0,0.0,0.0,0.0,0.0,0.0,0.0,0.0,0.0,4.6812,4.7937,5.2205,5.4111,5.1959,5.415,5.584,5.6027,5.5424,5.5483,5.6628,5.5409,5.4245,5.3669,5.4255,5.4466,5.379,5.3606,5.3855,5.4767,5.4021,5.3388,5.3315,5.259,5.2075,5.2114,5.2162,5.2506,5.3494,5.4405,5.4974,5.4974,5.4974,5.5202,5.5878,5.6111,5.6301,5.6878,5.7038,5.731,5.8199,5.8349,5.8653,5.9078,5.8239,5.7107,5.6914,5.6902,5.6877,3.0892,3.0068,3.1625,3.1277,2.9648,2.9462,3.0218,3.1561,3.1561,3.2983,3.5313,3.5335,3.5982,3.7196,3.7172,3.7466,3.7982,3.8009,3.871,3.994,3.994,4.0637,4.1739,4.1739,4.2458,4.3643,4.3687,4.4262,4.5442,4.5484,4.534,4.5094,4.477,4.3776,4.2209,4.2915,4.3738,4.4614,4.3441,4.164,3.9266,3.86,3.7936,3.7143,3.8644,3.9072,3.8343,3.9039,3.9463,3.9433,3.9019,3.8845,3.8942,3.5636,0.0,0.0,0.0,0.0,0.0,0.0,0.0,0.0,0.0,3.8362,3.5503,0.0,4.2952,0.0,4.8729,5.0427,4.892,5.104,0.0,0.0,5.2954,5.3586,5.5272,5.5047,5.4723,5.4572,5.49,5.5019,5.4678,5.3569,5.3163,5.3909,5.2563,5.1492,5.1454,5.0451,4.974,4.9821,4.9892,5.0332,5.1595,5.2914,5.3607,5.3756,5.3721,5.3948,5.4329,5.4405,5.4519,5.4936,5.4974,5.5506,5.6683,5.6864,5.7259,5.8096,5.6713,5.4973,5.4912,5.4903,5.4887,3.0068,2.9728,2.7615,2.7498,2.8627,2.8043,2.8665,3.0049,3.0125,3.1004,3.2423,3.2423,3.281,3.3452,3.3503,0.0,3.6533,3.6482,3.7275,3.8635,3.8635,3.9378,4.0519,4.0567,4.1156,4.2312,4.2339,4.3004,4.4202,4.4246,4.3771,4.2829,4.1636,4.0927,4.0758,4.0856,4.0937,4.1025,3.9806,3.856,3.738,3.6146,3.5446,3.5435,3.5522,3.5598,3.5549,3.5598,3.5636,3.5554,3.3815,3.312,3.3714,0.0,0.0,0.0,0.0,0.0,0.0,0.0,0.0,0.0,0.0,0.0,0.0,0.0,0.0,0.0,4.5166,0.0,4.9684,5.0474,0.0,0.0,0.0,5.1193,5.1692,5.4157,5.5501,5.4569,0.0,0.0,5.4779,5.4506,5.3867,5.2334,5.079,4.9777,4.9735,4.9706,4.9602,4.9602,4.9577,4.9657,4.9981,5.0124,5.0341,5.0484,5.0152,5.0888,5.2317,5.2696,5.338,5.4519,5.4974,5.5012,5.5126,5.5126,5.524,5.5354,5.5088,5.4898,5.4746,5.4708,5.4671,2.758,2.7521,2.6113,2.5944,2.651,2.6287,2.7089,2.855,2.8511,2.9146,3.0228,3.1024,3.1255,3.1131,3.2476,0.0,0.0,0.0,3.5836,3.7173,3.7224,3.7934,3.9205,3.9279,3.9914,4.1135,4.1135,4.1765,4.2986,4.2959,4.1401,3.8401,0.0,0.0,3.7655,3.8199,3.8873,3.9581,3.8422,3.7233,3.6207,3.4943,3.3945,3.337,3.4536,3.486,3.4261,3.4848,3.4384,3.2695,3.2266,3.1416,0.0,0.0,0.0,0.0,0.0,0.0,0.0,0.0,0.0,0.0,0.0,2.9803,2.8679,0.0,0.0,0.0,3.7339,3.9232,4.0576,4.4533,0.0,0.0,0.0,0.0,0.0,0.0,0.0,5.6033,5.5531,5.5031,5.5394,5.4841,5.4125,5.3397,5.1892,5.086,5.086,0.0,4.9447,4.9459,4.9539,4.9588,4.9588,4.9366,4.9285,4.9602,4.9655,4.9976,5.0618,5.0803,5.1084,5.1658,5.1934,5.2279,5.3266,5.2658,5.1937,5.1937,5.1937,5.1937,5.1975,5.1975,5.1975,2.3297,0.0,0.0,0.0,0.0,2.4458,2.5507,2.6914,2.6931,2.726,2.7977,2.8875,0.0,0.0,0.0,0.0,0.0,0.0,3.3814,3.5397,3.6056,3.6917,3.7857,3.8284,3.8983,3.9842,3.9868,4.0361,4.1142,3.9624,3.7109,3.3789,0.0,0.0,0.0,0.0,3.6081,3.6896,3.6488,3.5664,3.4582,3.3342,3.2473,3.2091,3.3183,3.3294,3.2234,3.2395,3.1615,2.9596,2.9001,0.0,0.0,0.0,0.0,0.0,0.0,0.0,0.0,0.0,0.0,0.0,0.0,0.0,0.0,0.0,0.0,0.0,0.0,0.0,3.4785,3.9864,4.3076,0.0,0.0,0.0,0.0,0.0,0.0,0.0,0.0,0.0,5.4173,5.329,5.2581,0.0,0.0,5.0969,5.0823,4.9877,4.9169,4.914,4.9145,0.0,4.9205,4.896,4.8889,4.9211,4.9321,4.957,5.0174,4.9993,4.9856,5.0482,5.0172,5.0263,5.1364,5.0721,5.0039,4.9963,4.9963,4.9963,4.9963,4.9963,5.0001,0.0,0.0,0.0,0.0,0.0,0.0,0.0,0.0,2.5346,2.5373,0.0,2.5485,0.0,0.0,0.0,0.0,0.0,2.9514,0.0,0.0,3.53,3.6355,3.6487,3.7735,3.846,3.8535,3.8437,3.8583,3.8607,3.3516,0.0,0.0,0.0,0.0,0.0,0.0,3.2051,3.2209,3.3306,3.3324,3.2213,3.1074,3.0965,3.1948,3.1027,2.9975,2.8793,2.7305,2.6342,2.613,2.2818,0.0,0.0,0.0,0.0,0.0,0.0,0.0,0.0,0.0,0.0,0.0,0.0,0.0,0.0,0.0,0.0,0.0,0.0,0.0,0.0,3.7909,0.0,0.0,0.0,0.0,0.0,0.0,0.0,0.0,0.0,0.0,5.0519,4.9401,4.8657,4.8495,0.0,0.0,0.0,0.0,4.864,4.8603,4.8422,4.8224,4.8201,4.8211,4.8281,4.8542,0.0,0.0,5.1626,5.0633,5.0078,5.1828,5.0747,4.9806,4.9768,4.9724,4.9773,4.9849,4.9887,4.9963,4.9963,5.0001,5.0039,0.0,0.0,0.0,0.0,0.0,0.0,0.0,0.0,0.0,2.3542,0.0,2.4078,0.0,0.0,0.0,0.0,0.0,0.0,0.0,0.0,3.1998,3.2715,3.2607,3.3675,3.3622,0.0,3.2541,3.2493,0.0,0.0,0.0,0.0,0.0,0.0,0.0,0.0,2.9724,2.9747,3.0148,3.0189,2.9782,2.941,2.9366,2.9782,2.9366,2.8265,2.6216,2.5592,2.4156,0.0,0.0,0.0,0.0,0.0,0.0,0.0,0.0,0.0,0.0,0.0,0.0,0.0,0.0,0.0,0.0,0.0,0.0,0.0,0.0,0.0,0.0,0.0,3.6259,0.0,0.0,0.0,0.0,0.0,0.0,0.0,0.0,0.0,4.8516,4.7451,4.7077,4.8082,4.8418,4.8484,4.8381,0.0,0.0,0.0,0.0,0.0,0.0,0.0,4.6399,4.6635,4.7429,4.8789,5.1067,4.9507,4.8824,5.1533,0.0,0.0,4.6497,4.5605,4.5584,4.7736,4.9017,4.9734,4.9696,5.0558,5.1044,0.0,0.0,0.0,0.0,0.0,0.0,0.0,0.0,0.0,2.0507,2.0698,0.0,0.0,0.0,0.0,0.0,0.0,0.0,0.0,0.0,0.0,0.0,2.9213,3.0687,0.0,0.0,0.0,0.0,0.0,0.0,0.0,0.0,0.0,0.0,0.0,0.0,2.7989,2.7989,2.8369,2.8592,2.857,2.8213,2.8168,2.8526,2.783,2.6372,2.4337,0.0,0.0,0.0,0.0,0.0,0.0,0.0,0.0,0.0,0.0,0.0,0.0,0.0,0.0,0.0,0.0,0.0,0.0,0.0,0.0,0.0,0.0,0.0,0.0,0.0,3.4474,0.0,0.0,0.0,0.0,0.0,0.0,0.0,0.0,0.0,0.0,0.0,4.6692,4.7687,4.8043,4.8173,4.8029,4.759,4.6822,0.0,0.0,0.0,0.0,0.0,0.0,0.0,0.0,0.0,0.0,0.0,0.0,0.0,0.0,4.3302,4.3713,4.2497,4.2112,4.437,0.0,0.0,0.0,0.0,0.0,0.0,0.0,0.0,0.0,0.0,0.0,0.0,0.0,0.0,0.0,0.0,0.0,0.0,1.9346,0.0,0.0,0.0,0.0,0.0,0.0,0.0,0.0,0.0,0.0,0.0,0.0,0.0,0.0,0.0,0.0,0.0,0.0,0.0,0.0,0.0,0.0,2.6763,2.683,2.7854,2.8458,2.8458,2.7402,2.7266,2.8258,2.6245,2.4431,2.3032,0.0,0.0,0.0,0.0,0.0,0.0,0.0,0.0,0.0,0.0,0.0,0.0,0.0,0.0,0.0,0.0,0.0,0.0,0.0,0.0,0.0,0.0,0.0,0.0,0.0,0.0,3.3433,3.5498,3.7742,0.0,0.0,0.0,0.0,0.0,0.0,0.0,0.0,0.0,0.0,4.7659,4.7992,4.7554,4.6222,4.5261,4.5095,4.3556,4.2329,4.2202,4.2274,4.2995,0.0,0.0,0.0,0.0,0.0,0.0,0.0,0.0,0.0,0.0,0.0,0.0,0.0,0.0,0.0,0.0,0.0,0.0,0.0,0.0,0.0,0.0,0.0,0.0,0.0,0.0,0.0,0.0,0.0,0.0,0.0,0.0,0.0,0.0,0.0,0.0,0.0,0.0,0.0,0.0,0.0,0.0,0.0,0.0,0.0,0.0,0.0,0.0,0.0,0.0,0.0,0.0,0.0,0.0,2.5592,2.5612,2.5919,2.6105,2.6132,2.5779,2.5273,2.4642,2.3988,2.259,0.0,0.0,0.0,0.0,0.0,0.0,0.0,0.0,0.0,0.0,0.0,0.0,0.0,0.0,0.0,0.0,0.0,0.0,0.0,0.0,0.0,0.0,0.0,0.0,0.0,0.0,0.0,0.0,3.3681,3.558,3.8577,0.0,0.0,0.0,0.0,0.0,0.0,0.0,0.0,0.0,0.0,4.6173,4.5049,4.4499,4.3545,4.1745,4.1574,4.0958,3.886,3.9692,4.0729,4.1004,0.0,0.0,0.0,0.0,0.0,0.0,0.0,0.0,0.0,0.0,0.0,0.0,0.0,0.0,0.0,0.0,0.0,0.0,0.0,0.0,0.0,0.0,0.0,0.0,0.0,0.0,0.0,0.0,0.0,0.0,0.0,0.0,0.0,0.0,0.0,0.0,0.0,0.0,0.0,0.0,0.0,0.0,0.0,0.0,0.0,0.0,0.0,0.0,0.0,0.0,0.0,0.0,0.0,2.5361,2.5105,2.4843,2.4602,2.427,2.3774,2.3114,2.224,2.2192,2.0824,0.0,0.0,0.0,0.0,0.0,0.0,0.0,0.0,0.0,0.0,0.0,0.0,0.0,0.0,0.0,0.0,0.0,0.0,0.0,0.0,0.0,0.0,0.0,0.0,0.0,0.0,0.0,0.0,3.1166,3.2684,3.5361,0.0,0.0,0.0,0.0,0.0,0.0,0.0,0.0,0.0,0.0,4.4503,4.385,4.2581,0.0,0.0,3.9584,3.8806,3.7165,3.7959,3.8835,3.9232,4.0477,0.0,0.0,0.0,0.0,0.0,0.0,0.0,0.0,0.0,0.0,0.0,0.0,0.0,0.0,0.0,0.0,0.0,0.0,0.0,0.0,0.0,0.0,0.0,0.0,0.0,0.0,0.0,0.0,0.0,0.0,0.0,0.0,0.0,0.0,0.0,0.0,0.0,0.0,0.0,0.0,0.0,0.0,0.0,0.0,0.0,0.0,0.0,0.0,0.0,0.0,0.0,0.0,0.0,2.4839,2.4417,2.3769,2.2855,2.1656,2.0905,2.0887,2.0773,1.904,0.0,0.0,0.0,0.0,0.0,0.0,0.0,0.0,0.0,0.0,0.0,0.0,0.0,0.0,0.0,0.0,0.0,0.0,0.0,0.0,0.0,0.0,0.0,0.0,0.0,0.0,0.0,0.0,0.0,0.0,0.0,0.0,0.0,0.0,0.0,0.0,0.0,0.0,0.0,0.0,0.0,4.3019,4.3355,4.0673,3.8939,0.0,0.0,3.6584,3.7149,3.7198,3.767,3.9197,0.0,0.0,0.0,0.0,0.0,0.0,0.0,0.0,0.0,0.0,0.0,0.0,0.0,0.0,0.0,0.0,0.0,0.0,0.0,0.0,0.0,0.0,0.0,0.0,0.0,0.0,0.0,0.0,0.0,0.0,0.0,0.0,0.0,0.0,0.0,0.0,0.0,0.0,0.0,0.0,0.0,0.0,0.0,0.0,0.0,0.0,0.0,0.0,0.0,0.0,0.0,0.0,0.0,0.0,2.208,2.2835,2.2688,2.1509,2.1166,2.0526,1.9563,1.8516,0.0,0.0,0.0,0.0,0.0,0.0,0.0,0.0,0.0,0.0,0.0,0.0,0.0,0.0,0.0,0.0,0.0,0.0,0.0,0.0,0.0,0.0,0.0,0.0,0.0,0.0,0.0,2.5263,0.0,0.0,0.0,0.0,0.0,0.0,0.0,0.0,0.0,0.0,0.0,0.0,0.0,0.0,4.2069,4.0467,4.005,3.9813,0.0,0.0,3.9461,3.966,3.9373,3.9635,0.0,0.0,0.0,0.0,0.0,0.0,0.0,0.0,0.0,0.0,0.0,0.0,0.0,0.0,0.0,0.0,0.0,0.0,0.0,0.0,0.0,0.0,0.0,0.0,0.0,0.0,0.0,0.0,0.0,0.0,0.0,0.0,0.0,0.0,0.0,0.0,0.0,0.0,0.0,0.0,0.0,0.0,0.0,0.0,0.0,0.0,0.0,0.0,0.0,0.0,0.0,0.0,0.0,0.0,2.2119,2.11,2.1573,2.1274,2.0161,1.9613,1.8659,1.7291,1.6512,1.4752,0.0,0.0,0.0,0.0,0.0,0.0,0.0,0.0,0.0,0.0,0.0,0.0,0.0,0.0,0.0,0.0,0.0,0.0,0.0,0.0,0.0,0.0,0.0,0.0,0.0,0.0,0.0,0.0,0.0,0.0,0.0,0.0,0.0,0.0,0.0,0.0,0.0,0.0,0.0,0.0,0.0,0.0,3.9758,3.9345,0.0,0.0,0.0,3.905,3.8739,0.0,0.0,0.0,0.0,0.0,0.0,0.0,0.0,0.0,0.0,0.0,0.0,0.0,0.0,0.0,0.0,0.0,0.0,0.0,0.0,0.0,0.0,0.0,0.0,0.0,0.0,0.0,0.0,0.0,0.0,0.0,0.0,0.0,0.0,0.0,0.0,0.0,0.0,0.0,0.0,0.0,0.0,0.0,0.0,0.0,0.0,0.0,0.0,0.0,0.0,0.0,0.0,0.0,0.0,0.0,0.0,0.0,2.0539,2.035,1.9798,1.8817,1.7701,1.6433,1.5013,1.48,1.3369,0.0,0.0,0.0,0.0,0.0,0.0,0.0,0.0,0.0,0.0,0.0,0.0,0.0,0.0,0.0,0.0,0.0,0.0,0.0,0.0,0.0,0.0,0.0,0.0,0.0,0.0,0.0,0.0,0.0,0.0,0.0,0.0,0.0,0.0,0.0,0.0,0.0,0.0,0.0,0.0,0.0,3.8873,4.0011,3.8691,3.7764,0.0,0.0,3.7585,3.6608,3.8249,0.0,0.0,0.0,0.0,0.0,0.0,0.0,0.0,0.0,0.0,0.0,0.0,0.0,0.0,0.0,0.0,0.0,0.0,0.0,0.0,0.0,0.0,0.0,0.0,0.0,0.0,0.0,0.0,0.0,0.0,0.0,0.0,0.0,0.0,0.0,0.0,0.0,0.0,0.0,0.0,0.0,0.0,0.0,0.0,0.0,0.0,0.0,0.0,0.0,0.0,0.0,0.0,0.0,0.0,0.0,0.0,1.802,1.8867,1.8765,1.7575,1.7217,1.6433,1.5013,1.3639,1.2057,0.0,0.0,0.0,0.0,0.0,0.0,0.0,0.0,0.0,0.0,0.0,0.0,0.0,0.0,0.0,0.0,0.0,0.0,0.0,0.0,0.0,0.0,0.0,0.0,0.0,0.0,0.0,0.0,0.0,0.0,0.0,0.0,0.0,0.0,0.0,0.0,0.0,0.0,0.0,0.0,0.0,3.9216,3.879,3.8046,0.0,0.0,0.0,0.0,3.8628,4.034,0.0,0.0,0.0,0.0,0.0,0.0,0.0,0.0,0.0,0.0,0.0,0.0,0.0,0.0,0.0,0.0,0.0,0.0,0.0,0.0,0.0,0.0,0.0,0.0,0.0,0.0,0.0,0.0,0.0,0.0,0.0,0.0,0.0,0.0,0.0,0.0,0.0,0.0,0.0,0.0,0.0,0.0,0.0,0.0,0.0,0.0,0.0,0.0,0.0,0.0,0.0,0.0,0.0,0.0,0.0,0.0,1.7166,1.7766,1.7817,1.7114,1.7063,1.6124,1.4001,1.2987,1.1359,0.0,0.0,0.0,0.0,0.0,0.0,0.0,0.0,0.0,0.0,0.0,0.0,0.0,0.0,0.0,0.0,0.0,0.0,0.0,0.0,0.0,0.0,0.0,0.0,0.0,0.0,0.0,0.0,0.0,0.0,0.0,0.0,0.0,0.0,0.0,0.0,0.0,0.0,0.0,0.0,3.9917,3.9789,3.9031,0.0,0.0,0.0,0.0,0.0,0.0,3.9964,4.1625,0.0,0.0,0.0,0.0,0.0,0.0,0.0,0.0,0.0,0.0,0.0,0.0,0.0,0.0,0.0,0.0,0.0,0.0,0.0,0.0,0.0,0.0,0.0,0.0,0.0,0.0,0.0,0.0,0.0,0.0,0.0,0.0,0.0,0.0,0.0,0.0,0.0,0.0,0.0,0.0,0.0,0.0,0.0,0.0,0.0,0.0,0.0,0.0,0.0,0.0,0.0,0.0,0.0,0.0,0.0,1.7063,1.7063,1.7063,1.7063,1.6909,1.5496,1.2898,1.228,1.0679,0.787,0.0,0.0,0.0,0.0,0.0,0.0,0.0,0.0,0.0,0.0,0.0,0.0,0.0,0.0,0.0,0.0,0.0,0.0,0.0,0.0,0.0,0.0,0.0,0.0,0.0,0.0,0.0,0.0,0.0,0.0,0.0,0.0,0.0,0.0,0.0,0.0,0.0,0.0,0.0,4.0356,4.0498,0.0,0.0,0.0,0.0,0.0,0.0,0.0,0.0,4.0683,0.0,0.0,0.0,0.0,0.0,0.0,0.0,0.0,0.0,0.0,0.0,0.0,0.0,0.0,0.0,0.0,0.0,0.0,0.0,0.0,0.0,0.0,0.0,0.0,0.0,0.0,0.0,0.0,0.0,0.0,0.0,0.0,0.0,0.0,0.0,0.0,0.0,0.0,0.0,0.0,0.0,0.0,0.0,0.0,0.0,0.0,0.0,0.0,0.0,0.0,0.0,0.0,0.0,0.0,0.0,0.0,1.7063,1.7063,1.7063,1.5905,1.4437,1.2563,1.1053,0.9386,0.7529,0.0,0.0,0.0,0.0,0.0,0.0,0.0,0.0,0.0,0.0,0.0,0.0,0.0,0.0,0.0,0.0,0.0,0.0,0.0,0.0,0.0,0.0,0.0,0.0,0.0,0.0,0.0,0.0,0.0,0.0,0.0,0.0,0.0,0.0,0.0,0.0,0.0,0.0,4.0824,4.1427,0.0,0.0,0.0,0.0,0.0,0.0,0.0,0.0,3.6563,0.0,0.0,0.0,0.0,0.0,0.0,0.0,0.0,0.0,0.0,0.0,0.0,0.0,0.0,0.0,0.0,0.0,0.0,0.0,0.0,0.0,0.0,0.0,0.0,0.0,0.0,0.0,0.0,0.0,0.0,0.0,0.0,0.0,0.0,0.0,0.0,0.0,0.0,0.0,0.0,0.0,0.0,0.0,0.0,0.0,0.0,0.0,0.0,0.0,0.0,0.0,0.0,0.0,0.0,0.0,0.0,0.0,0.0,1.7063,1.7063,1.5698,1.4147,1.2453,0.9952,0.8126,0.0,0.0,0.0,0.0,0.0,0.0,0.0,0.0,0.0,0.0,0.0,0.0,0.0,0.0,0.0,0.0,0.0,0.0,0.0,0.0,0.0,0.0,0.0,0.0,0.0,0.0,0.0,0.0,0.0,0.0,0.0,0.0,0.0,0.0,0.0,0.0,0.0,0.0,0.0,0.0,0.0,0.0,0.0,0.0,0.0,0.0,0.0,0.0,0.0,0.0,0.0,0.0,0.0,0.0,0.0,0.0,0.0,0.0,0.0,0.0,0.0,0.0,0.0,0.0,0.0,0.0,0.0,0.0,0.0,0.0,0.0,0.0,0.0,0.0,0.0,0.0,0.0,0.0,0.0,0.0,0.0,0.0,0.0,0.0,0.0,0.0,0.0,0.0,0.0,0.0,0.0,0.0,0.0,0.0,0.0,0.0,0.0,0.0,0.0,0.0,0.0,0.0,0.0,0.0,0.0,0.0,0.0,0.0,1.7244,1.7127,1.5373,1.3791,1.2362,0.9133,0.7284,0.0,0.0,0.0,0.0,0.0,0.0,0.0,0.0,0.0,0.0,0.0,0.0,0.0,0.0,0.0,0.0,0.0,0.0,0.0,0.0,0.0,0.0,0.0,0.0,0.0,0.0,0.0,0.0,0.0,0.0,0.0,0.0,0.0,0.0,0.0,0.0,0.0,0.0,0.0,0.0,0.0,0.0,0.0,0.0,0.0,0.0,0.0,0.0,3.5723,0.0,0.0,0.0,0.0,0.0,0.0,0.0,0.0,0.0,0.0,0.0,0.0,0.0,0.0,0.0,0.0,0.0,0.0,0.0,0.0,0.0,0.0,0.0,0.0,0.0,0.0,0.0,0.0,0.0,0.0,0.0,0.0,0.0,0.0,0.0,0.0,0.0,0.0,0.0,0.0,0.0,0.0,0.0,0.0,0.0,0.0,0.0,0.0,0.0,0.0,0.0,0.0,0.0,0.0,0.0,0.0,0.0,0.0,0.0,1.7581,1.7076,1.4265,1.251,1.2006,0.9006,0.7284,0.0,0.0,0.0,0.0,0.0,0.0,0.0,0.0,0.0,0.0,0.0,0.0,0.0,0.0,0.0,0.0,0.0,0.0,0.0,0.0,0.0,0.0,0.0,0.0,0.0,0.0,0.0,0.0,0.0,0.0,0.0,0.0,0.0,0.0,0.0,0.0,0.0,0.0,0.0,0.0,0.0,0.0,0.0,0.0,0.0,0.0,0.0,0.0,0.0,0.0,0.0,0.0,0.0,0.0,0.0,0.0,0.0,0.0,0.0,0.0,0.0,0.0,0.0,0.0,0.0,0.0,0.0,0.0,0.0,0.0,0.0,0.0,0.0,0.0,0.0,0.0,0.0,0.0,0.0,0.0,0.0,0.0,0.0,0.0,0.0,0.0,0.0,0.0,0.0,0.0,0.0,0.0,0.0,0.0,0.0,0.0,0.0,0.0,0.0,0.0,0.0,0.0,0.0,0.0,0.0,0.0,0.0,0.0,1.4849,1.4649,1.2387,1.1181,1.1058,0.8507,0.7118,0.0,0.0,0.0,0.0,0.0,0.0,0.0,0.0,0.0,0.0,0.0,0.0,0.0,0.0,0.0,0.0,0.0,0.0,0.0,0.0,0.0,0.0,0.0,0.0,0.0,0.0,0.0,0.0,0.0,0.0,0.0,0.0,0.0,0.0,0.0,0.0,0.0,0.0,0.0,0.0,0.0,0.0,0.0,0.0,0.0,0.0,0.0,0.0,0.0,0.0,0.0,0.0,0.0,0.0,0.0,0.0,0.0,0.0,0.0,0.0,0.0,0.0,0.0,0.0,0.0,0.0,0.0,0.0,0.0,0.0,0.0,0.0,0.0,0.0,0.0,0.0,0.0,0.0,0.0,0.0,0.0,0.0,0.0,0.0,0.0,0.0,0.0,0.0,0.0,0.0,0.0,0.0,0.0,0.0,0.0,0.0,0.0,0.0,0.0,0.0,0.0,0.0,0.0,0.0,0.0,0.0,0.0,0.0,0.0,1.288,1.076,0.9432,0.9038,0.7728,0.6826,0.0,0.0,0.0,0.0,0.0,0.0,0.0,0.0,0.0,0.0,0.0,0.0,0.0,0.0,0.0,0.0,0.0,0.0,0.0,0.0,0.0,0.0,0.0,0.0,0.0,0.0,0.0,0.0,0.0,0.0,0.0,0.0,0.0,0.0,0.0,0.0,0.0,0.0,0.0,0.0,0.0,0.0,0.0,0.0,0.0,0.0,0.0,0.0,0.0,0.0,0.0,0.0,0.0,0.0,0.0,0.0,0.0,0.0,0.0,0.0,0.0,0.0,0.0,0.0,0.0,0.0,0.0,0.0,0.0,0.0,0.0,0.0,0.0,0.0,0.0,0.0,0.0,0.0,0.0,0.0,0.0,0.0,0.0,0.0,0.0,0.0,0.0,0.0,0.0,0.0,0.0,0.0,0.0,0.0,0.0,0.0,0.0,0.0,0.0,0.0,0.0,0.0,0.0,0.0,0.0,0.0,0.0,0.0,0.0,1.3391,0.9551,0.7047,0.6072,0.6686,0.6389,0.0,0.0,0.0,0.0,0.0,0.0,0.0,0.0,0.0,0.0,0.0,0.0,0.0,0.0,0.0,0.0,0.0,0.0,0.0,0.0,0.0,0.0,0.0,0.0,0.0,0.0,0.0,0.0,0.0,0.0,0.0,0.0,0.0,0.0,0.0,0.0,0.0,0.0,0.0,0.0,0.0,0.0,0.0,0.0,0.0,0.0,0.0,0.0,0.0,0.0,0.0,0.0,0.0,0.0,0.0,0.0,0.0,0.0,0.0,0.0,0.0,0.0,0.0,0.0,0.0,0.0,0.0,0.0,0.0,0.0,0.0,0.0,0.0,0.0,0.0,0.0,0.0,0.0,0.0,0.0,0.0,0.0,0.0,0.0,0.0,0.0,0.0,0.0,0.0,0.0,0.0,0.0,0.0,0.0,0.0,0.0,0.0,0.0,0.0,0.0,0.0,0.0,0.0,0.0,0.0,0.0,0.0,0.0,0.0,1.0875,0.9317,0.8217,0.7616,0.7503,0.697,0.5821,0.0,0.0,0.0,0.0,0.0,0.0,0.0,0.0,0.0,0.0,0.0,0.0,0.0,0.0,0.0,0.0,0.0,0.0,0.0,0.0,0.0,0.0,0.0,0.0,0.0,0.0,0.0,0.0,0.0,0.0,0.0,0.0,0.0,0.0,0.0,0.0,0.0,0.0,0.0,0.0,0.0,0.0,0.0,0.0,0.0,0.0,0.0,0.0,0.0,0.0,0.0,0.0,0.0,0.0,0.0,0.0,0.0,0.0,0.0,0.0,0.0,0.0,0.0,0.0,0.0,0.0,0.0,0.0,0.0,0.0,0.0,0.0,0.0,0.0,0.0,0.0,0.0,0.0,0.0,0.0,0.0,0.0,0.0,0.0,0.0,0.0,0.0,0.0,0.0,0.0,0.0,0.0,0.0,0.0,0.0,0.0,0.0,0.0,0.0,0.0,0.0,0.0,0.0,0.0,0.0,0.0,0.0,0.0,0.9031,0.8361,0.7911,0.7781,0.7427,0.6854,0.0,0.0,0.0,0.0,0.0,0.0,0.0,0.0,0.0,0.0,0.0,0.0,0.0,0.0,0.0,0.0,0.0,0.0,0.0,0.0,0.0,0.0,0.0,0.0,0.0,0.0,0.0,0.0,0.0,0.0,0.0,0.0,0.0,0.0,0.0,0.0,0.0,0.0,0.0,0.0,0.0,0.0,0.0,0.0,0.0,0.0,0.0,0.0,0.0,0.0,0.0,0.0,0.0,0.0,0.0,0.0,0.0,0.0,0.0,0.0,0.0,0.0,0.0,0.0,0.0,0.0,0.0,0.0,0.0,0.0,0.0,0.0,0.0,0.0,0.0,0.0,0.0,0.0,0.0,0.0,0.0,0.0,0.0,0.0,0.0,0.0,0.0,0.0,0.0,0.0,0.0,0.0,0.0,0.0,0.0,0.0,0.0,0.0,0.0,0.0,0.0,0.0,0.0,0.0,0.0,0.0,0.0,0.0,0.9356,0.8146,0.6336,0.5606,0.5692,0.6051,0.5802,0.0,0.0,0.0,0.0,0.0,0.0,0.0,0.0,0.0,0.0,0.0,0.0,0.0,0.0,0.0,0.0,0.0,0.0,0.0,0.0,0.0,0.0,0.0,0.0,0.0,0.0,0.0,0.0,0.0,0.0,0.0,0.0,0.0,0.0,0.0,0.0,0.0,0.0,0.0,0.0,0.0,0.0,0.0,0.0,0.0,0.0,0.0,0.0,0.0,0.0,0.0,0.0,0.0,0.0,0.0,0.0,0.0,0.0,0.0,0.0,0.0,0.0,0.0,0.0,0.0,0.0,0.0,0.0,0.0,0.0,0.0,0.0,0.0,0.0,0.0,0.0,0.0,0.0,0.0,0.0,0.0,0.0,0.0,0.0,0.0,0.0,0.0,0.0,0.0,0.0,0.0,0.0,0.0,0.0,0.0,0.0,0.0,0.0,0.0,0.0,0.0,0.0,0.0,0.0,0.0,0.0,0.0,0.0,0.0,0.7948,0.0,0.646,0.0,0.6987,0.6684,0.0,0.0,0.0,0.0,0.0,0.0,0.0,0.0,0.0,0.0,0.0,0.0,0.0,0.0,0.0,0.0,0.0,0.0,0.0,0.0,0.0,0.0,0.0,0.0,0.0,0.0,0.0,0.0,0.0,0.0,0.0,0.0,0.0,0.0,0.0,0.0,0.0,0.0,0.0,0.0,0.0,0.0,0.0,0.0,0.0,0.0,0.0,0.0,0.0,0.0,0.0,0.0,0.0,0.0,0.0,0.0,0.0,0.0,0.0,0.0,0.0,0.0,0.0,0.0,0.0,0.0,0.0,0.0,0.0,0.0,0.0,0.0,0.0,0.0,0.0,0.0,0.0,0.0,0.0,0.0,0.0,0.0,0.0,0.0,0.0,0.0,0.0,0.0,0.0,0.0,0.0,0.0,0.0,0.0,0.0,0.0,0.0,0.0,0.0,0.0,0.0,0.0,0.0,0.0,0.0,0.0,0.0,0.0,0.0,0.6609,0.6801,0.7115,0.7394,0.7652,0.7111,0.0,0.0,0.0,0.0,0.0,0.0,0.0,0.0,0.0,0.0,0.0,0.0,0.0,0.0,0.0,0.0,0.0,0.0,0.0,0.0,0.0,0.0,0.0,0.0,0.0,0.0,0.0,0.0,0.0,0.0,0.0,0.0,0.0,0.0,0.0,0.0,0.0,0.0,0.0,0.0,0.0,0.0,0.0,0.0,0.0,0.0,0.0,0.0,0.0,0.0,0.0,0.0,0.0,0.0,0.0,0.0,0.0,0.0,0.0,0.0,0.0,0.0,0.0,0.0,0.0,0.0,0.0,0.0,0.0,0.0,0.0,0.0,0.0,0.0,0.0,0.0,0.0,0.0,0.0,0.0,0.0,0.0,0.0,0.0,0.0,0.0,0.0,0.0,0.0,0.0,0.0,0.0,0.0,0.0,0.0,0.0,0.0,0.0,0.0,0.0,0.0,0.0,0.0,0.0,0.0,0.0,0.0,0.0,0.0,0.0,0.6163,0.7339,0.8048,0.7856,0.7047,0.0,0.0,0.0,0.0,0.0,0.0,0.0,0.0,0.0,0.0,0.0,0.0,0.0,0.0,0.0,0.0,0.0,0.0,0.0,0.0,0.0,0.0,0.0,0.0,0.0,0.0,0.0,0.0,0.0,0.0,0.0,0.0,0.0,0.0,0.0,0.0,0.0,0.0,0.0,0.0,0.0,0.0,0.0,0.0,0.0,0.0,0.0,0.0,0.0,0.0,0.0,0.0,0.0,0.0,0.0,0.0,0.0,0.0,0.0,0.0,0.0,0.0,0.0,0.0,0.0,0.0,0.0,0.0,0.0,0.0,0.0,0.0,0.0,0.0,0.0,0.0,0.0,0.0,0.0,0.0,0.0,0.0,0.0,0.0,0.0,0.0,0.0,0.0,0.0,0.0,0.0,0.0,0.0,0.0,0.0,0.0,0.0,0.0,0.0,0.0,0.0,0.0,0.0,0.0,0.0,0.0,0.0,0.0,0.0,0.0,0.7097,0.0,0.7256,0.6785,0.6059,0.5109,0.0,0.0,0.0,0.0,0.0,0.0,0.0,0.0,0.0,0.0,0.0,0.0,0.0,0.0,0.0,0.0,0.0,0.0,0.0,0.0,0.0,0.0,0.0,0.0,0.0,0.0,0.0,0.0,0.0,0.0,0.0,0.0,0.0,0.0,0.0,0.0,0.0,0.0,0.0,0.0,0.0,0.0,0.0,0.0,0.0,0.0,0.0,0.0,0.0,0.0,0.0,0.0,0.0,0.0,0.0,0.0,0.0,0.0,0.0,0.0,0.0,0.0,0.0,0.0,0.0,0.0,0.0,0.0,0.0,0.0,0.0,0.0,0.0,0.0,0.0,0.0,0.0,0.0,0.0,0.0,0.0,0.0,0.0,0.0,0.0,0.0,0.0,0.0,0.0,0.0,0.0,0.0,0.0,0.0,0.0,0.0,0.0,0.0,0.0,0.0,0.0,0.0,0.0,0.0,0.0,0.0,0.0,0.0,0.0,0.0,0.0,0.7284,0.6755,0.5554,0.0,0.0,0.0,0.0,0.0,0.0,0.0,0.0,0.0,0.0,0.0,0.0,0.0,0.0,0.0,0.0,0.0,0.0,0.0,0.0,0.0,0.0,0.0,0.0,0.0,0.0,0.0,0.0,0.0,0.0,0.0,0.0,0.0,0.0,0.0,0.0,0.0,0.0,0.0,0.0,0.0,0.0,0.0,0.0,0.0,0.0,0.0,0.0,0.0,0.0,0.0,0.0,0.0,0.0,0.0,0.0,0.0,0.0,0.0,0.0,0.0,0.0,0.0,0.0,0.0,0.0,0.0,0.0,0.0,0.0,0.0,0.0,0.0,0.0,0.0,0.0,0.0,0.0,0.0,0.0,0.0,0.0,0.0,0.0,0.0,0.0,0.0,0.0,0.0,0.0,0.0,0.0,0.0,0.0,0.0,0.0,0.0,0.0,0.0,0.0,0.0,0.0,0.0,0.0,0.0,0.0,0.0,0.0,0.0,0.0,0.0,0.7745,0.7753,0.7095,0.0,0.2124,0.0,0.0,0.0,0.0,0.0,0.0,0.0,0.0,0.0,0.0,0.0,0.0,0.0,0.0,0.0,0.0,0.0,0.0,0.0,0.0,0.0,0.0,0.0,0.0,0.0,0.0,0.0,0.0,0.0,0.0,0.0,0.0,0.0,0.0,0.0,0.0,0.0,0.0,0.0,0.0,0.0,0.0,0.0,0.0,0.0,0.0,0.0,0.0,0.0,0.0,0.0,0.0,0.0,0.0,0.0,0.0,0.0,0.0,0.0,0.0,0.0,0.0,0.0,0.0,0.0,0.0,0.0,0.0,0.0,0.0,0.0,0.0,0.0,0.0,0.0,0.0,0.0,0.0,0.0,0.0,0.0,0.0,0.0,0.0,0.0,0.0,0.0,0.0,0.0,0.0,0.0,0.0,0.0,0.0,0.0,0.0,0.0,0.0,0.0,0.0,0.0,0.0,0.0,0.0,0.0,0.0,0.0,0.0,0.0,0.0,0.0,0.0,0.6231,0.4369,0.243,0.0,0.0,0.0,0.0,0.0,0.0,0.0,0.0,0.0,0.0,0.0,0.0,0.0,0.0,0.0,0.0,0.0,0.0,0.0,0.0,0.0,0.0,0.0,0.0,0.0,0.0,0.0,0.0,0.0,0.0,0.0,0.0,0.0,0.0,0.0,0.0,0.0,0.0,0.0,0.0,0.0,0.0,0.0,0.0,0.0,0.0,0.0,0.0,0.0,0.0,0.0,0.0,0.0,0.0,0.0,0.0,0.0,0.0,0.0,0.0,0.0,0.0,0.0,0.0,0.0,0.0,0.0,0.0,0.0,0.0,0.0,0.0,0.0,0.0,0.0,0.0,0.0,0.0,0.0,0.0,0.0,0.0,0.0,0.0,0.0,0.0,0.0,0.0,0.0,0.0,0.0,0.0,0.0,0.0,0.0,0.0,0.0,0.0,0.0,0.0,0.0,0.0,0.0,0.0,0.0,0.0,0.0,0.0,0.0,0.0,0.6468,0.6602,0.4791,0.3355,0.2497,0.0,0.0,0.0,0.0,0.0,0.0,0.0,0.0,0.0,0.0,0.0,0.0,0.0,0.0,0.0,0.0,0.0,0.0,0.0,0.0,0.0,0.0,0.0,0.0,0.0,0.0,0.0,0.0,0.0,0.0,0.0,0.0,0.0,0.0,0.0,0.0,0.0,0.0,0.0,0.0,0.0,0.0,0.0,0.0,0.0,0.0,0.0,0.0,0.0,0.0,0.0,0.0,0.0,0.0,0.0,0.0,0.0,0.0,0.0,0.0,0.0,0.0,0.0,0.0,0.0,0.0,0.0,0.0,0.0,0.0,0.0,0.0,0.0,0.0,0.0,0.0,0.0,0.0,0.0,0.0,0.0,0.0,0.0,0.0,0.0,0.0,0.0,0.0,0.0,0.0,0.0,0.0,0.0,0.0,0.0,0.0,0.0,0.0,0.0,0.0,0.0,0.0,0.0,0.0,0.0,0.0,0.0,0.0,0.0,0.0,0.0,0.0,0.0,0.0,0.2174,0.0,0.0,0.0,0.0,0.0,0.0,0.0,0.0,0.0,0.0,0.0,0.0,0.0,0.0,0.0,0.0,0.0,0.0,0.0,0.0,0.0,0.0,0.0,0.0,0.0,0.0,0.0,0.0,0.0,0.0,0.0,0.0,0.0,0.0,0.0,0.0,0.0,0.0,0.0,0.0,0.0,0.0,0.0,0.0,0.0,0.0,0.0,0.0,0.0,0.0,0.0,0.0,0.0,0.0,0.0,0.0,0.0,0.0,0.0,0.0,0.0,0.0,0.0,0.0,0.0,0.0,0.0,0.0,0.0,0.0,0.0,0.0,0.0,0.0,0.0,0.0,0.0,0.0,0.0,0.0,0.0,0.0,0.0,0.0,0.0,0.0,0.0,0.0,0.0,0.0,0.0,0.0,0.0,0.0,0.0,0.0,0.0,0.0,0.0,0.0,0.0,0.0,0.0,0.0,0.0,0.0,0.0,0.0,0.0,0.0,0.0,0.0,0.0,0.0,0.0,0.0,0.0,0.0,0.0,0.0,0.0,0.0,0.0,0.0,0.0,0.0,0.0,0.0,0.0,0.0,0.0,0.0,0.0,0.0,0.0,0.0,0.0,0.0,0.0,0.0,0.0,0.0,0.0,0.0,0.0,0.0,0.0,0.0,0.0,0.0,0.0,0.0,0.0,0.0,0.0,0.0,0.0,0.0,0.0,0.0,0.0,0.0,0.0,0.0,0.0,0.0,0.0,0.0,0.0,0.0,0.0,0.0,0.0,0.0,0.0,0.0,0.0,0.0,0.0,0.0,0.0,0.0,0.0,0.0,0.0,0.0,0.0,0.0,0.0,0.0,0.0,0.0,0.0,0.0,0.0,0.0,0.0,0.0,0.0,0.0,0.0,0.0,0.0,0.0,0.0,0.0,0.0,0.0,0.0,0.0,0.0,0.0,0.0,0.0,0.0,0.0,0.0,0.0,0.0,0.0,0.0,0.0,0.0,0.0,0.0,0.0,0.0,0.0,0.0,0.0,0.0,0.0,0.0,0.0,0.0,0.0,0.0,0.0,0.0,0.0,0.0,0.0,0.0,0.0,0.0,0.0,0.0,0.0,0.0,0.0,0.0,0.0,0.0,0.0,0.0,0.0,0.0,0.0,0.0,0.0,0.0,0.0,0.0,0.0,0.0,0.0,0.0,0.0,0.0,0.0,0.0,0.0,0.0,0.0,0.0,0.0,0.0,0.0,0.0,0.0,0.0,0.0,0.0,0.0,0.0,0.0,0.0,0.0,0.0,0.0,0.0,0.0,0.0,0.0,0.0,0.0,0.0,0.0,0.0,0.0,0.0,0.0,0.0,0.0,0.0,0.0,0.0,0.0,0.0,0.0,0.0,0.0,0.0,0.0,0.0,0.0,0.0,0.0,0.0,0.0,0.0,0.0,0.0,0.0,0.0,0.0,0.0,0.0,0.0,0.0,0.0,0.0,0.0,0.0,0.0,0.0,0.0,0.0,0.0,0.0,0.0,0.0,0.0,0.0,0.0,0.0,0.0,0.0,0.0,0.0,0.0,0.0,0.0,0.0,0.0,0.0,0.0,0.0,0.0,0.0,0.0,0.0,0.0,0.0,0.0,0.0,0.0,0.0,0.0,0.0,0.0,0.0,0.0,0.0,0.0,0.0,0.0,0.0,0.0,0.0,0.0,0.0,0.0,0.0,0.0,0.0,0.0,0.0,0.0,0.0,0.0,0.0,0.0,0.0,0.0,0.0,0.0,0.0,0.0,0.0,0.0,0.0,0.0,0.0,0.0,0.0,0.0,0.0,0.0,0.0,0.0,0.0,0.0,0.0,0.0,0.0,0.0,0.0,0.0,0.0,0.0,0.0,0.0,0.0,0.0,0.0,0.0,0.0,0.0,0.0,0.0,0.0,0.0,0.0,0.0,0.0,0.0,0.0,0.0,0.0,0.0,0.0,0.0,0.0,0.0,0.0,0.0,0.0,0.0,0.0,0.0,0.0,0.0,0.0,0.0,0.0,0.0,0.0,0.0,0.0,0.0,0.0,0.0,0.0,0.0,0.0,0.0,0.0,0.0,0.0,0.0,0.0,0.0,0.0,0.0,0.0,0.0,0.0,0.0,0.0,0.0,0.0,0.0,0.0,0.0,0.0,0.0,0.0,0.0,0.0,0.0,0.0,0.0,0.0,0.0,0.0,0.0,0.0,0.0,0.0,0.0,0.0,0.0,0.0,0.0,0.0,0.0,0.0,0.0,0.0,0.0,0.0,0.0,0.0,0.0,0.0,0.0,0.0,0.0,0.0,0.0,0.0,0.0,0.0,0.0,0.0,0.0,0.0,0.0,0.0,0.0,0.0,0.0,0.0,0.0,0.0,0.0,0.0,0.0,0.0,0.0,0.0,0.0,0.0,0.0,0.0,0.0,0.0,0.0,0.0,0.0,0.0,0.0,0.0,0.0,0.0,0.0,0.0,0.0,0.0,0.0,0.0,0.0,0.0,0.0,0.0,0.0,0.0,0.0,0.0,0.0,0.0,0.0,0.0,0.0,0.0,0.0,0.0,0.0,0.0,0.0,0.0,0.0,0.0,0.0,0.0,0.0,0.0,0.0,0.0,0.0,0.0,0.0,0.0,0.0,0.0,0.0,0.0,0.0,0.0,0.0,0.0,0.0,0.0,0.0,0.0,0.0,0.0,0.0,0.0,0.0,0.0,0.0,0.0,0.0,0.0,0.0,0.0,0.0,0.0,0.0,0.0,0.0,0.0,0.0,0.0,0.0,0.0,0.0,0.0,0.0,0.0,0.0,0.0,0.0,0.0,0.0,0.0,0.0,0.0,0.0,0.0,0.0,0.0,0.0,0.0,0.0,0.0,0.0,0.0,0.0,0.0,0.0,0.0,0.0,0.0,0.0,0.0,0.0,0.0,0.0,0.0,0.0,0.0,0.0,0.0,0.0,0.0,0.0,0.0,0.0,0.0,0.0,0.0,0.0,0.0,0.0,0.0,0.0,0.0,0.0,0.0,0.0,0.0,0.0,0.0,0.0,0.0,0.0,0.0,0.0,0.0,0.0,0.0,0.0,0.0,0.0,0.0,0.0,0.0,0.0,0.0,0.0,0.0,0.0,0.0,0.0,0.0,0.0,0.0,0.0,0.0,0.0,0.0,0.0,0.0,0.0,0.0,0.0,0.0,0.0,0.0,0.0,0.0,0.0,0.0,0.0,0.0,0.0,0.0,0.0,0.0,0.0,0.0,0.0,0.0,0.0,0.0,0.0,0.0,0.0,0.0,0.0,0.0,0.0,0.0,0.0,0.0,0.0,0.0,0.0,0.0,0.0,0.0,0.0,0.0,0.0,0.0,0.0,0.0,0.0,0.0,0.0,0.0,0.0,0.0,0.0,0.0,0.0,0.0,0.0,0.0,0.0,0.0,0.0,0.0,0.0,0.0,0.0,0.0,0.0,0.0,0.0,0.0,0.0,0.0,0.0,0.0,0.0,0.0,0.0,0.0,0.0,0.0,0.0,0.0,0.0,0.0,0.0,0.0,0.0,0.0,0.0,0.0,0.0,0.0,0.0,0.0,0.0,0.0,0.0,0.0,0.0,0.0,0.0,0.0,0.0,0.0,0.0,0.0,0.0,0.0,0.0,0.0,0.0,0.0,0.0,0.0,0.0,0.0,0.0,0.0,0.0,0.0,0.0,0.0,0.0,0.0,0.0,0.0,0.0,0.0,0.0,0.0,0.0,0.0,0.0,0.0,0.0,0.0,0.0,0.0,0.0,0.0,0.0,0.0,0.0,0.0,0.0,0.0,0.0,0.0,0.0,0.0,0.0,0.0,0.0,0.0,0.0,0.0,0.0,0.0,0.0,0.0,0.0,0.0,0.0,0.0,0.0,0.0,0.0,0.0,0.0,0.0,0.0,0.0,0.0,0.0,0.0,0.0,0.0,0.0,0.0,0.0,0.0,0.0,0.0,0.0,0.0,0.0,0.0,0.0,0.0,0.0,0.0,0.0,0.0,0.0,0.0,0.0,0.0,0.0,0.0,0.0,0.0,0.0,0.0,0.0,0.0,0.0,0.0,0.0,0.0,0.0,0.0,0.0,0.0,0.0,0.0,0.0,0.0,0.0,0.0,0.0,0.0,0.0,0.0,0.0,0.0,0.0,0.0,0.0,0.0,0.0,0.0,0.0,0.0,0.0,0.0,0.0,0.0,0.0,0.0,0.0,0.0,0.0,0.0,0.0,0.0,0.0,0.0,0.0,0.0,0.0,0.0,0.0,0.0,0.0,0.0,0.0,0.0,0.0,0.0,0.0,0.0,0.0,0.0,0.0,0.0,0.0,0.0,0.0,0.0,0.0,0.0,0.0,0.0,0.0]}]]]